<?xml version="1.0" encoding="UTF-8" standalone="no" ?>
<gpx xmlns="http://www.topografix.com/GPX/1/1" xmlns:xsi="http://www.w3.org/2001/XMLSchema-instance" xsi:schemaLocation="http://www.topografix.com/GPX/1/1 http://www.topografix.com/GPX/1/1/gpx.xsd" version="1.1" creator="VisuGPX - https://www.visugpx.com">
  <metadata>
    <name> Dole / La Vieille-Loye</name>
    <desc><![CDATA[échappée Jurassienne étape 1 Départ de Dole, traverser le Doubs , et en suivant le GR 59A entrer dans la forêt de Chaux jusqu'au village de La Vieille Loye. (gîte communal)]]></desc>
  </metadata>
  <trk>
    <name><![CDATA[Jura A Dole Vielle Loye 1-6]]></name>
    <trkseg>
      <trkpt lat="47.09589" lon="5.4887">
        <ele>193.84</ele>
        <time>2016-06-01T08:04:28Z</time>
      </trkpt>
      <trkpt lat="47.0962" lon="5.48871">
        <ele>221.72</ele>
        <time>2016-06-01T08:04:47Z</time>
      </trkpt>
      <trkpt lat="47.09618" lon="5.48867">
        <ele>230.37</ele>
        <time>2016-06-01T08:05:15Z</time>
      </trkpt>
      <trkpt lat="47.09623" lon="5.48865">
        <ele>232.78</ele>
        <time>2016-06-01T08:05:33Z</time>
      </trkpt>
      <trkpt lat="47.09621" lon="5.48869">
        <ele>234.7</ele>
        <time>2016-06-01T08:05:56Z</time>
      </trkpt>
      <trkpt lat="47.09622" lon="5.48868">
        <ele>232.78</ele>
        <time>2016-06-01T08:06:24Z</time>
      </trkpt>
      <trkpt lat="47.09621" lon="5.48869">
        <ele>231.81</ele>
        <time>2016-06-01T08:06:48Z</time>
      </trkpt>
      <trkpt lat="47.09607" lon="5.48859">
        <ele>209.22</ele>
        <time>2016-06-01T08:07:03Z</time>
      </trkpt>
      <trkpt lat="47.09623" lon="5.4887">
        <ele>236.62</ele>
        <time>2016-06-01T08:07:31Z</time>
      </trkpt>
      <trkpt lat="47.09625" lon="5.4887">
        <ele>237.1</ele>
        <time>2016-06-01T08:08:02Z</time>
      </trkpt>
      <trkpt lat="47.09624" lon="5.48869">
        <ele>236.14</ele>
        <time>2016-06-01T08:08:29Z</time>
      </trkpt>
      <trkpt lat="47.09621" lon="5.48867">
        <ele>234.22</ele>
        <time>2016-06-01T08:09:02Z</time>
      </trkpt>
      <trkpt lat="47.09621" lon="5.48869">
        <ele>233.26</ele>
        <time>2016-06-01T08:09:33Z</time>
      </trkpt>
      <trkpt lat="47.09621" lon="5.4887">
        <ele>233.26</ele>
        <time>2016-06-01T08:09:49Z</time>
      </trkpt>
      <trkpt lat="47.09619" lon="5.48874">
        <ele>234.22</ele>
        <time>2016-06-01T08:09:53Z</time>
      </trkpt>
      <trkpt lat="47.09616" lon="5.48881">
        <ele>235.18</ele>
        <time>2016-06-01T08:09:58Z</time>
      </trkpt>
      <trkpt lat="47.0961" lon="5.48889">
        <ele>234.7</ele>
        <time>2016-06-01T08:10:05Z</time>
      </trkpt>
      <trkpt lat="47.09606" lon="5.48893">
        <ele>234.7</ele>
        <time>2016-06-01T08:10:09Z</time>
      </trkpt>
      <trkpt lat="47.09595" lon="5.48912">
        <ele>232.3</ele>
        <time>2016-06-01T08:10:24Z</time>
      </trkpt>
      <trkpt lat="47.09587" lon="5.48924">
        <ele>230.85</ele>
        <time>2016-06-01T08:10:36Z</time>
      </trkpt>
      <trkpt lat="47.09582" lon="5.48939">
        <ele>230.85</ele>
        <time>2016-06-01T08:10:49Z</time>
      </trkpt>
      <trkpt lat="47.09583" lon="5.48935">
        <ele>230.37</ele>
        <time>2016-06-01T08:10:55Z</time>
      </trkpt>
      <trkpt lat="47.09584" lon="5.48927">
        <ele>229.41</ele>
        <time>2016-06-01T08:11:10Z</time>
      </trkpt>
      <trkpt lat="47.09583" lon="5.4893">
        <ele>228.93</ele>
        <time>2016-06-01T08:11:19Z</time>
      </trkpt>
      <trkpt lat="47.09584" lon="5.48929">
        <ele>228.93</ele>
        <time>2016-06-01T08:11:42Z</time>
      </trkpt>
      <trkpt lat="47.09581" lon="5.48932">
        <ele>228.45</ele>
        <time>2016-06-01T08:12:03Z</time>
      </trkpt>
      <trkpt lat="47.09578" lon="5.48942">
        <ele>228.45</ele>
        <time>2016-06-01T08:12:21Z</time>
      </trkpt>
      <trkpt lat="47.09581" lon="5.48944">
        <ele>228.45</ele>
        <time>2016-06-01T08:12:43Z</time>
      </trkpt>
      <trkpt lat="47.0958" lon="5.48943">
        <ele>228.45</ele>
        <time>2016-06-01T08:13:03Z</time>
      </trkpt>
      <trkpt lat="47.0959" lon="5.48939">
        <ele>227.97</ele>
        <time>2016-06-01T08:13:15Z</time>
      </trkpt>
      <trkpt lat="47.09591" lon="5.48938">
        <ele>227.97</ele>
        <time>2016-06-01T08:13:17Z</time>
      </trkpt>
      <trkpt lat="47.09581" lon="5.48954">
        <ele>229.41</ele>
        <time>2016-06-01T08:13:30Z</time>
      </trkpt>
      <trkpt lat="47.09577" lon="5.48961">
        <ele>227.97</ele>
        <time>2016-06-01T08:13:36Z</time>
      </trkpt>
      <trkpt lat="47.09575" lon="5.48963">
        <ele>227.49</ele>
        <time>2016-06-01T08:13:38Z</time>
      </trkpt>
      <trkpt lat="47.09573" lon="5.48967">
        <ele>226.05</ele>
        <time>2016-06-01T08:13:41Z</time>
      </trkpt>
      <trkpt lat="47.09568" lon="5.48973">
        <ele>224.61</ele>
        <time>2016-06-01T08:13:46Z</time>
      </trkpt>
      <trkpt lat="47.09566" lon="5.48977">
        <ele>225.57</ele>
        <time>2016-06-01T08:13:49Z</time>
      </trkpt>
      <trkpt lat="47.09558" lon="5.48984">
        <ele>223.64</ele>
        <time>2016-06-01T08:13:58Z</time>
      </trkpt>
      <trkpt lat="47.09555" lon="5.48989">
        <ele>223.64</ele>
        <time>2016-06-01T08:14:01Z</time>
      </trkpt>
      <trkpt lat="47.09545" lon="5.49002">
        <ele>226.05</ele>
        <time>2016-06-01T08:14:13Z</time>
      </trkpt>
      <trkpt lat="47.09538" lon="5.49011">
        <ele>226.05</ele>
        <time>2016-06-01T08:14:19Z</time>
      </trkpt>
      <trkpt lat="47.09532" lon="5.49018">
        <ele>225.57</ele>
        <time>2016-06-01T08:14:27Z</time>
      </trkpt>
      <trkpt lat="47.09527" lon="5.49021">
        <ele>227.49</ele>
        <time>2016-06-01T08:14:34Z</time>
      </trkpt>
      <trkpt lat="47.09522" lon="5.49031">
        <ele>228.45</ele>
        <time>2016-06-01T08:14:41Z</time>
      </trkpt>
      <trkpt lat="47.09521" lon="5.49036">
        <ele>228.93</ele>
        <time>2016-06-01T08:14:44Z</time>
      </trkpt>
      <trkpt lat="47.09518" lon="5.4904">
        <ele>229.41</ele>
        <time>2016-06-01T08:14:48Z</time>
      </trkpt>
      <trkpt lat="47.09516" lon="5.49045">
        <ele>229.89</ele>
        <time>2016-06-01T08:14:52Z</time>
      </trkpt>
      <trkpt lat="47.09507" lon="5.49054">
        <ele>229.41</ele>
        <time>2016-06-01T08:15:00Z</time>
      </trkpt>
      <trkpt lat="47.09501" lon="5.49059">
        <ele>227.49</ele>
        <time>2016-06-01T08:15:06Z</time>
      </trkpt>
      <trkpt lat="47.09495" lon="5.49064">
        <ele>226.53</ele>
        <time>2016-06-01T08:15:13Z</time>
      </trkpt>
      <trkpt lat="47.09488" lon="5.4908">
        <ele>226.53</ele>
        <time>2016-06-01T08:15:21Z</time>
      </trkpt>
      <trkpt lat="47.09482" lon="5.49093">
        <ele>227.49</ele>
        <time>2016-06-01T08:15:29Z</time>
      </trkpt>
      <trkpt lat="47.09479" lon="5.49095">
        <ele>227.01</ele>
        <time>2016-06-01T08:15:32Z</time>
      </trkpt>
      <trkpt lat="47.09469" lon="5.49109">
        <ele>228.93</ele>
        <time>2016-06-01T08:15:42Z</time>
      </trkpt>
      <trkpt lat="47.09455" lon="5.49127">
        <ele>230.85</ele>
        <time>2016-06-01T08:15:56Z</time>
      </trkpt>
      <trkpt lat="47.09451" lon="5.49131">
        <ele>231.33</ele>
        <time>2016-06-01T08:16:00Z</time>
      </trkpt>
      <trkpt lat="47.09442" lon="5.4914">
        <ele>228.93</ele>
        <time>2016-06-01T08:16:10Z</time>
      </trkpt>
      <trkpt lat="47.09439" lon="5.49144">
        <ele>227.97</ele>
        <time>2016-06-01T08:16:14Z</time>
      </trkpt>
      <trkpt lat="47.09432" lon="5.49152">
        <ele>226.53</ele>
        <time>2016-06-01T08:16:21Z</time>
      </trkpt>
      <trkpt lat="47.0942" lon="5.49174">
        <ele>228.45</ele>
        <time>2016-06-01T08:16:35Z</time>
      </trkpt>
      <trkpt lat="47.0941" lon="5.49187">
        <ele>226.53</ele>
        <time>2016-06-01T08:16:46Z</time>
      </trkpt>
      <trkpt lat="47.09407" lon="5.49192">
        <ele>226.05</ele>
        <time>2016-06-01T08:16:50Z</time>
      </trkpt>
      <trkpt lat="47.09405" lon="5.49193">
        <ele>225.57</ele>
        <time>2016-06-01T08:16:52Z</time>
      </trkpt>
      <trkpt lat="47.094" lon="5.49198">
        <ele>224.61</ele>
        <time>2016-06-01T08:16:57Z</time>
      </trkpt>
      <trkpt lat="47.0939" lon="5.49211">
        <ele>224.12</ele>
        <time>2016-06-01T08:17:07Z</time>
      </trkpt>
      <trkpt lat="47.09387" lon="5.49217">
        <ele>223.64</ele>
        <time>2016-06-01T08:17:12Z</time>
      </trkpt>
      <trkpt lat="47.09382" lon="5.49222">
        <ele>223.64</ele>
        <time>2016-06-01T08:17:17Z</time>
      </trkpt>
      <trkpt lat="47.09368" lon="5.49237">
        <ele>223.64</ele>
        <time>2016-06-01T08:17:31Z</time>
      </trkpt>
      <trkpt lat="47.0936" lon="5.49249">
        <ele>226.05</ele>
        <time>2016-06-01T08:17:43Z</time>
      </trkpt>
      <trkpt lat="47.09355" lon="5.49251">
        <ele>225.57</ele>
        <time>2016-06-01T08:17:51Z</time>
      </trkpt>
      <trkpt lat="47.0935" lon="5.49249">
        <ele>225.57</ele>
        <time>2016-06-01T08:17:57Z</time>
      </trkpt>
      <trkpt lat="47.09348" lon="5.4924">
        <ele>225.09</ele>
        <time>2016-06-01T08:18:04Z</time>
      </trkpt>
      <trkpt lat="47.09345" lon="5.49235">
        <ele>224.61</ele>
        <time>2016-06-01T08:18:08Z</time>
      </trkpt>
      <trkpt lat="47.09337" lon="5.49223">
        <ele>222.68</ele>
        <time>2016-06-01T08:18:17Z</time>
      </trkpt>
      <trkpt lat="47.09327" lon="5.49212">
        <ele>222.2</ele>
        <time>2016-06-01T08:18:27Z</time>
      </trkpt>
      <trkpt lat="47.09324" lon="5.49209">
        <ele>220.76</ele>
        <time>2016-06-01T08:18:34Z</time>
      </trkpt>
      <trkpt lat="47.09313" lon="5.49196">
        <ele>221.24</ele>
        <time>2016-06-01T08:18:46Z</time>
      </trkpt>
      <trkpt lat="47.093" lon="5.49206">
        <ele>215.95</ele>
        <time>2016-06-01T08:19:02Z</time>
      </trkpt>
      <trkpt lat="47.09292" lon="5.49205">
        <ele>211.15</ele>
        <time>2016-06-01T08:19:14Z</time>
      </trkpt>
      <trkpt lat="47.09295" lon="5.49213">
        <ele>214.03</ele>
        <time>2016-06-01T08:19:27Z</time>
      </trkpt>
      <trkpt lat="47.09292" lon="5.49215">
        <ele>214.99</ele>
        <time>2016-06-01T08:19:29Z</time>
      </trkpt>
      <trkpt lat="47.09285" lon="5.49224">
        <ele>216.91</ele>
        <time>2016-06-01T08:19:35Z</time>
      </trkpt>
      <trkpt lat="47.09268" lon="5.49246">
        <ele>219.8</ele>
        <time>2016-06-01T08:19:52Z</time>
      </trkpt>
      <trkpt lat="47.09245" lon="5.49274">
        <ele>221.72</ele>
        <time>2016-06-01T08:20:11Z</time>
      </trkpt>
      <trkpt lat="47.09247" lon="5.49287">
        <ele>222.2</ele>
        <time>2016-06-01T08:20:23Z</time>
      </trkpt>
      <trkpt lat="47.0925" lon="5.49296">
        <ele>222.2</ele>
        <time>2016-06-01T08:20:32Z</time>
      </trkpt>
      <trkpt lat="47.0926" lon="5.49307">
        <ele>218.36</ele>
        <time>2016-06-01T08:20:45Z</time>
      </trkpt>
      <trkpt lat="47.09268" lon="5.49328">
        <ele>211.63</ele>
        <time>2016-06-01T08:21:02Z</time>
      </trkpt>
      <trkpt lat="47.0927" lon="5.49344">
        <ele>207.3</ele>
        <time>2016-06-01T08:21:13Z</time>
      </trkpt>
      <trkpt lat="47.09278" lon="5.49375">
        <ele>202.98</ele>
        <time>2016-06-01T08:21:31Z</time>
      </trkpt>
      <trkpt lat="47.09276" lon="5.49393">
        <ele>202.98</ele>
        <time>2016-06-01T08:21:42Z</time>
      </trkpt>
      <trkpt lat="47.09272" lon="5.49397">
        <ele>202.49</ele>
        <time>2016-06-01T08:21:46Z</time>
      </trkpt>
      <trkpt lat="47.09264" lon="5.49413">
        <ele>219.32</ele>
        <time>2016-06-01T08:22:00Z</time>
      </trkpt>
      <trkpt lat="47.09255" lon="5.49424">
        <ele>219.8</ele>
        <time>2016-06-01T08:22:11Z</time>
      </trkpt>
      <trkpt lat="47.09244" lon="5.49418">
        <ele>218.84</ele>
        <time>2016-06-01T08:22:24Z</time>
      </trkpt>
      <trkpt lat="47.09238" lon="5.49438">
        <ele>216.91</ele>
        <time>2016-06-01T08:22:39Z</time>
      </trkpt>
      <trkpt lat="47.09236" lon="5.49443">
        <ele>216.43</ele>
        <time>2016-06-01T08:22:44Z</time>
      </trkpt>
      <trkpt lat="47.09201" lon="5.4941">
        <ele>255.37</ele>
        <time>2016-06-01T08:26:08Z</time>
      </trkpt>
      <trkpt lat="47.0922" lon="5.4941">
        <ele>242.87</ele>
        <time>2016-06-01T08:26:09Z</time>
      </trkpt>
      <trkpt lat="47.09222" lon="5.49429">
        <ele>233.26</ele>
        <time>2016-06-01T08:26:20Z</time>
      </trkpt>
      <trkpt lat="47.09221" lon="5.49415">
        <ele>242.39</ele>
        <time>2016-06-01T08:26:42Z</time>
      </trkpt>
      <trkpt lat="47.09225" lon="5.49426">
        <ele>245.75</ele>
        <time>2016-06-01T08:27:03Z</time>
      </trkpt>
      <trkpt lat="47.09227" lon="5.49423">
        <ele>242.87</ele>
        <time>2016-06-01T08:27:23Z</time>
      </trkpt>
      <trkpt lat="47.09224" lon="5.49414">
        <ele>241.43</ele>
        <time>2016-06-01T08:27:41Z</time>
      </trkpt>
      <trkpt lat="47.09227" lon="5.49411">
        <ele>236.62</ele>
        <time>2016-06-01T08:27:55Z</time>
      </trkpt>
      <trkpt lat="47.09227" lon="5.49414">
        <ele>235.66</ele>
        <time>2016-06-01T08:28:15Z</time>
      </trkpt>
      <trkpt lat="47.09228" lon="5.4942">
        <ele>236.14</ele>
        <time>2016-06-01T08:28:40Z</time>
      </trkpt>
      <trkpt lat="47.09229" lon="5.49422">
        <ele>233.26</ele>
        <time>2016-06-01T08:29:04Z</time>
      </trkpt>
      <trkpt lat="47.09231" lon="5.49429">
        <ele>232.78</ele>
        <time>2016-06-01T08:29:24Z</time>
      </trkpt>
      <trkpt lat="47.09231" lon="5.49425">
        <ele>231.33</ele>
        <time>2016-06-01T08:29:30Z</time>
      </trkpt>
      <trkpt lat="47.09229" lon="5.49413">
        <ele>236.62</ele>
        <time>2016-06-01T08:29:49Z</time>
      </trkpt>
      <trkpt lat="47.09229" lon="5.49415">
        <ele>238.06</ele>
        <time>2016-06-01T08:30:12Z</time>
      </trkpt>
      <trkpt lat="47.09227" lon="5.49421">
        <ele>243.35</ele>
        <time>2016-06-01T08:30:33Z</time>
      </trkpt>
      <trkpt lat="47.09227" lon="5.49422">
        <ele>244.31</ele>
        <time>2016-06-01T08:31:01Z</time>
      </trkpt>
      <trkpt lat="47.09226" lon="5.49418">
        <ele>243.83</ele>
        <time>2016-06-01T08:31:20Z</time>
      </trkpt>
      <trkpt lat="47.09226" lon="5.49417">
        <ele>243.35</ele>
        <time>2016-06-01T08:31:44Z</time>
      </trkpt>
      <trkpt lat="47.09226" lon="5.49419">
        <ele>242.87</ele>
        <time>2016-06-01T08:32:10Z</time>
      </trkpt>
      <trkpt lat="47.09226" lon="5.49427">
        <ele>241.91</ele>
        <time>2016-06-01T08:32:30Z</time>
      </trkpt>
      <trkpt lat="47.09228" lon="5.49424">
        <ele>239.99</ele>
        <time>2016-06-01T08:32:56Z</time>
      </trkpt>
      <trkpt lat="47.09226" lon="5.49426">
        <ele>239.51</ele>
        <time>2016-06-01T08:33:19Z</time>
      </trkpt>
      <trkpt lat="47.09226" lon="5.49425">
        <ele>238.54</ele>
        <time>2016-06-01T08:33:42Z</time>
      </trkpt>
      <trkpt lat="47.09225" lon="5.49423">
        <ele>239.51</ele>
        <time>2016-06-01T08:34:05Z</time>
      </trkpt>
      <trkpt lat="47.09225" lon="5.49423">
        <ele>240.47</ele>
        <time>2016-06-01T08:34:23Z</time>
      </trkpt>
      <trkpt lat="47.09229" lon="5.4943">
        <ele>239.99</ele>
        <time>2016-06-01T08:34:38Z</time>
      </trkpt>
      <trkpt lat="47.09229" lon="5.49449">
        <ele>239.99</ele>
        <time>2016-06-01T08:35:03Z</time>
      </trkpt>
      <trkpt lat="47.09223" lon="5.49422">
        <ele>239.99</ele>
        <time>2016-06-01T08:35:25Z</time>
      </trkpt>
      <trkpt lat="47.09223" lon="5.49419">
        <ele>240.47</ele>
        <time>2016-06-01T08:35:55Z</time>
      </trkpt>
      <trkpt lat="47.09221" lon="5.49406">
        <ele>242.39</ele>
        <time>2016-06-01T08:36:16Z</time>
      </trkpt>
      <trkpt lat="47.09222" lon="5.494">
        <ele>242.39</ele>
        <time>2016-06-01T08:36:40Z</time>
      </trkpt>
      <trkpt lat="47.09225" lon="5.4941">
        <ele>242.39</ele>
        <time>2016-06-01T08:37:02Z</time>
      </trkpt>
      <trkpt lat="47.09223" lon="5.49426">
        <ele>242.39</ele>
        <time>2016-06-01T08:37:22Z</time>
      </trkpt>
      <trkpt lat="47.09224" lon="5.49425">
        <ele>242.39</ele>
        <time>2016-06-01T08:37:28Z</time>
      </trkpt>
      <trkpt lat="47.09216" lon="5.49393">
        <ele>241.91</ele>
        <time>2016-06-01T08:38:12Z</time>
      </trkpt>
      <trkpt lat="47.09216" lon="5.49398">
        <ele>241.43</ele>
        <time>2016-06-01T08:38:15Z</time>
      </trkpt>
      <trkpt lat="47.09219" lon="5.49428">
        <ele>227.01</ele>
        <time>2016-06-01T08:38:27Z</time>
      </trkpt>
      <trkpt lat="47.09218" lon="5.49429">
        <ele>225.09</ele>
        <time>2016-06-01T08:38:31Z</time>
      </trkpt>
      <trkpt lat="47.09212" lon="5.49423">
        <ele>221.72</ele>
        <time>2016-06-01T08:38:40Z</time>
      </trkpt>
      <trkpt lat="47.09207" lon="5.49422">
        <ele>221.72</ele>
        <time>2016-06-01T08:38:45Z</time>
      </trkpt>
      <trkpt lat="47.09193" lon="5.49411">
        <ele>221.24</ele>
        <time>2016-06-01T08:39:00Z</time>
      </trkpt>
      <trkpt lat="47.0918" lon="5.49397">
        <ele>221.24</ele>
        <time>2016-06-01T08:39:13Z</time>
      </trkpt>
      <trkpt lat="47.09175" lon="5.49395">
        <ele>220.28</ele>
        <time>2016-06-01T08:39:17Z</time>
      </trkpt>
      <trkpt lat="47.09164" lon="5.49389">
        <ele>220.28</ele>
        <time>2016-06-01T08:39:29Z</time>
      </trkpt>
      <trkpt lat="47.0915" lon="5.49384">
        <ele>218.36</ele>
        <time>2016-06-01T08:39:44Z</time>
      </trkpt>
      <trkpt lat="47.09147" lon="5.4938">
        <ele>215.95</ele>
        <time>2016-06-01T08:39:47Z</time>
      </trkpt>
      <trkpt lat="47.09135" lon="5.49372">
        <ele>208.74</ele>
        <time>2016-06-01T08:40:00Z</time>
      </trkpt>
      <trkpt lat="47.09132" lon="5.4937">
        <ele>207.3</ele>
        <time>2016-06-01T08:40:03Z</time>
      </trkpt>
      <trkpt lat="47.0912" lon="5.49355">
        <ele>205.86</ele>
        <time>2016-06-01T08:40:16Z</time>
      </trkpt>
      <trkpt lat="47.09117" lon="5.49342">
        <ele>194.32</ele>
        <time>2016-06-01T08:40:30Z</time>
      </trkpt>
      <trkpt lat="47.09114" lon="5.4934">
        <ele>192.4</ele>
        <time>2016-06-01T08:40:36Z</time>
      </trkpt>
      <trkpt lat="47.09095" lon="5.49336">
        <ele>188.56</ele>
        <time>2016-06-01T08:40:48Z</time>
      </trkpt>
      <trkpt lat="47.09092" lon="5.49336">
        <ele>188.08</ele>
        <time>2016-06-01T08:40:51Z</time>
      </trkpt>
      <trkpt lat="47.0907" lon="5.49331">
        <ele>189.04</ele>
        <time>2016-06-01T08:41:04Z</time>
      </trkpt>
      <trkpt lat="47.09065" lon="5.49336">
        <ele>191.44</ele>
        <time>2016-06-01T08:41:09Z</time>
      </trkpt>
      <trkpt lat="47.09062" lon="5.49346">
        <ele>196.25</ele>
        <time>2016-06-01T08:41:15Z</time>
      </trkpt>
      <trkpt lat="47.09052" lon="5.49363">
        <ele>204.42</ele>
        <time>2016-06-01T08:41:28Z</time>
      </trkpt>
      <trkpt lat="47.09058" lon="5.49383">
        <ele>204.42</ele>
        <time>2016-06-01T08:41:43Z</time>
      </trkpt>
      <trkpt lat="47.09061" lon="5.49388">
        <ele>204.9</ele>
        <time>2016-06-01T08:41:48Z</time>
      </trkpt>
      <trkpt lat="47.09067" lon="5.49403">
        <ele>203.94</ele>
        <time>2016-06-01T08:41:55Z</time>
      </trkpt>
      <trkpt lat="47.09077" lon="5.49411">
        <ele>206.82</ele>
        <time>2016-06-01T08:42:08Z</time>
      </trkpt>
      <trkpt lat="47.09091" lon="5.49424">
        <ele>207.78</ele>
        <time>2016-06-01T08:42:22Z</time>
      </trkpt>
      <trkpt lat="47.09092" lon="5.49433">
        <ele>207.3</ele>
        <time>2016-06-01T08:42:36Z</time>
      </trkpt>
      <trkpt lat="47.09089" lon="5.49426">
        <ele>204.42</ele>
        <time>2016-06-01T08:42:42Z</time>
      </trkpt>
      <trkpt lat="47.09084" lon="5.49424">
        <ele>201.53</ele>
        <time>2016-06-01T08:42:57Z</time>
      </trkpt>
      <trkpt lat="47.09075" lon="5.4941">
        <ele>200.57</ele>
        <time>2016-06-01T08:43:12Z</time>
      </trkpt>
      <trkpt lat="47.0907" lon="5.49403">
        <ele>197.69</ele>
        <time>2016-06-01T08:43:16Z</time>
      </trkpt>
      <trkpt lat="47.0906" lon="5.4938">
        <ele>197.69</ele>
        <time>2016-06-01T08:43:30Z</time>
      </trkpt>
      <trkpt lat="47.09055" lon="5.49363">
        <ele>200.09</ele>
        <time>2016-06-01T08:43:44Z</time>
      </trkpt>
      <trkpt lat="47.09056" lon="5.49361">
        <ele>200.57</ele>
        <time>2016-06-01T08:43:47Z</time>
      </trkpt>
      <trkpt lat="47.09072" lon="5.49356">
        <ele>200.09</ele>
        <time>2016-06-01T08:44:00Z</time>
      </trkpt>
      <trkpt lat="47.09072" lon="5.49356">
        <ele>200.09</ele>
        <time>2016-06-01T08:44:01Z</time>
      </trkpt>
      <trkpt lat="47.09084" lon="5.4934">
        <ele>200.09</ele>
        <time>2016-06-01T08:44:16Z</time>
      </trkpt>
      <trkpt lat="47.09094" lon="5.49347">
        <ele>201.53</ele>
        <time>2016-06-01T08:44:22Z</time>
      </trkpt>
      <trkpt lat="47.0911" lon="5.49379">
        <ele>207.3</ele>
        <time>2016-06-01T08:44:40Z</time>
      </trkpt>
      <trkpt lat="47.09119" lon="5.49394">
        <ele>209.7</ele>
        <time>2016-06-01T08:44:51Z</time>
      </trkpt>
      <trkpt lat="47.09124" lon="5.4941">
        <ele>216.43</ele>
        <time>2016-06-01T08:45:02Z</time>
      </trkpt>
      <trkpt lat="47.09121" lon="5.49414">
        <ele>216.91</ele>
        <time>2016-06-01T08:45:04Z</time>
      </trkpt>
      <trkpt lat="47.0911" lon="5.49432">
        <ele>213.07</ele>
        <time>2016-06-01T08:45:18Z</time>
      </trkpt>
      <trkpt lat="47.09109" lon="5.49437">
        <ele>211.63</ele>
        <time>2016-06-01T08:45:22Z</time>
      </trkpt>
      <trkpt lat="47.09101" lon="5.49449">
        <ele>209.7</ele>
        <time>2016-06-01T08:45:30Z</time>
      </trkpt>
      <trkpt lat="47.09098" lon="5.49454">
        <ele>209.7</ele>
        <time>2016-06-01T08:45:34Z</time>
      </trkpt>
      <trkpt lat="47.09092" lon="5.49465">
        <ele>210.19</ele>
        <time>2016-06-01T08:45:41Z</time>
      </trkpt>
      <trkpt lat="47.09086" lon="5.49474">
        <ele>209.7</ele>
        <time>2016-06-01T08:45:47Z</time>
      </trkpt>
      <trkpt lat="47.09082" lon="5.49482">
        <ele>209.22</ele>
        <time>2016-06-01T08:45:52Z</time>
      </trkpt>
      <trkpt lat="47.09079" lon="5.49488">
        <ele>209.7</ele>
        <time>2016-06-01T08:45:56Z</time>
      </trkpt>
      <trkpt lat="47.09071" lon="5.49503">
        <ele>207.3</ele>
        <time>2016-06-01T08:46:07Z</time>
      </trkpt>
      <trkpt lat="47.09071" lon="5.49522">
        <ele>205.38</ele>
        <time>2016-06-01T08:46:20Z</time>
      </trkpt>
      <trkpt lat="47.09078" lon="5.49545">
        <ele>202.01</ele>
        <time>2016-06-01T08:46:35Z</time>
      </trkpt>
      <trkpt lat="47.09086" lon="5.49569">
        <ele>201.53</ele>
        <time>2016-06-01T08:46:49Z</time>
      </trkpt>
      <trkpt lat="47.0909" lon="5.49578">
        <ele>202.01</ele>
        <time>2016-06-01T08:46:55Z</time>
      </trkpt>
      <trkpt lat="47.09092" lon="5.49584">
        <ele>202.01</ele>
        <time>2016-06-01T08:46:59Z</time>
      </trkpt>
      <trkpt lat="47.09098" lon="5.49598">
        <ele>202.98</ele>
        <time>2016-06-01T08:47:09Z</time>
      </trkpt>
      <trkpt lat="47.09098" lon="5.49603">
        <ele>202.98</ele>
        <time>2016-06-01T08:47:12Z</time>
      </trkpt>
      <trkpt lat="47.09097" lon="5.49611">
        <ele>203.94</ele>
        <time>2016-06-01T08:47:17Z</time>
      </trkpt>
      <trkpt lat="47.09087" lon="5.49631">
        <ele>201.05</ele>
        <time>2016-06-01T08:47:32Z</time>
      </trkpt>
      <trkpt lat="47.09085" lon="5.49634">
        <ele>201.05</ele>
        <time>2016-06-01T08:47:34Z</time>
      </trkpt>
      <trkpt lat="47.09083" lon="5.49644">
        <ele>201.05</ele>
        <time>2016-06-01T08:47:40Z</time>
      </trkpt>
      <trkpt lat="47.09075" lon="5.49658">
        <ele>201.53</ele>
        <time>2016-06-01T08:47:50Z</time>
      </trkpt>
      <trkpt lat="47.09069" lon="5.49675">
        <ele>202.01</ele>
        <time>2016-06-01T08:48:01Z</time>
      </trkpt>
      <trkpt lat="47.09067" lon="5.49676">
        <ele>202.49</ele>
        <time>2016-06-01T08:48:03Z</time>
      </trkpt>
      <trkpt lat="47.09056" lon="5.49678">
        <ele>202.49</ele>
        <time>2016-06-01T08:48:12Z</time>
      </trkpt>
      <trkpt lat="47.09051" lon="5.49677">
        <ele>203.94</ele>
        <time>2016-06-01T08:48:16Z</time>
      </trkpt>
      <trkpt lat="47.09048" lon="5.49676">
        <ele>203.46</ele>
        <time>2016-06-01T08:48:18Z</time>
      </trkpt>
      <trkpt lat="47.09036" lon="5.49673">
        <ele>207.78</ele>
        <time>2016-06-01T08:48:31Z</time>
      </trkpt>
      <trkpt lat="47.09036" lon="5.49674">
        <ele>207.78</ele>
        <time>2016-06-01T08:48:32Z</time>
      </trkpt>
      <trkpt lat="47.09029" lon="5.4968">
        <ele>208.74</ele>
        <time>2016-06-01T08:48:39Z</time>
      </trkpt>
      <trkpt lat="47.09015" lon="5.49676">
        <ele>210.67</ele>
        <time>2016-06-01T08:48:52Z</time>
      </trkpt>
      <trkpt lat="47.08999" lon="5.49665">
        <ele>211.15</ele>
        <time>2016-06-01T08:49:05Z</time>
      </trkpt>
      <trkpt lat="47.08989" lon="5.49656">
        <ele>208.26</ele>
        <time>2016-06-01T08:49:15Z</time>
      </trkpt>
      <trkpt lat="47.08973" lon="5.49655">
        <ele>210.19</ele>
        <time>2016-06-01T08:49:28Z</time>
      </trkpt>
      <trkpt lat="47.08971" lon="5.49656">
        <ele>211.63</ele>
        <time>2016-06-01T08:49:31Z</time>
      </trkpt>
      <trkpt lat="47.08966" lon="5.49673">
        <ele>213.55</ele>
        <time>2016-06-01T08:49:43Z</time>
      </trkpt>
      <trkpt lat="47.08963" lon="5.49679">
        <ele>213.07</ele>
        <time>2016-06-01T08:49:47Z</time>
      </trkpt>
      <trkpt lat="47.08957" lon="5.49699">
        <ele>211.15</ele>
        <time>2016-06-01T08:49:59Z</time>
      </trkpt>
      <trkpt lat="47.08951" lon="5.49723">
        <ele>209.22</ele>
        <time>2016-06-01T08:50:13Z</time>
      </trkpt>
      <trkpt lat="47.08948" lon="5.49731">
        <ele>206.82</ele>
        <time>2016-06-01T08:50:19Z</time>
      </trkpt>
      <trkpt lat="47.08945" lon="5.49743">
        <ele>205.38</ele>
        <time>2016-06-01T08:50:27Z</time>
      </trkpt>
      <trkpt lat="47.08938" lon="5.49768">
        <ele>207.78</ele>
        <time>2016-06-01T08:50:42Z</time>
      </trkpt>
      <trkpt lat="47.08937" lon="5.4977">
        <ele>207.78</ele>
        <time>2016-06-01T08:50:43Z</time>
      </trkpt>
      <trkpt lat="47.08932" lon="5.49779">
        <ele>208.74</ele>
        <time>2016-06-01T08:50:59Z</time>
      </trkpt>
      <trkpt lat="47.0893" lon="5.49782">
        <ele>208.26</ele>
        <time>2016-06-01T08:51:23Z</time>
      </trkpt>
      <trkpt lat="47.08927" lon="5.49798">
        <ele>206.34</ele>
        <time>2016-06-01T08:51:36Z</time>
      </trkpt>
      <trkpt lat="47.08919" lon="5.49826">
        <ele>205.86</ele>
        <time>2016-06-01T08:51:50Z</time>
      </trkpt>
      <trkpt lat="47.08913" lon="5.49852">
        <ele>205.38</ele>
        <time>2016-06-01T08:52:03Z</time>
      </trkpt>
      <trkpt lat="47.08908" lon="5.49868">
        <ele>208.26</ele>
        <time>2016-06-01T08:52:13Z</time>
      </trkpt>
      <trkpt lat="47.08903" lon="5.49878">
        <ele>210.19</ele>
        <time>2016-06-01T08:52:23Z</time>
      </trkpt>
      <trkpt lat="47.08891" lon="5.49877">
        <ele>209.7</ele>
        <time>2016-06-01T08:52:32Z</time>
      </trkpt>
      <trkpt lat="47.08873" lon="5.49864">
        <ele>208.26</ele>
        <time>2016-06-01T08:52:47Z</time>
      </trkpt>
      <trkpt lat="47.08861" lon="5.49853">
        <ele>207.3</ele>
        <time>2016-06-01T08:52:59Z</time>
      </trkpt>
      <trkpt lat="47.08842" lon="5.4984">
        <ele>206.34</ele>
        <time>2016-06-01T08:53:16Z</time>
      </trkpt>
      <trkpt lat="47.08833" lon="5.49835">
        <ele>205.86</ele>
        <time>2016-06-01T08:53:24Z</time>
      </trkpt>
      <trkpt lat="47.08823" lon="5.49832">
        <ele>203.94</ele>
        <time>2016-06-01T08:53:35Z</time>
      </trkpt>
      <trkpt lat="47.08821" lon="5.49841">
        <ele>202.98</ele>
        <time>2016-06-01T08:53:42Z</time>
      </trkpt>
      <trkpt lat="47.08811" lon="5.49853">
        <ele>202.01</ele>
        <time>2016-06-01T08:53:55Z</time>
      </trkpt>
      <trkpt lat="47.08803" lon="5.49849">
        <ele>203.94</ele>
        <time>2016-06-01T08:53:59Z</time>
      </trkpt>
      <trkpt lat="47.08792" lon="5.49848">
        <ele>205.86</ele>
        <time>2016-06-01T08:54:11Z</time>
      </trkpt>
      <trkpt lat="47.08792" lon="5.49852">
        <ele>205.86</ele>
        <time>2016-06-01T08:54:14Z</time>
      </trkpt>
      <trkpt lat="47.08782" lon="5.49863">
        <ele>206.34</ele>
        <time>2016-06-01T08:54:24Z</time>
      </trkpt>
      <trkpt lat="47.08769" lon="5.49878">
        <ele>206.34</ele>
        <time>2016-06-01T08:54:37Z</time>
      </trkpt>
      <trkpt lat="47.08755" lon="5.49896">
        <ele>206.82</ele>
        <time>2016-06-01T08:54:52Z</time>
      </trkpt>
      <trkpt lat="47.0874" lon="5.49912">
        <ele>206.34</ele>
        <time>2016-06-01T08:55:08Z</time>
      </trkpt>
      <trkpt lat="47.08739" lon="5.49913">
        <ele>205.86</ele>
        <time>2016-06-01T08:55:09Z</time>
      </trkpt>
      <trkpt lat="47.08735" lon="5.49918">
        <ele>204.9</ele>
        <time>2016-06-01T08:55:15Z</time>
      </trkpt>
      <trkpt lat="47.08723" lon="5.49936">
        <ele>204.42</ele>
        <time>2016-06-01T08:55:30Z</time>
      </trkpt>
      <trkpt lat="47.0872" lon="5.49939">
        <ele>204.9</ele>
        <time>2016-06-01T08:55:35Z</time>
      </trkpt>
      <trkpt lat="47.08716" lon="5.49948">
        <ele>205.38</ele>
        <time>2016-06-01T08:55:42Z</time>
      </trkpt>
      <trkpt lat="47.08713" lon="5.49972">
        <ele>204.9</ele>
        <time>2016-06-01T08:55:56Z</time>
      </trkpt>
      <trkpt lat="47.08712" lon="5.50002">
        <ele>205.86</ele>
        <time>2016-06-01T08:56:12Z</time>
      </trkpt>
      <trkpt lat="47.0871" lon="5.50018">
        <ele>206.82</ele>
        <time>2016-06-01T08:56:21Z</time>
      </trkpt>
      <trkpt lat="47.08707" lon="5.5005">
        <ele>208.74</ele>
        <time>2016-06-01T08:56:39Z</time>
      </trkpt>
      <trkpt lat="47.08705" lon="5.50073">
        <ele>209.7</ele>
        <time>2016-06-01T08:56:53Z</time>
      </trkpt>
      <trkpt lat="47.08704" lon="5.50076">
        <ele>210.19</ele>
        <time>2016-06-01T08:56:55Z</time>
      </trkpt>
      <trkpt lat="47.08697" lon="5.5009">
        <ele>212.11</ele>
        <time>2016-06-01T08:57:06Z</time>
      </trkpt>
      <trkpt lat="47.08676" lon="5.50107">
        <ele>216.43</ele>
        <time>2016-06-01T08:57:26Z</time>
      </trkpt>
      <trkpt lat="47.08662" lon="5.50124">
        <ele>218.36</ele>
        <time>2016-06-01T08:57:43Z</time>
      </trkpt>
      <trkpt lat="47.08643" lon="5.50138">
        <ele>220.28</ele>
        <time>2016-06-01T08:58:01Z</time>
      </trkpt>
      <trkpt lat="47.0864" lon="5.50143">
        <ele>220.28</ele>
        <time>2016-06-01T08:58:06Z</time>
      </trkpt>
      <trkpt lat="47.0863" lon="5.50162">
        <ele>219.8</ele>
        <time>2016-06-01T08:58:21Z</time>
      </trkpt>
      <trkpt lat="47.08614" lon="5.50177">
        <ele>219.32</ele>
        <time>2016-06-01T08:58:37Z</time>
      </trkpt>
      <trkpt lat="47.08601" lon="5.50191">
        <ele>218.36</ele>
        <time>2016-06-01T08:58:51Z</time>
      </trkpt>
      <trkpt lat="47.08588" lon="5.50201">
        <ele>217.4</ele>
        <time>2016-06-01T08:59:04Z</time>
      </trkpt>
      <trkpt lat="47.08583" lon="5.50204">
        <ele>217.88</ele>
        <time>2016-06-01T08:59:08Z</time>
      </trkpt>
      <trkpt lat="47.0857" lon="5.50213">
        <ele>219.8</ele>
        <time>2016-06-01T08:59:26Z</time>
      </trkpt>
      <trkpt lat="47.08561" lon="5.50217">
        <ele>219.32</ele>
        <time>2016-06-01T08:59:34Z</time>
      </trkpt>
      <trkpt lat="47.08548" lon="5.50226">
        <ele>219.32</ele>
        <time>2016-06-01T08:59:47Z</time>
      </trkpt>
      <trkpt lat="47.08533" lon="5.50238">
        <ele>224.12</ele>
        <time>2016-06-01T09:00:00Z</time>
      </trkpt>
      <trkpt lat="47.08525" lon="5.50247">
        <ele>225.57</ele>
        <time>2016-06-01T09:00:12Z</time>
      </trkpt>
      <trkpt lat="47.08516" lon="5.50257">
        <ele>224.61</ele>
        <time>2016-06-01T09:00:24Z</time>
      </trkpt>
      <trkpt lat="47.085" lon="5.50268">
        <ele>224.12</ele>
        <time>2016-06-01T09:00:38Z</time>
      </trkpt>
      <trkpt lat="47.08497" lon="5.50271">
        <ele>224.12</ele>
        <time>2016-06-01T09:00:41Z</time>
      </trkpt>
      <trkpt lat="47.08486" lon="5.50287">
        <ele>224.12</ele>
        <time>2016-06-01T09:00:54Z</time>
      </trkpt>
      <trkpt lat="47.08481" lon="5.50296">
        <ele>224.12</ele>
        <time>2016-06-01T09:01:00Z</time>
      </trkpt>
      <trkpt lat="47.0848" lon="5.50299">
        <ele>223.64</ele>
        <time>2016-06-01T09:01:02Z</time>
      </trkpt>
      <trkpt lat="47.08471" lon="5.50316">
        <ele>227.01</ele>
        <time>2016-06-01T09:01:15Z</time>
      </trkpt>
      <trkpt lat="47.08466" lon="5.50323">
        <ele>227.97</ele>
        <time>2016-06-01T09:01:20Z</time>
      </trkpt>
      <trkpt lat="47.08458" lon="5.50337">
        <ele>227.97</ele>
        <time>2016-06-01T09:01:30Z</time>
      </trkpt>
      <trkpt lat="47.08454" lon="5.50343">
        <ele>227.97</ele>
        <time>2016-06-01T09:01:35Z</time>
      </trkpt>
      <trkpt lat="47.08442" lon="5.50361">
        <ele>227.49</ele>
        <time>2016-06-01T09:01:49Z</time>
      </trkpt>
      <trkpt lat="47.08431" lon="5.50378">
        <ele>227.49</ele>
        <time>2016-06-01T09:02:01Z</time>
      </trkpt>
      <trkpt lat="47.0843" lon="5.5038">
        <ele>227.49</ele>
        <time>2016-06-01T09:02:03Z</time>
      </trkpt>
      <trkpt lat="47.08421" lon="5.50395">
        <ele>226.53</ele>
        <time>2016-06-01T09:02:13Z</time>
      </trkpt>
      <trkpt lat="47.08409" lon="5.50413">
        <ele>224.61</ele>
        <time>2016-06-01T09:02:28Z</time>
      </trkpt>
      <trkpt lat="47.08404" lon="5.5042">
        <ele>225.09</ele>
        <time>2016-06-01T09:02:34Z</time>
      </trkpt>
      <trkpt lat="47.08402" lon="5.50422">
        <ele>225.57</ele>
        <time>2016-06-01T09:02:36Z</time>
      </trkpt>
      <trkpt lat="47.0839" lon="5.50434">
        <ele>226.05</ele>
        <time>2016-06-01T09:02:48Z</time>
      </trkpt>
      <trkpt lat="47.0839" lon="5.50435">
        <ele>225.57</ele>
        <time>2016-06-01T09:02:49Z</time>
      </trkpt>
      <trkpt lat="47.08373" lon="5.50443">
        <ele>226.53</ele>
        <time>2016-06-01T09:03:04Z</time>
      </trkpt>
      <trkpt lat="47.08356" lon="5.50458">
        <ele>227.49</ele>
        <time>2016-06-01T09:03:19Z</time>
      </trkpt>
      <trkpt lat="47.08346" lon="5.50468">
        <ele>227.49</ele>
        <time>2016-06-01T09:03:29Z</time>
      </trkpt>
      <trkpt lat="47.08332" lon="5.50483">
        <ele>229.41</ele>
        <time>2016-06-01T09:03:44Z</time>
      </trkpt>
      <trkpt lat="47.0832" lon="5.50497">
        <ele>230.37</ele>
        <time>2016-06-01T09:03:59Z</time>
      </trkpt>
      <trkpt lat="47.08308" lon="5.50516">
        <ele>232.78</ele>
        <time>2016-06-01T09:04:14Z</time>
      </trkpt>
      <trkpt lat="47.08298" lon="5.50538">
        <ele>236.62</ele>
        <time>2016-06-01T09:04:29Z</time>
      </trkpt>
      <trkpt lat="47.0829" lon="5.50548">
        <ele>238.06</ele>
        <time>2016-06-01T09:04:38Z</time>
      </trkpt>
      <trkpt lat="47.0828" lon="5.50562">
        <ele>234.7</ele>
        <time>2016-06-01T09:04:52Z</time>
      </trkpt>
      <trkpt lat="47.08279" lon="5.50564">
        <ele>234.7</ele>
        <time>2016-06-01T09:04:54Z</time>
      </trkpt>
      <trkpt lat="47.08273" lon="5.50575">
        <ele>232.78</ele>
        <time>2016-06-01T09:05:03Z</time>
      </trkpt>
      <trkpt lat="47.08272" lon="5.50579">
        <ele>232.3</ele>
        <time>2016-06-01T09:05:05Z</time>
      </trkpt>
      <trkpt lat="47.08271" lon="5.50581">
        <ele>231.81</ele>
        <time>2016-06-01T09:05:07Z</time>
      </trkpt>
      <trkpt lat="47.08265" lon="5.50595">
        <ele>229.89</ele>
        <time>2016-06-01T09:05:18Z</time>
      </trkpt>
      <trkpt lat="47.08265" lon="5.50599">
        <ele>229.41</ele>
        <time>2016-06-01T09:05:21Z</time>
      </trkpt>
      <trkpt lat="47.08262" lon="5.50605">
        <ele>230.37</ele>
        <time>2016-06-01T09:05:25Z</time>
      </trkpt>
      <trkpt lat="47.08261" lon="5.50608">
        <ele>230.85</ele>
        <time>2016-06-01T09:05:27Z</time>
      </trkpt>
      <trkpt lat="47.08254" lon="5.50623">
        <ele>233.26</ele>
        <time>2016-06-01T09:05:37Z</time>
      </trkpt>
      <trkpt lat="47.08243" lon="5.50639">
        <ele>235.18</ele>
        <time>2016-06-01T09:05:49Z</time>
      </trkpt>
      <trkpt lat="47.08236" lon="5.50652">
        <ele>235.66</ele>
        <time>2016-06-01T09:06:01Z</time>
      </trkpt>
      <trkpt lat="47.08227" lon="5.50666">
        <ele>238.54</ele>
        <time>2016-06-01T09:06:12Z</time>
      </trkpt>
      <trkpt lat="47.08223" lon="5.5067">
        <ele>239.51</ele>
        <time>2016-06-01T09:06:16Z</time>
      </trkpt>
      <trkpt lat="47.08213" lon="5.5068">
        <ele>240.95</ele>
        <time>2016-06-01T09:06:27Z</time>
      </trkpt>
      <trkpt lat="47.08209" lon="5.50689">
        <ele>241.91</ele>
        <time>2016-06-01T09:06:34Z</time>
      </trkpt>
      <trkpt lat="47.08207" lon="5.50691">
        <ele>241.91</ele>
        <time>2016-06-01T09:06:36Z</time>
      </trkpt>
      <trkpt lat="47.08196" lon="5.50707">
        <ele>241.43</ele>
        <time>2016-06-01T09:06:49Z</time>
      </trkpt>
      <trkpt lat="47.08187" lon="5.50715">
        <ele>240.47</ele>
        <time>2016-06-01T09:06:58Z</time>
      </trkpt>
      <trkpt lat="47.08176" lon="5.50733">
        <ele>247.2</ele>
        <time>2016-06-01T09:07:12Z</time>
      </trkpt>
      <trkpt lat="47.08164" lon="5.50751">
        <ele>247.68</ele>
        <time>2016-06-01T09:07:24Z</time>
      </trkpt>
      <trkpt lat="47.08153" lon="5.50762">
        <ele>245.27</ele>
        <time>2016-06-01T09:07:36Z</time>
      </trkpt>
      <trkpt lat="47.08138" lon="5.5078">
        <ele>243.35</ele>
        <time>2016-06-01T09:07:51Z</time>
      </trkpt>
      <trkpt lat="47.08126" lon="5.50791">
        <ele>242.39</ele>
        <time>2016-06-01T09:08:04Z</time>
      </trkpt>
      <trkpt lat="47.08124" lon="5.50793">
        <ele>241.43</ele>
        <time>2016-06-01T09:08:07Z</time>
      </trkpt>
      <trkpt lat="47.08116" lon="5.50807">
        <ele>241.43</ele>
        <time>2016-06-01T09:08:16Z</time>
      </trkpt>
      <trkpt lat="47.08105" lon="5.50822">
        <ele>239.51</ele>
        <time>2016-06-01T09:08:28Z</time>
      </trkpt>
      <trkpt lat="47.08091" lon="5.50839">
        <ele>239.51</ele>
        <time>2016-06-01T09:08:43Z</time>
      </trkpt>
      <trkpt lat="47.08079" lon="5.50853">
        <ele>239.99</ele>
        <time>2016-06-01T09:08:55Z</time>
      </trkpt>
      <trkpt lat="47.08068" lon="5.50866">
        <ele>239.99</ele>
        <time>2016-06-01T09:09:06Z</time>
      </trkpt>
      <trkpt lat="47.0806" lon="5.50876">
        <ele>241.43</ele>
        <time>2016-06-01T09:09:15Z</time>
      </trkpt>
      <trkpt lat="47.08051" lon="5.5089">
        <ele>241.43</ele>
        <time>2016-06-01T09:09:25Z</time>
      </trkpt>
      <trkpt lat="47.08043" lon="5.50903">
        <ele>239.99</ele>
        <time>2016-06-01T09:09:36Z</time>
      </trkpt>
      <trkpt lat="47.08043" lon="5.50903">
        <ele>239.99</ele>
        <time>2016-06-01T09:09:50Z</time>
      </trkpt>
      <trkpt lat="47.08042" lon="5.50902">
        <ele>240.47</ele>
        <time>2016-06-01T09:10:06Z</time>
      </trkpt>
      <trkpt lat="47.08042" lon="5.50902">
        <ele>240.47</ele>
        <time>2016-06-01T09:10:22Z</time>
      </trkpt>
      <trkpt lat="47.08042" lon="5.50901">
        <ele>240.95</ele>
        <time>2016-06-01T09:10:38Z</time>
      </trkpt>
      <trkpt lat="47.08042" lon="5.50901">
        <ele>240.47</ele>
        <time>2016-06-01T09:10:57Z</time>
      </trkpt>
      <trkpt lat="47.08042" lon="5.50901">
        <ele>240.95</ele>
        <time>2016-06-01T09:11:13Z</time>
      </trkpt>
      <trkpt lat="47.08042" lon="5.50901">
        <ele>240.47</ele>
        <time>2016-06-01T09:11:34Z</time>
      </trkpt>
      <trkpt lat="47.08043" lon="5.50901">
        <ele>241.43</ele>
        <time>2016-06-01T09:11:46Z</time>
      </trkpt>
      <trkpt lat="47.08043" lon="5.509">
        <ele>241.43</ele>
        <time>2016-06-01T09:11:57Z</time>
      </trkpt>
      <trkpt lat="47.08043" lon="5.50901">
        <ele>241.43</ele>
        <time>2016-06-01T09:12:10Z</time>
      </trkpt>
      <trkpt lat="47.08042" lon="5.50901">
        <ele>241.91</ele>
        <time>2016-06-01T09:12:28Z</time>
      </trkpt>
      <trkpt lat="47.08042" lon="5.509">
        <ele>241.91</ele>
        <time>2016-06-01T09:12:54Z</time>
      </trkpt>
      <trkpt lat="47.08042" lon="5.50901">
        <ele>241.91</ele>
        <time>2016-06-01T09:13:15Z</time>
      </trkpt>
      <trkpt lat="47.08042" lon="5.50901">
        <ele>241.91</ele>
        <time>2016-06-01T09:13:28Z</time>
      </trkpt>
      <trkpt lat="47.08042" lon="5.50901">
        <ele>241.91</ele>
        <time>2016-06-01T09:13:49Z</time>
      </trkpt>
      <trkpt lat="47.08042" lon="5.50901">
        <ele>241.43</ele>
        <time>2016-06-01T09:14:03Z</time>
      </trkpt>
      <trkpt lat="47.08042" lon="5.50901">
        <ele>241.43</ele>
        <time>2016-06-01T09:14:19Z</time>
      </trkpt>
      <trkpt lat="47.08041" lon="5.50907">
        <ele>241.91</ele>
        <time>2016-06-01T09:14:32Z</time>
      </trkpt>
      <trkpt lat="47.08037" lon="5.50915">
        <ele>241.91</ele>
        <time>2016-06-01T09:14:38Z</time>
      </trkpt>
      <trkpt lat="47.08035" lon="5.5092">
        <ele>241.43</ele>
        <time>2016-06-01T09:14:44Z</time>
      </trkpt>
      <trkpt lat="47.08033" lon="5.50927">
        <ele>240.95</ele>
        <time>2016-06-01T09:14:50Z</time>
      </trkpt>
      <trkpt lat="47.08031" lon="5.50931">
        <ele>241.43</ele>
        <time>2016-06-01T09:14:53Z</time>
      </trkpt>
      <trkpt lat="47.08022" lon="5.50949">
        <ele>242.39</ele>
        <time>2016-06-01T09:15:05Z</time>
      </trkpt>
      <trkpt lat="47.08013" lon="5.50961">
        <ele>239.51</ele>
        <time>2016-06-01T09:15:15Z</time>
      </trkpt>
      <trkpt lat="47.08004" lon="5.50963">
        <ele>236.62</ele>
        <time>2016-06-01T09:15:24Z</time>
      </trkpt>
      <trkpt lat="47.08001" lon="5.50961">
        <ele>236.14</ele>
        <time>2016-06-01T09:15:27Z</time>
      </trkpt>
      <trkpt lat="47.07989" lon="5.50962">
        <ele>237.1</ele>
        <time>2016-06-01T09:15:36Z</time>
      </trkpt>
      <trkpt lat="47.07975" lon="5.50973">
        <ele>238.06</ele>
        <time>2016-06-01T09:15:50Z</time>
      </trkpt>
      <trkpt lat="47.07965" lon="5.50981">
        <ele>239.02</ele>
        <time>2016-06-01T09:15:58Z</time>
      </trkpt>
      <trkpt lat="47.07961" lon="5.50984">
        <ele>238.54</ele>
        <time>2016-06-01T09:16:02Z</time>
      </trkpt>
      <trkpt lat="47.07944" lon="5.50998">
        <ele>239.02</ele>
        <time>2016-06-01T09:16:18Z</time>
      </trkpt>
      <trkpt lat="47.07928" lon="5.5101">
        <ele>238.54</ele>
        <time>2016-06-01T09:16:31Z</time>
      </trkpt>
      <trkpt lat="47.0792" lon="5.51017">
        <ele>238.06</ele>
        <time>2016-06-01T09:16:39Z</time>
      </trkpt>
      <trkpt lat="47.07912" lon="5.51026">
        <ele>236.14</ele>
        <time>2016-06-01T09:16:47Z</time>
      </trkpt>
      <trkpt lat="47.07907" lon="5.51029">
        <ele>234.7</ele>
        <time>2016-06-01T09:16:52Z</time>
      </trkpt>
      <trkpt lat="47.07894" lon="5.51043">
        <ele>232.78</ele>
        <time>2016-06-01T09:17:06Z</time>
      </trkpt>
      <trkpt lat="47.07878" lon="5.5106">
        <ele>231.33</ele>
        <time>2016-06-01T09:17:22Z</time>
      </trkpt>
      <trkpt lat="47.07867" lon="5.51073">
        <ele>229.89</ele>
        <time>2016-06-01T09:17:35Z</time>
      </trkpt>
      <trkpt lat="47.07854" lon="5.51085">
        <ele>230.85</ele>
        <time>2016-06-01T09:17:47Z</time>
      </trkpt>
      <trkpt lat="47.0784" lon="5.51099">
        <ele>233.26</ele>
        <time>2016-06-01T09:18:00Z</time>
      </trkpt>
      <trkpt lat="47.07829" lon="5.51109">
        <ele>234.22</ele>
        <time>2016-06-01T09:18:11Z</time>
      </trkpt>
      <trkpt lat="47.07815" lon="5.51118">
        <ele>234.7</ele>
        <time>2016-06-01T09:18:25Z</time>
      </trkpt>
      <trkpt lat="47.07799" lon="5.5113">
        <ele>236.14</ele>
        <time>2016-06-01T09:18:38Z</time>
      </trkpt>
      <trkpt lat="47.07787" lon="5.51147">
        <ele>238.06</ele>
        <time>2016-06-01T09:18:51Z</time>
      </trkpt>
      <trkpt lat="47.07782" lon="5.51157">
        <ele>237.1</ele>
        <time>2016-06-01T09:18:59Z</time>
      </trkpt>
      <trkpt lat="47.07777" lon="5.51166">
        <ele>234.7</ele>
        <time>2016-06-01T09:19:07Z</time>
      </trkpt>
      <trkpt lat="47.0777" lon="5.51186">
        <ele>232.78</ele>
        <time>2016-06-01T09:19:19Z</time>
      </trkpt>
      <trkpt lat="47.07762" lon="5.51204">
        <ele>230.85</ele>
        <time>2016-06-01T09:19:32Z</time>
      </trkpt>
      <trkpt lat="47.07752" lon="5.51227">
        <ele>234.7</ele>
        <time>2016-06-01T09:19:46Z</time>
      </trkpt>
      <trkpt lat="47.07746" lon="5.51246">
        <ele>237.58</ele>
        <time>2016-06-01T09:20:00Z</time>
      </trkpt>
      <trkpt lat="47.07745" lon="5.51249">
        <ele>238.54</ele>
        <time>2016-06-01T09:20:05Z</time>
      </trkpt>
      <trkpt lat="47.07742" lon="5.51272">
        <ele>239.99</ele>
        <time>2016-06-01T09:20:19Z</time>
      </trkpt>
      <trkpt lat="47.0774" lon="5.51294">
        <ele>239.02</ele>
        <time>2016-06-01T09:20:32Z</time>
      </trkpt>
      <trkpt lat="47.07738" lon="5.51301">
        <ele>239.02</ele>
        <time>2016-06-01T09:20:35Z</time>
      </trkpt>
      <trkpt lat="47.07737" lon="5.51304">
        <ele>239.51</ele>
        <time>2016-06-01T09:20:37Z</time>
      </trkpt>
      <trkpt lat="47.07735" lon="5.5131">
        <ele>240.47</ele>
        <time>2016-06-01T09:20:41Z</time>
      </trkpt>
      <trkpt lat="47.0773" lon="5.51318">
        <ele>239.99</ele>
        <time>2016-06-01T09:20:48Z</time>
      </trkpt>
      <trkpt lat="47.07723" lon="5.51342">
        <ele>239.51</ele>
        <time>2016-06-01T09:21:04Z</time>
      </trkpt>
      <trkpt lat="47.07721" lon="5.51356">
        <ele>240.47</ele>
        <time>2016-06-01T09:21:12Z</time>
      </trkpt>
      <trkpt lat="47.07716" lon="5.51379">
        <ele>241.43</ele>
        <time>2016-06-01T09:21:25Z</time>
      </trkpt>
      <trkpt lat="47.07714" lon="5.51392">
        <ele>241.43</ele>
        <time>2016-06-01T09:21:33Z</time>
      </trkpt>
      <trkpt lat="47.07713" lon="5.51398">
        <ele>241.43</ele>
        <time>2016-06-01T09:21:36Z</time>
      </trkpt>
      <trkpt lat="47.07708" lon="5.51413">
        <ele>240.95</ele>
        <time>2016-06-01T09:21:45Z</time>
      </trkpt>
      <trkpt lat="47.07704" lon="5.51434">
        <ele>239.51</ele>
        <time>2016-06-01T09:21:58Z</time>
      </trkpt>
      <trkpt lat="47.07699" lon="5.51459">
        <ele>238.54</ele>
        <time>2016-06-01T09:22:12Z</time>
      </trkpt>
      <trkpt lat="47.07697" lon="5.51473">
        <ele>239.51</ele>
        <time>2016-06-01T09:22:21Z</time>
      </trkpt>
      <trkpt lat="47.07695" lon="5.51485">
        <ele>239.51</ele>
        <time>2016-06-01T09:22:28Z</time>
      </trkpt>
      <trkpt lat="47.07695" lon="5.51493">
        <ele>241.43</ele>
        <time>2016-06-01T09:22:33Z</time>
      </trkpt>
      <trkpt lat="47.07691" lon="5.51507">
        <ele>240.95</ele>
        <time>2016-06-01T09:22:41Z</time>
      </trkpt>
      <trkpt lat="47.07688" lon="5.5152">
        <ele>239.51</ele>
        <time>2016-06-01T09:22:48Z</time>
      </trkpt>
      <trkpt lat="47.07683" lon="5.51539">
        <ele>237.1</ele>
        <time>2016-06-01T09:23:00Z</time>
      </trkpt>
      <trkpt lat="47.07681" lon="5.51547">
        <ele>239.02</ele>
        <time>2016-06-01T09:23:05Z</time>
      </trkpt>
      <trkpt lat="47.07672" lon="5.51572">
        <ele>237.1</ele>
        <time>2016-06-01T09:23:20Z</time>
      </trkpt>
      <trkpt lat="47.07671" lon="5.51576">
        <ele>237.1</ele>
        <time>2016-06-01T09:23:22Z</time>
      </trkpt>
      <trkpt lat="47.07666" lon="5.51597">
        <ele>237.1</ele>
        <time>2016-06-01T09:23:35Z</time>
      </trkpt>
      <trkpt lat="47.07659" lon="5.51617">
        <ele>236.62</ele>
        <time>2016-06-01T09:23:48Z</time>
      </trkpt>
      <trkpt lat="47.07651" lon="5.51643">
        <ele>235.18</ele>
        <time>2016-06-01T09:24:02Z</time>
      </trkpt>
      <trkpt lat="47.07644" lon="5.51664">
        <ele>235.66</ele>
        <time>2016-06-01T09:24:16Z</time>
      </trkpt>
      <trkpt lat="47.07638" lon="5.51687">
        <ele>236.62</ele>
        <time>2016-06-01T09:24:29Z</time>
      </trkpt>
      <trkpt lat="47.07631" lon="5.5171">
        <ele>236.14</ele>
        <time>2016-06-01T09:24:43Z</time>
      </trkpt>
      <trkpt lat="47.07628" lon="5.51725">
        <ele>235.18</ele>
        <time>2016-06-01T09:24:54Z</time>
      </trkpt>
      <trkpt lat="47.07625" lon="5.51736">
        <ele>233.74</ele>
        <time>2016-06-01T09:25:04Z</time>
      </trkpt>
      <trkpt lat="47.07625" lon="5.51738">
        <ele>233.26</ele>
        <time>2016-06-01T09:25:06Z</time>
      </trkpt>
      <trkpt lat="47.07621" lon="5.51755">
        <ele>233.74</ele>
        <time>2016-06-01T09:25:17Z</time>
      </trkpt>
      <trkpt lat="47.07617" lon="5.51773">
        <ele>235.66</ele>
        <time>2016-06-01T09:25:28Z</time>
      </trkpt>
      <trkpt lat="47.07616" lon="5.51775">
        <ele>235.66</ele>
        <time>2016-06-01T09:25:29Z</time>
      </trkpt>
      <trkpt lat="47.07615" lon="5.51778">
        <ele>236.14</ele>
        <time>2016-06-01T09:25:31Z</time>
      </trkpt>
      <trkpt lat="47.07614" lon="5.51784">
        <ele>236.62</ele>
        <time>2016-06-01T09:25:34Z</time>
      </trkpt>
      <trkpt lat="47.07612" lon="5.51796">
        <ele>237.58</ele>
        <time>2016-06-01T09:25:41Z</time>
      </trkpt>
      <trkpt lat="47.07608" lon="5.51807">
        <ele>237.58</ele>
        <time>2016-06-01T09:25:49Z</time>
      </trkpt>
      <trkpt lat="47.07602" lon="5.51827">
        <ele>238.54</ele>
        <time>2016-06-01T09:26:01Z</time>
      </trkpt>
      <trkpt lat="47.07597" lon="5.51849">
        <ele>238.06</ele>
        <time>2016-06-01T09:26:13Z</time>
      </trkpt>
      <trkpt lat="47.07591" lon="5.51877">
        <ele>238.54</ele>
        <time>2016-06-01T09:26:27Z</time>
      </trkpt>
      <trkpt lat="47.07587" lon="5.51897">
        <ele>238.06</ele>
        <time>2016-06-01T09:26:39Z</time>
      </trkpt>
      <trkpt lat="47.07587" lon="5.51898">
        <ele>238.06</ele>
        <time>2016-06-01T09:26:40Z</time>
      </trkpt>
      <trkpt lat="47.07586" lon="5.51907">
        <ele>237.58</ele>
        <time>2016-06-01T09:26:46Z</time>
      </trkpt>
      <trkpt lat="47.07577" lon="5.51933">
        <ele>238.54</ele>
        <time>2016-06-01T09:27:01Z</time>
      </trkpt>
      <trkpt lat="47.07573" lon="5.5194">
        <ele>238.54</ele>
        <time>2016-06-01T09:27:08Z</time>
      </trkpt>
      <trkpt lat="47.07573" lon="5.51945">
        <ele>237.58</ele>
        <time>2016-06-01T09:27:11Z</time>
      </trkpt>
      <trkpt lat="47.07572" lon="5.5195">
        <ele>236.62</ele>
        <time>2016-06-01T09:27:14Z</time>
      </trkpt>
      <trkpt lat="47.07567" lon="5.51964">
        <ele>236.14</ele>
        <time>2016-06-01T09:27:22Z</time>
      </trkpt>
      <trkpt lat="47.07564" lon="5.51978">
        <ele>237.1</ele>
        <time>2016-06-01T09:27:30Z</time>
      </trkpt>
      <trkpt lat="47.07559" lon="5.52">
        <ele>237.58</ele>
        <time>2016-06-01T09:27:44Z</time>
      </trkpt>
      <trkpt lat="47.07555" lon="5.52019">
        <ele>237.1</ele>
        <time>2016-06-01T09:27:56Z</time>
      </trkpt>
      <trkpt lat="47.07552" lon="5.5204">
        <ele>238.06</ele>
        <time>2016-06-01T09:28:08Z</time>
      </trkpt>
      <trkpt lat="47.07552" lon="5.52043">
        <ele>238.06</ele>
        <time>2016-06-01T09:28:19Z</time>
      </trkpt>
      <trkpt lat="47.0755" lon="5.5205">
        <ele>236.62</ele>
        <time>2016-06-01T09:28:30Z</time>
      </trkpt>
      <trkpt lat="47.07543" lon="5.52044">
        <ele>235.66</ele>
        <time>2016-06-01T09:28:41Z</time>
      </trkpt>
      <trkpt lat="47.07542" lon="5.52041">
        <ele>233.74</ele>
        <time>2016-06-01T09:28:54Z</time>
      </trkpt>
      <trkpt lat="47.07539" lon="5.52038">
        <ele>233.26</ele>
        <time>2016-06-01T09:28:59Z</time>
      </trkpt>
      <trkpt lat="47.07532" lon="5.52034">
        <ele>233.26</ele>
        <time>2016-06-01T09:29:10Z</time>
      </trkpt>
      <trkpt lat="47.07514" lon="5.52027">
        <ele>233.74</ele>
        <time>2016-06-01T09:29:25Z</time>
      </trkpt>
      <trkpt lat="47.07493" lon="5.52017">
        <ele>234.22</ele>
        <time>2016-06-01T09:29:40Z</time>
      </trkpt>
      <trkpt lat="47.07491" lon="5.52016">
        <ele>234.22</ele>
        <time>2016-06-01T09:29:42Z</time>
      </trkpt>
      <trkpt lat="47.07476" lon="5.52008">
        <ele>236.14</ele>
        <time>2016-06-01T09:29:55Z</time>
      </trkpt>
      <trkpt lat="47.07462" lon="5.52002">
        <ele>236.14</ele>
        <time>2016-06-01T09:30:07Z</time>
      </trkpt>
      <trkpt lat="47.07449" lon="5.51993">
        <ele>235.66</ele>
        <time>2016-06-01T09:30:19Z</time>
      </trkpt>
      <trkpt lat="47.07437" lon="5.51987">
        <ele>235.66</ele>
        <time>2016-06-01T09:30:31Z</time>
      </trkpt>
      <trkpt lat="47.07433" lon="5.51988">
        <ele>236.62</ele>
        <time>2016-06-01T09:30:45Z</time>
      </trkpt>
      <trkpt lat="47.07431" lon="5.51988">
        <ele>238.06</ele>
        <time>2016-06-01T09:31:00Z</time>
      </trkpt>
      <trkpt lat="47.07435" lon="5.51988">
        <ele>237.1</ele>
        <time>2016-06-01T09:31:12Z</time>
      </trkpt>
      <trkpt lat="47.07438" lon="5.51989">
        <ele>234.7</ele>
        <time>2016-06-01T09:31:21Z</time>
      </trkpt>
      <trkpt lat="47.07456" lon="5.51994">
        <ele>229.41</ele>
        <time>2016-06-01T09:31:36Z</time>
      </trkpt>
      <trkpt lat="47.07463" lon="5.51999">
        <ele>227.49</ele>
        <time>2016-06-01T09:31:50Z</time>
      </trkpt>
      <trkpt lat="47.07478" lon="5.52009">
        <ele>227.49</ele>
        <time>2016-06-01T09:32:06Z</time>
      </trkpt>
      <trkpt lat="47.07495" lon="5.52016">
        <ele>228.45</ele>
        <time>2016-06-01T09:32:20Z</time>
      </trkpt>
      <trkpt lat="47.07507" lon="5.52023">
        <ele>228.93</ele>
        <time>2016-06-01T09:32:31Z</time>
      </trkpt>
      <trkpt lat="47.07528" lon="5.52032">
        <ele>227.97</ele>
        <time>2016-06-01T09:32:42Z</time>
      </trkpt>
      <trkpt lat="47.07538" lon="5.52043">
        <ele>228.93</ele>
        <time>2016-06-01T09:32:54Z</time>
      </trkpt>
      <trkpt lat="47.07539" lon="5.52057">
        <ele>227.97</ele>
        <time>2016-06-01T09:33:03Z</time>
      </trkpt>
      <trkpt lat="47.07541" lon="5.52084">
        <ele>228.45</ele>
        <time>2016-06-01T09:33:17Z</time>
      </trkpt>
      <trkpt lat="47.0754" lon="5.52093">
        <ele>227.97</ele>
        <time>2016-06-01T09:33:22Z</time>
      </trkpt>
      <trkpt lat="47.07539" lon="5.52102">
        <ele>227.01</ele>
        <time>2016-06-01T09:33:27Z</time>
      </trkpt>
      <trkpt lat="47.07537" lon="5.52107">
        <ele>227.01</ele>
        <time>2016-06-01T09:33:30Z</time>
      </trkpt>
      <trkpt lat="47.07535" lon="5.52115">
        <ele>227.49</ele>
        <time>2016-06-01T09:33:35Z</time>
      </trkpt>
      <trkpt lat="47.07531" lon="5.52138">
        <ele>229.89</ele>
        <time>2016-06-01T09:33:48Z</time>
      </trkpt>
      <trkpt lat="47.07527" lon="5.52156">
        <ele>231.33</ele>
        <time>2016-06-01T09:34:00Z</time>
      </trkpt>
      <trkpt lat="47.0752" lon="5.52183">
        <ele>233.26</ele>
        <time>2016-06-01T09:34:15Z</time>
      </trkpt>
      <trkpt lat="47.07519" lon="5.52187">
        <ele>233.26</ele>
        <time>2016-06-01T09:34:17Z</time>
      </trkpt>
      <trkpt lat="47.07512" lon="5.52215">
        <ele>238.54</ele>
        <time>2016-06-01T09:34:33Z</time>
      </trkpt>
      <trkpt lat="47.0751" lon="5.52219">
        <ele>239.02</ele>
        <time>2016-06-01T09:34:35Z</time>
      </trkpt>
      <trkpt lat="47.07506" lon="5.52235">
        <ele>238.06</ele>
        <time>2016-06-01T09:34:44Z</time>
      </trkpt>
      <trkpt lat="47.075" lon="5.52258">
        <ele>238.54</ele>
        <time>2016-06-01T09:34:58Z</time>
      </trkpt>
      <trkpt lat="47.07496" lon="5.5228">
        <ele>237.1</ele>
        <time>2016-06-01T09:35:10Z</time>
      </trkpt>
      <trkpt lat="47.0749" lon="5.52305">
        <ele>234.7</ele>
        <time>2016-06-01T09:35:25Z</time>
      </trkpt>
      <trkpt lat="47.07487" lon="5.52314">
        <ele>233.74</ele>
        <time>2016-06-01T09:35:32Z</time>
      </trkpt>
      <trkpt lat="47.07486" lon="5.52322">
        <ele>234.22</ele>
        <time>2016-06-01T09:35:37Z</time>
      </trkpt>
      <trkpt lat="47.07484" lon="5.52327">
        <ele>234.7</ele>
        <time>2016-06-01T09:35:40Z</time>
      </trkpt>
      <trkpt lat="47.07483" lon="5.52333">
        <ele>235.66</ele>
        <time>2016-06-01T09:35:43Z</time>
      </trkpt>
      <trkpt lat="47.07477" lon="5.52358">
        <ele>236.14</ele>
        <time>2016-06-01T09:35:59Z</time>
      </trkpt>
      <trkpt lat="47.07474" lon="5.5237">
        <ele>235.66</ele>
        <time>2016-06-01T09:36:06Z</time>
      </trkpt>
      <trkpt lat="47.07468" lon="5.52392">
        <ele>236.62</ele>
        <time>2016-06-01T09:36:18Z</time>
      </trkpt>
      <trkpt lat="47.07464" lon="5.5241">
        <ele>239.02</ele>
        <time>2016-06-01T09:36:28Z</time>
      </trkpt>
      <trkpt lat="47.07459" lon="5.5242">
        <ele>239.51</ele>
        <time>2016-06-01T09:36:39Z</time>
      </trkpt>
      <trkpt lat="47.07457" lon="5.52427">
        <ele>239.02</ele>
        <time>2016-06-01T09:36:44Z</time>
      </trkpt>
      <trkpt lat="47.07455" lon="5.52431">
        <ele>239.02</ele>
        <time>2016-06-01T09:36:46Z</time>
      </trkpt>
      <trkpt lat="47.07451" lon="5.52441">
        <ele>239.99</ele>
        <time>2016-06-01T09:36:53Z</time>
      </trkpt>
      <trkpt lat="47.07446" lon="5.52454">
        <ele>239.02</ele>
        <time>2016-06-01T09:37:05Z</time>
      </trkpt>
      <trkpt lat="47.07445" lon="5.52457">
        <ele>238.54</ele>
        <time>2016-06-01T09:37:07Z</time>
      </trkpt>
      <trkpt lat="47.07437" lon="5.52479">
        <ele>238.06</ele>
        <time>2016-06-01T09:37:21Z</time>
      </trkpt>
      <trkpt lat="47.07432" lon="5.52496">
        <ele>238.06</ele>
        <time>2016-06-01T09:37:31Z</time>
      </trkpt>
      <trkpt lat="47.07424" lon="5.52517">
        <ele>236.62</ele>
        <time>2016-06-01T09:37:45Z</time>
      </trkpt>
      <trkpt lat="47.07417" lon="5.52533">
        <ele>236.14</ele>
        <time>2016-06-01T09:37:55Z</time>
      </trkpt>
      <trkpt lat="47.07406" lon="5.52563">
        <ele>237.58</ele>
        <time>2016-06-01T09:38:13Z</time>
      </trkpt>
      <trkpt lat="47.07395" lon="5.52585">
        <ele>236.14</ele>
        <time>2016-06-01T09:38:31Z</time>
      </trkpt>
      <trkpt lat="47.07379" lon="5.52605">
        <ele>234.22</ele>
        <time>2016-06-01T09:38:48Z</time>
      </trkpt>
      <trkpt lat="47.07364" lon="5.52628">
        <ele>233.26</ele>
        <time>2016-06-01T09:39:02Z</time>
      </trkpt>
      <trkpt lat="47.07362" lon="5.52661">
        <ele>232.78</ele>
        <time>2016-06-01T09:39:20Z</time>
      </trkpt>
      <trkpt lat="47.07363" lon="5.52666">
        <ele>232.78</ele>
        <time>2016-06-01T09:39:23Z</time>
      </trkpt>
      <trkpt lat="47.07371" lon="5.52703">
        <ele>227.97</ele>
        <time>2016-06-01T09:39:44Z</time>
      </trkpt>
      <trkpt lat="47.07375" lon="5.52736">
        <ele>226.53</ele>
        <time>2016-06-01T09:40:02Z</time>
      </trkpt>
      <trkpt lat="47.07374" lon="5.5276">
        <ele>225.09</ele>
        <time>2016-06-01T09:40:17Z</time>
      </trkpt>
      <trkpt lat="47.0737" lon="5.52783">
        <ele>230.37</ele>
        <time>2016-06-01T09:40:30Z</time>
      </trkpt>
      <trkpt lat="47.07363" lon="5.52803">
        <ele>232.78</ele>
        <time>2016-06-01T09:40:44Z</time>
      </trkpt>
      <trkpt lat="47.07359" lon="5.5282">
        <ele>229.89</ele>
        <time>2016-06-01T09:40:56Z</time>
      </trkpt>
      <trkpt lat="47.07354" lon="5.52834">
        <ele>228.93</ele>
        <time>2016-06-01T09:41:06Z</time>
      </trkpt>
      <trkpt lat="47.07349" lon="5.52855">
        <ele>230.37</ele>
        <time>2016-06-01T09:41:18Z</time>
      </trkpt>
      <trkpt lat="47.07341" lon="5.52872">
        <ele>227.97</ele>
        <time>2016-06-01T09:41:30Z</time>
      </trkpt>
      <trkpt lat="47.07335" lon="5.52885">
        <ele>227.49</ele>
        <time>2016-06-01T09:41:40Z</time>
      </trkpt>
      <trkpt lat="47.07334" lon="5.5289">
        <ele>227.97</ele>
        <time>2016-06-01T09:41:43Z</time>
      </trkpt>
      <trkpt lat="47.07326" lon="5.52914">
        <ele>231.81</ele>
        <time>2016-06-01T09:41:54Z</time>
      </trkpt>
      <trkpt lat="47.07323" lon="5.52919">
        <ele>232.78</ele>
        <time>2016-06-01T09:41:57Z</time>
      </trkpt>
      <trkpt lat="47.07321" lon="5.52927">
        <ele>234.7</ele>
        <time>2016-06-01T09:42:03Z</time>
      </trkpt>
      <trkpt lat="47.07313" lon="5.52949">
        <ele>234.22</ele>
        <time>2016-06-01T09:42:19Z</time>
      </trkpt>
      <trkpt lat="47.07312" lon="5.52953">
        <ele>234.7</ele>
        <time>2016-06-01T09:42:21Z</time>
      </trkpt>
      <trkpt lat="47.07311" lon="5.52957">
        <ele>235.66</ele>
        <time>2016-06-01T09:42:23Z</time>
      </trkpt>
      <trkpt lat="47.07305" lon="5.52978">
        <ele>236.14</ele>
        <time>2016-06-01T09:42:36Z</time>
      </trkpt>
      <trkpt lat="47.07303" lon="5.5298">
        <ele>236.14</ele>
        <time>2016-06-01T09:42:38Z</time>
      </trkpt>
      <trkpt lat="47.07297" lon="5.52998">
        <ele>236.62</ele>
        <time>2016-06-01T09:42:51Z</time>
      </trkpt>
      <trkpt lat="47.0729" lon="5.53018">
        <ele>237.1</ele>
        <time>2016-06-01T09:43:05Z</time>
      </trkpt>
      <trkpt lat="47.07288" lon="5.53024">
        <ele>238.06</ele>
        <time>2016-06-01T09:43:08Z</time>
      </trkpt>
      <trkpt lat="47.07284" lon="5.53039">
        <ele>240.95</ele>
        <time>2016-06-01T09:43:17Z</time>
      </trkpt>
      <trkpt lat="47.07277" lon="5.53057">
        <ele>242.87</ele>
        <time>2016-06-01T09:43:29Z</time>
      </trkpt>
      <trkpt lat="47.07275" lon="5.53066">
        <ele>242.87</ele>
        <time>2016-06-01T09:43:34Z</time>
      </trkpt>
      <trkpt lat="47.07269" lon="5.53087">
        <ele>242.39</ele>
        <time>2016-06-01T09:43:47Z</time>
      </trkpt>
      <trkpt lat="47.07262" lon="5.53107">
        <ele>241.91</ele>
        <time>2016-06-01T09:43:59Z</time>
      </trkpt>
      <trkpt lat="47.07256" lon="5.53128">
        <ele>241.91</ele>
        <time>2016-06-01T09:44:13Z</time>
      </trkpt>
      <trkpt lat="47.07249" lon="5.53148">
        <ele>243.83</ele>
        <time>2016-06-01T09:44:24Z</time>
      </trkpt>
      <trkpt lat="47.07241" lon="5.53167">
        <ele>243.83</ele>
        <time>2016-06-01T09:44:37Z</time>
      </trkpt>
      <trkpt lat="47.07236" lon="5.53188">
        <ele>245.27</ele>
        <time>2016-06-01T09:44:49Z</time>
      </trkpt>
      <trkpt lat="47.07234" lon="5.53194">
        <ele>244.79</ele>
        <time>2016-06-01T09:44:53Z</time>
      </trkpt>
      <trkpt lat="47.07232" lon="5.53198">
        <ele>245.27</ele>
        <time>2016-06-01T09:44:55Z</time>
      </trkpt>
      <trkpt lat="47.07225" lon="5.53216">
        <ele>244.79</ele>
        <time>2016-06-01T09:45:08Z</time>
      </trkpt>
      <trkpt lat="47.07218" lon="5.53232">
        <ele>240.95</ele>
        <time>2016-06-01T09:45:20Z</time>
      </trkpt>
      <trkpt lat="47.07212" lon="5.53246">
        <ele>239.99</ele>
        <time>2016-06-01T09:45:28Z</time>
      </trkpt>
      <trkpt lat="47.07204" lon="5.53261">
        <ele>239.51</ele>
        <time>2016-06-01T09:45:39Z</time>
      </trkpt>
      <trkpt lat="47.07196" lon="5.53281">
        <ele>241.91</ele>
        <time>2016-06-01T09:45:52Z</time>
      </trkpt>
      <trkpt lat="47.07189" lon="5.53302">
        <ele>244.31</ele>
        <time>2016-06-01T09:46:05Z</time>
      </trkpt>
      <trkpt lat="47.07179" lon="5.53322">
        <ele>243.35</ele>
        <time>2016-06-01T09:46:20Z</time>
      </trkpt>
      <trkpt lat="47.07173" lon="5.53337">
        <ele>242.87</ele>
        <time>2016-06-01T09:46:32Z</time>
      </trkpt>
      <trkpt lat="47.07166" lon="5.53358">
        <ele>243.35</ele>
        <time>2016-06-01T09:46:45Z</time>
      </trkpt>
      <trkpt lat="47.07158" lon="5.53377">
        <ele>244.31</ele>
        <time>2016-06-01T09:46:57Z</time>
      </trkpt>
      <trkpt lat="47.07153" lon="5.53392">
        <ele>245.27</ele>
        <time>2016-06-01T09:47:04Z</time>
      </trkpt>
      <trkpt lat="47.07143" lon="5.53414">
        <ele>249.6</ele>
        <time>2016-06-01T09:47:19Z</time>
      </trkpt>
      <trkpt lat="47.07133" lon="5.53436">
        <ele>250.56</ele>
        <time>2016-06-01T09:47:34Z</time>
      </trkpt>
      <trkpt lat="47.07126" lon="5.53454">
        <ele>249.6</ele>
        <time>2016-06-01T09:47:47Z</time>
      </trkpt>
      <trkpt lat="47.07125" lon="5.53458">
        <ele>249.6</ele>
        <time>2016-06-01T09:47:49Z</time>
      </trkpt>
      <trkpt lat="47.07117" lon="5.5348">
        <ele>247.2</ele>
        <time>2016-06-01T09:48:04Z</time>
      </trkpt>
      <trkpt lat="47.07115" lon="5.53488">
        <ele>246.23</ele>
        <time>2016-06-01T09:48:09Z</time>
      </trkpt>
      <trkpt lat="47.07104" lon="5.53514">
        <ele>246.23</ele>
        <time>2016-06-01T09:48:24Z</time>
      </trkpt>
      <trkpt lat="47.07094" lon="5.53535">
        <ele>247.2</ele>
        <time>2016-06-01T09:48:38Z</time>
      </trkpt>
      <trkpt lat="47.07085" lon="5.53557">
        <ele>247.2</ele>
        <time>2016-06-01T09:48:52Z</time>
      </trkpt>
      <trkpt lat="47.07078" lon="5.53575">
        <ele>245.75</ele>
        <time>2016-06-01T09:49:05Z</time>
      </trkpt>
      <trkpt lat="47.07069" lon="5.53598">
        <ele>246.72</ele>
        <time>2016-06-01T09:49:18Z</time>
      </trkpt>
      <trkpt lat="47.07064" lon="5.53613">
        <ele>246.72</ele>
        <time>2016-06-01T09:49:27Z</time>
      </trkpt>
      <trkpt lat="47.07058" lon="5.53625">
        <ele>247.68</ele>
        <time>2016-06-01T09:49:35Z</time>
      </trkpt>
      <trkpt lat="47.07051" lon="5.53646">
        <ele>250.56</ele>
        <time>2016-06-01T09:49:48Z</time>
      </trkpt>
      <trkpt lat="47.07043" lon="5.53662">
        <ele>249.6</ele>
        <time>2016-06-01T09:49:58Z</time>
      </trkpt>
      <trkpt lat="47.07034" lon="5.53685">
        <ele>249.12</ele>
        <time>2016-06-01T09:50:13Z</time>
      </trkpt>
      <trkpt lat="47.07032" lon="5.53689">
        <ele>249.12</ele>
        <time>2016-06-01T09:50:16Z</time>
      </trkpt>
      <trkpt lat="47.07024" lon="5.53709">
        <ele>247.2</ele>
        <time>2016-06-01T09:50:31Z</time>
      </trkpt>
      <trkpt lat="47.07013" lon="5.53734">
        <ele>247.2</ele>
        <time>2016-06-01T09:50:46Z</time>
      </trkpt>
      <trkpt lat="47.07009" lon="5.5374">
        <ele>247.2</ele>
        <time>2016-06-01T09:50:51Z</time>
      </trkpt>
      <trkpt lat="47.07001" lon="5.53749">
        <ele>245.75</ele>
        <time>2016-06-01T09:50:59Z</time>
      </trkpt>
      <trkpt lat="47.06994" lon="5.53763">
        <ele>242.87</ele>
        <time>2016-06-01T09:51:08Z</time>
      </trkpt>
      <trkpt lat="47.0698" lon="5.5378">
        <ele>239.51</ele>
        <time>2016-06-01T09:51:24Z</time>
      </trkpt>
      <trkpt lat="47.06968" lon="5.53794">
        <ele>235.18</ele>
        <time>2016-06-01T09:51:37Z</time>
      </trkpt>
      <trkpt lat="47.0696" lon="5.53805">
        <ele>235.66</ele>
        <time>2016-06-01T09:51:46Z</time>
      </trkpt>
      <trkpt lat="47.06949" lon="5.53821">
        <ele>235.66</ele>
        <time>2016-06-01T09:52:01Z</time>
      </trkpt>
      <trkpt lat="47.06949" lon="5.53822">
        <ele>235.66</ele>
        <time>2016-06-01T09:52:03Z</time>
      </trkpt>
      <trkpt lat="47.06937" lon="5.53828">
        <ele>237.58</ele>
        <time>2016-06-01T09:52:16Z</time>
      </trkpt>
      <trkpt lat="47.06938" lon="5.53829">
        <ele>238.54</ele>
        <time>2016-06-01T09:52:37Z</time>
      </trkpt>
      <trkpt lat="47.06938" lon="5.53829">
        <ele>238.54</ele>
        <time>2016-06-01T09:53:00Z</time>
      </trkpt>
      <trkpt lat="47.06939" lon="5.53829">
        <ele>238.06</ele>
        <time>2016-06-01T09:53:25Z</time>
      </trkpt>
      <trkpt lat="47.06939" lon="5.5383">
        <ele>238.06</ele>
        <time>2016-06-01T09:53:52Z</time>
      </trkpt>
      <trkpt lat="47.06935" lon="5.53839">
        <ele>238.06</ele>
        <time>2016-06-01T09:54:01Z</time>
      </trkpt>
      <trkpt lat="47.06922" lon="5.53849">
        <ele>237.58</ele>
        <time>2016-06-01T09:54:13Z</time>
      </trkpt>
      <trkpt lat="47.06917" lon="5.53851">
        <ele>237.58</ele>
        <time>2016-06-01T09:54:17Z</time>
      </trkpt>
      <trkpt lat="47.06907" lon="5.53857">
        <ele>236.62</ele>
        <time>2016-06-01T09:54:24Z</time>
      </trkpt>
      <trkpt lat="47.06898" lon="5.5387">
        <ele>239.02</ele>
        <time>2016-06-01T09:54:36Z</time>
      </trkpt>
      <trkpt lat="47.06894" lon="5.53873">
        <ele>239.51</ele>
        <time>2016-06-01T09:54:48Z</time>
      </trkpt>
      <trkpt lat="47.06897" lon="5.53874">
        <ele>239.51</ele>
        <time>2016-06-01T09:55:02Z</time>
      </trkpt>
      <trkpt lat="47.06896" lon="5.53875">
        <ele>239.02</ele>
        <time>2016-06-01T09:55:03Z</time>
      </trkpt>
      <trkpt lat="47.06893" lon="5.53879">
        <ele>238.06</ele>
        <time>2016-06-01T09:55:08Z</time>
      </trkpt>
      <trkpt lat="47.06883" lon="5.53898">
        <ele>235.18</ele>
        <time>2016-06-01T09:55:21Z</time>
      </trkpt>
      <trkpt lat="47.06876" lon="5.53911">
        <ele>232.78</ele>
        <time>2016-06-01T09:55:34Z</time>
      </trkpt>
      <trkpt lat="47.06869" lon="5.53922">
        <ele>232.78</ele>
        <time>2016-06-01T09:55:44Z</time>
      </trkpt>
      <trkpt lat="47.06868" lon="5.53923">
        <ele>233.74</ele>
        <time>2016-06-01T09:55:45Z</time>
      </trkpt>
      <trkpt lat="47.06858" lon="5.53934">
        <ele>237.58</ele>
        <time>2016-06-01T09:55:56Z</time>
      </trkpt>
      <trkpt lat="47.06853" lon="5.5394">
        <ele>239.51</ele>
        <time>2016-06-01T09:56:00Z</time>
      </trkpt>
      <trkpt lat="47.06843" lon="5.53954">
        <ele>239.51</ele>
        <time>2016-06-01T09:56:12Z</time>
      </trkpt>
      <trkpt lat="47.06834" lon="5.53965">
        <ele>236.14</ele>
        <time>2016-06-01T09:56:24Z</time>
      </trkpt>
      <trkpt lat="47.06823" lon="5.53979">
        <ele>236.14</ele>
        <time>2016-06-01T09:56:36Z</time>
      </trkpt>
      <trkpt lat="47.06813" lon="5.53991">
        <ele>236.62</ele>
        <time>2016-06-01T09:56:48Z</time>
      </trkpt>
      <trkpt lat="47.068" lon="5.54007">
        <ele>240.47</ele>
        <time>2016-06-01T09:56:59Z</time>
      </trkpt>
      <trkpt lat="47.06788" lon="5.5402">
        <ele>240.47</ele>
        <time>2016-06-01T09:57:15Z</time>
      </trkpt>
      <trkpt lat="47.06783" lon="5.54021">
        <ele>239.99</ele>
        <time>2016-06-01T09:57:28Z</time>
      </trkpt>
      <trkpt lat="47.06775" lon="5.5403">
        <ele>239.99</ele>
        <time>2016-06-01T09:57:38Z</time>
      </trkpt>
      <trkpt lat="47.06765" lon="5.54042">
        <ele>240.95</ele>
        <time>2016-06-01T09:57:47Z</time>
      </trkpt>
      <trkpt lat="47.06761" lon="5.54046">
        <ele>240.47</ele>
        <time>2016-06-01T09:57:55Z</time>
      </trkpt>
      <trkpt lat="47.06757" lon="5.54047">
        <ele>240.47</ele>
        <time>2016-06-01T09:57:57Z</time>
      </trkpt>
      <trkpt lat="47.06744" lon="5.54062">
        <ele>239.99</ele>
        <time>2016-06-01T09:58:11Z</time>
      </trkpt>
      <trkpt lat="47.06732" lon="5.54075">
        <ele>240.95</ele>
        <time>2016-06-01T09:58:24Z</time>
      </trkpt>
      <trkpt lat="47.06717" lon="5.5409">
        <ele>242.39</ele>
        <time>2016-06-01T09:58:39Z</time>
      </trkpt>
      <trkpt lat="47.06706" lon="5.54103">
        <ele>242.87</ele>
        <time>2016-06-01T09:58:50Z</time>
      </trkpt>
      <trkpt lat="47.06694" lon="5.54119">
        <ele>244.31</ele>
        <time>2016-06-01T09:59:03Z</time>
      </trkpt>
      <trkpt lat="47.06689" lon="5.54126">
        <ele>246.23</ele>
        <time>2016-06-01T09:59:10Z</time>
      </trkpt>
      <trkpt lat="47.06684" lon="5.54132">
        <ele>248.16</ele>
        <time>2016-06-01T09:59:23Z</time>
      </trkpt>
      <trkpt lat="47.06685" lon="5.5413">
        <ele>245.75</ele>
        <time>2016-06-01T09:59:35Z</time>
      </trkpt>
      <trkpt lat="47.06685" lon="5.54132">
        <ele>243.83</ele>
        <time>2016-06-01T09:59:57Z</time>
      </trkpt>
      <trkpt lat="47.06685" lon="5.54131">
        <ele>242.87</ele>
        <time>2016-06-01T10:00:09Z</time>
      </trkpt>
      <trkpt lat="47.06685" lon="5.54132">
        <ele>241.43</ele>
        <time>2016-06-01T10:00:28Z</time>
      </trkpt>
      <trkpt lat="47.06685" lon="5.54133">
        <ele>240.47</ele>
        <time>2016-06-01T10:00:44Z</time>
      </trkpt>
      <trkpt lat="47.06685" lon="5.54134">
        <ele>239.02</ele>
        <time>2016-06-01T10:00:59Z</time>
      </trkpt>
      <trkpt lat="47.06685" lon="5.54134">
        <ele>238.06</ele>
        <time>2016-06-01T10:01:16Z</time>
      </trkpt>
      <trkpt lat="47.06685" lon="5.54133">
        <ele>237.1</ele>
        <time>2016-06-01T10:01:33Z</time>
      </trkpt>
      <trkpt lat="47.06685" lon="5.54131">
        <ele>236.14</ele>
        <time>2016-06-01T10:01:52Z</time>
      </trkpt>
      <trkpt lat="47.06685" lon="5.54131">
        <ele>234.22</ele>
        <time>2016-06-01T10:02:10Z</time>
      </trkpt>
      <trkpt lat="47.06684" lon="5.54131">
        <ele>233.26</ele>
        <time>2016-06-01T10:02:26Z</time>
      </trkpt>
      <trkpt lat="47.06685" lon="5.5413">
        <ele>233.26</ele>
        <time>2016-06-01T10:02:38Z</time>
      </trkpt>
      <trkpt lat="47.06685" lon="5.5413">
        <ele>232.78</ele>
        <time>2016-06-01T10:02:57Z</time>
      </trkpt>
      <trkpt lat="47.06685" lon="5.5413">
        <ele>232.3</ele>
        <time>2016-06-01T10:03:15Z</time>
      </trkpt>
      <trkpt lat="47.06685" lon="5.5413">
        <ele>232.3</ele>
        <time>2016-06-01T10:03:31Z</time>
      </trkpt>
      <trkpt lat="47.06686" lon="5.5413">
        <ele>231.81</ele>
        <time>2016-06-01T10:03:43Z</time>
      </trkpt>
      <trkpt lat="47.06686" lon="5.54129">
        <ele>232.3</ele>
        <time>2016-06-01T10:04:00Z</time>
      </trkpt>
      <trkpt lat="47.06685" lon="5.54129">
        <ele>232.3</ele>
        <time>2016-06-01T10:04:15Z</time>
      </trkpt>
      <trkpt lat="47.06686" lon="5.5413">
        <ele>232.3</ele>
        <time>2016-06-01T10:04:32Z</time>
      </trkpt>
      <trkpt lat="47.06685" lon="5.5413">
        <ele>231.81</ele>
        <time>2016-06-01T10:04:46Z</time>
      </trkpt>
      <trkpt lat="47.06686" lon="5.5413">
        <ele>231.33</ele>
        <time>2016-06-01T10:05:01Z</time>
      </trkpt>
      <trkpt lat="47.06686" lon="5.5413">
        <ele>231.81</ele>
        <time>2016-06-01T10:05:13Z</time>
      </trkpt>
      <trkpt lat="47.06686" lon="5.54131">
        <ele>231.81</ele>
        <time>2016-06-01T10:05:33Z</time>
      </trkpt>
      <trkpt lat="47.06686" lon="5.54133">
        <ele>231.33</ele>
        <time>2016-06-01T10:05:52Z</time>
      </trkpt>
      <trkpt lat="47.06686" lon="5.54132">
        <ele>231.81</ele>
        <time>2016-06-01T10:06:10Z</time>
      </trkpt>
      <trkpt lat="47.06687" lon="5.54132">
        <ele>231.81</ele>
        <time>2016-06-01T10:06:24Z</time>
      </trkpt>
      <trkpt lat="47.06687" lon="5.54132">
        <ele>231.33</ele>
        <time>2016-06-01T10:06:38Z</time>
      </trkpt>
      <trkpt lat="47.06687" lon="5.54132">
        <ele>230.85</ele>
        <time>2016-06-01T10:06:51Z</time>
      </trkpt>
      <trkpt lat="47.06687" lon="5.54131">
        <ele>230.85</ele>
        <time>2016-06-01T10:07:00Z</time>
      </trkpt>
      <trkpt lat="47.06687" lon="5.5413">
        <ele>231.81</ele>
        <time>2016-06-01T10:07:13Z</time>
      </trkpt>
      <trkpt lat="47.06687" lon="5.5413">
        <ele>231.81</ele>
        <time>2016-06-01T10:07:31Z</time>
      </trkpt>
      <trkpt lat="47.06687" lon="5.5413">
        <ele>231.81</ele>
        <time>2016-06-01T10:07:51Z</time>
      </trkpt>
      <trkpt lat="47.06686" lon="5.5413">
        <ele>232.3</ele>
        <time>2016-06-01T10:08:12Z</time>
      </trkpt>
      <trkpt lat="47.06686" lon="5.54131">
        <ele>231.33</ele>
        <time>2016-06-01T10:08:31Z</time>
      </trkpt>
      <trkpt lat="47.06686" lon="5.54131">
        <ele>230.85</ele>
        <time>2016-06-01T10:08:52Z</time>
      </trkpt>
      <trkpt lat="47.06685" lon="5.54131">
        <ele>230.85</ele>
        <time>2016-06-01T10:09:12Z</time>
      </trkpt>
      <trkpt lat="47.06686" lon="5.54131">
        <ele>231.33</ele>
        <time>2016-06-01T10:09:33Z</time>
      </trkpt>
      <trkpt lat="47.06685" lon="5.54131">
        <ele>231.33</ele>
        <time>2016-06-01T10:09:53Z</time>
      </trkpt>
      <trkpt lat="47.06681" lon="5.54144">
        <ele>230.85</ele>
        <time>2016-06-01T10:10:05Z</time>
      </trkpt>
      <trkpt lat="47.06675" lon="5.54152">
        <ele>232.78</ele>
        <time>2016-06-01T10:10:19Z</time>
      </trkpt>
      <trkpt lat="47.06676" lon="5.54155">
        <ele>233.74</ele>
        <time>2016-06-01T10:10:41Z</time>
      </trkpt>
      <trkpt lat="47.06667" lon="5.54169">
        <ele>238.06</ele>
        <time>2016-06-01T10:10:56Z</time>
      </trkpt>
      <trkpt lat="47.06659" lon="5.54181">
        <ele>240.47</ele>
        <time>2016-06-01T10:11:08Z</time>
      </trkpt>
      <trkpt lat="47.06649" lon="5.54196">
        <ele>241.91</ele>
        <time>2016-06-01T10:11:23Z</time>
      </trkpt>
      <trkpt lat="47.0664" lon="5.54217">
        <ele>246.23</ele>
        <time>2016-06-01T10:11:37Z</time>
      </trkpt>
      <trkpt lat="47.0663" lon="5.54235">
        <ele>248.64</ele>
        <time>2016-06-01T10:11:52Z</time>
      </trkpt>
      <trkpt lat="47.06626" lon="5.54241">
        <ele>248.16</ele>
        <time>2016-06-01T10:12:04Z</time>
      </trkpt>
      <trkpt lat="47.06623" lon="5.54249">
        <ele>245.27</ele>
        <time>2016-06-01T10:12:19Z</time>
      </trkpt>
      <trkpt lat="47.06617" lon="5.54262">
        <ele>244.79</ele>
        <time>2016-06-01T10:12:34Z</time>
      </trkpt>
      <trkpt lat="47.06607" lon="5.54277">
        <ele>241.43</ele>
        <time>2016-06-01T10:12:47Z</time>
      </trkpt>
      <trkpt lat="47.06596" lon="5.54295">
        <ele>239.51</ele>
        <time>2016-06-01T10:13:00Z</time>
      </trkpt>
      <trkpt lat="47.06587" lon="5.54308">
        <ele>239.02</ele>
        <time>2016-06-01T10:13:13Z</time>
      </trkpt>
      <trkpt lat="47.06575" lon="5.54329">
        <ele>237.58</ele>
        <time>2016-06-01T10:13:26Z</time>
      </trkpt>
      <trkpt lat="47.06562" lon="5.54348">
        <ele>238.54</ele>
        <time>2016-06-01T10:13:38Z</time>
      </trkpt>
      <trkpt lat="47.06553" lon="5.54366">
        <ele>243.83</ele>
        <time>2016-06-01T10:13:52Z</time>
      </trkpt>
      <trkpt lat="47.06547" lon="5.54381">
        <ele>243.35</ele>
        <time>2016-06-01T10:14:03Z</time>
      </trkpt>
      <trkpt lat="47.06538" lon="5.54396">
        <ele>243.83</ele>
        <time>2016-06-01T10:14:15Z</time>
      </trkpt>
      <trkpt lat="47.0653" lon="5.54414">
        <ele>242.87</ele>
        <time>2016-06-01T10:14:28Z</time>
      </trkpt>
      <trkpt lat="47.06524" lon="5.54423">
        <ele>242.87</ele>
        <time>2016-06-01T10:14:40Z</time>
      </trkpt>
      <trkpt lat="47.0652" lon="5.54433">
        <ele>244.79</ele>
        <time>2016-06-01T10:14:51Z</time>
      </trkpt>
      <trkpt lat="47.06512" lon="5.54446">
        <ele>245.27</ele>
        <time>2016-06-01T10:15:02Z</time>
      </trkpt>
      <trkpt lat="47.06503" lon="5.54462">
        <ele>248.16</ele>
        <time>2016-06-01T10:15:14Z</time>
      </trkpt>
      <trkpt lat="47.0649" lon="5.54487">
        <ele>249.12</ele>
        <time>2016-06-01T10:15:29Z</time>
      </trkpt>
      <trkpt lat="47.06478" lon="5.54508">
        <ele>248.64</ele>
        <time>2016-06-01T10:15:45Z</time>
      </trkpt>
      <trkpt lat="47.06476" lon="5.54512">
        <ele>247.68</ele>
        <time>2016-06-01T10:15:51Z</time>
      </trkpt>
      <trkpt lat="47.06467" lon="5.54527">
        <ele>247.68</ele>
        <time>2016-06-01T10:16:04Z</time>
      </trkpt>
      <trkpt lat="47.06467" lon="5.54528">
        <ele>247.68</ele>
        <time>2016-06-01T10:16:05Z</time>
      </trkpt>
      <trkpt lat="47.06465" lon="5.54534">
        <ele>248.16</ele>
        <time>2016-06-01T10:16:08Z</time>
      </trkpt>
      <trkpt lat="47.06452" lon="5.54553">
        <ele>250.56</ele>
        <time>2016-06-01T10:16:19Z</time>
      </trkpt>
      <trkpt lat="47.06442" lon="5.54575">
        <ele>253.93</ele>
        <time>2016-06-01T10:16:32Z</time>
      </trkpt>
      <trkpt lat="47.06433" lon="5.54586">
        <ele>252.48</ele>
        <time>2016-06-01T10:16:46Z</time>
      </trkpt>
      <trkpt lat="47.06428" lon="5.54595">
        <ele>251.04</ele>
        <time>2016-06-01T10:16:59Z</time>
      </trkpt>
      <trkpt lat="47.06423" lon="5.54606">
        <ele>251.04</ele>
        <time>2016-06-01T10:17:13Z</time>
      </trkpt>
      <trkpt lat="47.06412" lon="5.54623">
        <ele>251.04</ele>
        <time>2016-06-01T10:17:25Z</time>
      </trkpt>
      <trkpt lat="47.06406" lon="5.54635">
        <ele>250.08</ele>
        <time>2016-06-01T10:17:36Z</time>
      </trkpt>
      <trkpt lat="47.06397" lon="5.54652">
        <ele>250.08</ele>
        <time>2016-06-01T10:17:49Z</time>
      </trkpt>
      <trkpt lat="47.06389" lon="5.54667">
        <ele>251.04</ele>
        <time>2016-06-01T10:18:03Z</time>
      </trkpt>
      <trkpt lat="47.06384" lon="5.54674">
        <ele>250.56</ele>
        <time>2016-06-01T10:18:15Z</time>
      </trkpt>
      <trkpt lat="47.06374" lon="5.54688">
        <ele>250.08</ele>
        <time>2016-06-01T10:18:29Z</time>
      </trkpt>
      <trkpt lat="47.06368" lon="5.54702">
        <ele>252</ele>
        <time>2016-06-01T10:18:37Z</time>
      </trkpt>
      <trkpt lat="47.06358" lon="5.5472">
        <ele>253.93</ele>
        <time>2016-06-01T10:18:48Z</time>
      </trkpt>
      <trkpt lat="47.06348" lon="5.54733">
        <ele>254.89</ele>
        <time>2016-06-01T10:19:00Z</time>
      </trkpt>
      <trkpt lat="47.0634" lon="5.5475">
        <ele>253.44</ele>
        <time>2016-06-01T10:19:14Z</time>
      </trkpt>
      <trkpt lat="47.06332" lon="5.54767">
        <ele>253.93</ele>
        <time>2016-06-01T10:19:26Z</time>
      </trkpt>
      <trkpt lat="47.06319" lon="5.54785">
        <ele>254.89</ele>
        <time>2016-06-01T10:19:41Z</time>
      </trkpt>
      <trkpt lat="47.06311" lon="5.548">
        <ele>253.93</ele>
        <time>2016-06-01T10:19:55Z</time>
      </trkpt>
      <trkpt lat="47.06301" lon="5.54821">
        <ele>255.85</ele>
        <time>2016-06-01T10:20:06Z</time>
      </trkpt>
      <trkpt lat="47.06292" lon="5.54836">
        <ele>256.33</ele>
        <time>2016-06-01T10:20:19Z</time>
      </trkpt>
      <trkpt lat="47.06286" lon="5.54853">
        <ele>257.29</ele>
        <time>2016-06-01T10:20:32Z</time>
      </trkpt>
      <trkpt lat="47.06275" lon="5.5488">
        <ele>262.1</ele>
        <time>2016-06-01T10:20:47Z</time>
      </trkpt>
      <trkpt lat="47.06264" lon="5.54908">
        <ele>264.02</ele>
        <time>2016-06-01T10:21:00Z</time>
      </trkpt>
      <trkpt lat="47.06258" lon="5.54926">
        <ele>263.06</ele>
        <time>2016-06-01T10:21:12Z</time>
      </trkpt>
      <trkpt lat="47.06253" lon="5.54943">
        <ele>262.58</ele>
        <time>2016-06-01T10:21:25Z</time>
      </trkpt>
      <trkpt lat="47.0625" lon="5.54957">
        <ele>258.25</ele>
        <time>2016-06-01T10:21:37Z</time>
      </trkpt>
      <trkpt lat="47.0625" lon="5.54962">
        <ele>258.25</ele>
        <time>2016-06-01T10:21:48Z</time>
      </trkpt>
      <trkpt lat="47.0624" lon="5.55">
        <ele>260.65</ele>
        <time>2016-06-01T10:22:01Z</time>
      </trkpt>
      <trkpt lat="47.06234" lon="5.55018">
        <ele>260.65</ele>
        <time>2016-06-01T10:22:13Z</time>
      </trkpt>
      <trkpt lat="47.06229" lon="5.55034">
        <ele>261.14</ele>
        <time>2016-06-01T10:22:26Z</time>
      </trkpt>
      <trkpt lat="47.06222" lon="5.55058">
        <ele>264.02</ele>
        <time>2016-06-01T10:22:38Z</time>
      </trkpt>
      <trkpt lat="47.0622" lon="5.55067">
        <ele>263.06</ele>
        <time>2016-06-01T10:22:52Z</time>
      </trkpt>
      <trkpt lat="47.06212" lon="5.55091">
        <ele>263.06</ele>
        <time>2016-06-01T10:23:06Z</time>
      </trkpt>
      <trkpt lat="47.06204" lon="5.55115">
        <ele>262.1</ele>
        <time>2016-06-01T10:23:20Z</time>
      </trkpt>
      <trkpt lat="47.06201" lon="5.55121">
        <ele>261.14</ele>
        <time>2016-06-01T10:23:29Z</time>
      </trkpt>
      <trkpt lat="47.06194" lon="5.55132">
        <ele>257.77</ele>
        <time>2016-06-01T10:23:40Z</time>
      </trkpt>
      <trkpt lat="47.06188" lon="5.55152">
        <ele>257.29</ele>
        <time>2016-06-01T10:23:52Z</time>
      </trkpt>
      <trkpt lat="47.06177" lon="5.55181">
        <ele>257.29</ele>
        <time>2016-06-01T10:24:08Z</time>
      </trkpt>
      <trkpt lat="47.06175" lon="5.55184">
        <ele>257.29</ele>
        <time>2016-06-01T10:24:11Z</time>
      </trkpt>
      <trkpt lat="47.0617" lon="5.55195">
        <ele>255.85</ele>
        <time>2016-06-01T10:24:19Z</time>
      </trkpt>
      <trkpt lat="47.06156" lon="5.55219">
        <ele>254.89</ele>
        <time>2016-06-01T10:24:33Z</time>
      </trkpt>
      <trkpt lat="47.06151" lon="5.55225">
        <ele>253.93</ele>
        <time>2016-06-01T10:24:40Z</time>
      </trkpt>
      <trkpt lat="47.06137" lon="5.55252">
        <ele>252</ele>
        <time>2016-06-01T10:24:54Z</time>
      </trkpt>
      <trkpt lat="47.06127" lon="5.55274">
        <ele>250.56</ele>
        <time>2016-06-01T10:25:08Z</time>
      </trkpt>
      <trkpt lat="47.06123" lon="5.55284">
        <ele>251.04</ele>
        <time>2016-06-01T10:25:14Z</time>
      </trkpt>
      <trkpt lat="47.06114" lon="5.55299">
        <ele>250.56</ele>
        <time>2016-06-01T10:25:26Z</time>
      </trkpt>
      <trkpt lat="47.0611" lon="5.55309">
        <ele>251.52</ele>
        <time>2016-06-01T10:25:37Z</time>
      </trkpt>
      <trkpt lat="47.06101" lon="5.55329">
        <ele>252.96</ele>
        <time>2016-06-01T10:25:49Z</time>
      </trkpt>
      <trkpt lat="47.06095" lon="5.55351">
        <ele>256.33</ele>
        <time>2016-06-01T10:25:59Z</time>
      </trkpt>
      <trkpt lat="47.0609" lon="5.55363">
        <ele>256.33</ele>
        <time>2016-06-01T10:26:12Z</time>
      </trkpt>
      <trkpt lat="47.06082" lon="5.55389">
        <ele>256.81</ele>
        <time>2016-06-01T10:26:27Z</time>
      </trkpt>
      <trkpt lat="47.06075" lon="5.55414">
        <ele>256.81</ele>
        <time>2016-06-01T10:26:42Z</time>
      </trkpt>
      <trkpt lat="47.06071" lon="5.5543">
        <ele>256.33</ele>
        <time>2016-06-01T10:26:53Z</time>
      </trkpt>
      <trkpt lat="47.06067" lon="5.55457">
        <ele>254.89</ele>
        <time>2016-06-01T10:27:05Z</time>
      </trkpt>
      <trkpt lat="47.06065" lon="5.55482">
        <ele>256.33</ele>
        <time>2016-06-01T10:27:16Z</time>
      </trkpt>
      <trkpt lat="47.06065" lon="5.55509">
        <ele>256.33</ele>
        <time>2016-06-01T10:27:28Z</time>
      </trkpt>
      <trkpt lat="47.06069" lon="5.55527">
        <ele>253.44</ele>
        <time>2016-06-01T10:27:41Z</time>
      </trkpt>
      <trkpt lat="47.06072" lon="5.55541">
        <ele>251.52</ele>
        <time>2016-06-01T10:27:56Z</time>
      </trkpt>
      <trkpt lat="47.06072" lon="5.55573">
        <ele>252.96</ele>
        <time>2016-06-01T10:28:09Z</time>
      </trkpt>
      <trkpt lat="47.06073" lon="5.55594">
        <ele>252.48</ele>
        <time>2016-06-01T10:28:22Z</time>
      </trkpt>
      <trkpt lat="47.06072" lon="5.55623">
        <ele>252.48</ele>
        <time>2016-06-01T10:28:35Z</time>
      </trkpt>
      <trkpt lat="47.06072" lon="5.55642">
        <ele>253.44</ele>
        <time>2016-06-01T10:28:46Z</time>
      </trkpt>
      <trkpt lat="47.06072" lon="5.55666">
        <ele>252.48</ele>
        <time>2016-06-01T10:28:59Z</time>
      </trkpt>
      <trkpt lat="47.06073" lon="5.55691">
        <ele>253.44</ele>
        <time>2016-06-01T10:29:12Z</time>
      </trkpt>
      <trkpt lat="47.0607" lon="5.55705">
        <ele>252.96</ele>
        <time>2016-06-01T10:29:24Z</time>
      </trkpt>
      <trkpt lat="47.06072" lon="5.55728">
        <ele>251.04</ele>
        <time>2016-06-01T10:29:38Z</time>
      </trkpt>
      <trkpt lat="47.06073" lon="5.55731">
        <ele>250.56</ele>
        <time>2016-06-01T10:29:51Z</time>
      </trkpt>
      <trkpt lat="47.0607" lon="5.55744">
        <ele>248.64</ele>
        <time>2016-06-01T10:30:03Z</time>
      </trkpt>
      <trkpt lat="47.06068" lon="5.55763">
        <ele>249.12</ele>
        <time>2016-06-01T10:30:15Z</time>
      </trkpt>
      <trkpt lat="47.06068" lon="5.55771">
        <ele>249.12</ele>
        <time>2016-06-01T10:30:18Z</time>
      </trkpt>
      <trkpt lat="47.06066" lon="5.55792">
        <ele>249.6</ele>
        <time>2016-06-01T10:30:30Z</time>
      </trkpt>
      <trkpt lat="47.06069" lon="5.55818">
        <ele>251.52</ele>
        <time>2016-06-01T10:30:45Z</time>
      </trkpt>
      <trkpt lat="47.06069" lon="5.55838">
        <ele>253.93</ele>
        <time>2016-06-01T10:30:57Z</time>
      </trkpt>
      <trkpt lat="47.06071" lon="5.55846">
        <ele>251.52</ele>
        <time>2016-06-01T10:31:09Z</time>
      </trkpt>
      <trkpt lat="47.06068" lon="5.55853">
        <ele>250.08</ele>
        <time>2016-06-01T10:31:33Z</time>
      </trkpt>
      <trkpt lat="47.06067" lon="5.55857">
        <ele>250.56</ele>
        <time>2016-06-01T10:31:47Z</time>
      </trkpt>
      <trkpt lat="47.06067" lon="5.55874">
        <ele>250.56</ele>
        <time>2016-06-01T10:32:01Z</time>
      </trkpt>
      <trkpt lat="47.06069" lon="5.55874">
        <ele>251.04</ele>
        <time>2016-06-01T10:32:24Z</time>
      </trkpt>
      <trkpt lat="47.06069" lon="5.55881">
        <ele>251.52</ele>
        <time>2016-06-01T10:32:48Z</time>
      </trkpt>
      <trkpt lat="47.06068" lon="5.55904">
        <ele>253.93</ele>
        <time>2016-06-01T10:32:59Z</time>
      </trkpt>
      <trkpt lat="47.06058" lon="5.5593">
        <ele>255.37</ele>
        <time>2016-06-01T10:33:13Z</time>
      </trkpt>
      <trkpt lat="47.06049" lon="5.55961">
        <ele>254.41</ele>
        <time>2016-06-01T10:33:28Z</time>
      </trkpt>
      <trkpt lat="47.06043" lon="5.55981">
        <ele>255.85</ele>
        <time>2016-06-01T10:33:40Z</time>
      </trkpt>
      <trkpt lat="47.06038" lon="5.56004">
        <ele>251.52</ele>
        <time>2016-06-01T10:33:54Z</time>
      </trkpt>
      <trkpt lat="47.06033" lon="5.56018">
        <ele>248.64</ele>
        <time>2016-06-01T10:34:05Z</time>
      </trkpt>
      <trkpt lat="47.0603" lon="5.56037">
        <ele>248.16</ele>
        <time>2016-06-01T10:34:16Z</time>
      </trkpt>
      <trkpt lat="47.06027" lon="5.56048">
        <ele>248.16</ele>
        <time>2016-06-01T10:34:22Z</time>
      </trkpt>
      <trkpt lat="47.06015" lon="5.56071">
        <ele>247.68</ele>
        <time>2016-06-01T10:34:36Z</time>
      </trkpt>
      <trkpt lat="47.06012" lon="5.56079">
        <ele>248.16</ele>
        <time>2016-06-01T10:34:48Z</time>
      </trkpt>
      <trkpt lat="47.06007" lon="5.56086">
        <ele>250.08</ele>
        <time>2016-06-01T10:35:00Z</time>
      </trkpt>
      <trkpt lat="47.05997" lon="5.561">
        <ele>250.56</ele>
        <time>2016-06-01T10:35:12Z</time>
      </trkpt>
      <trkpt lat="47.05987" lon="5.56116">
        <ele>251.04</ele>
        <time>2016-06-01T10:35:24Z</time>
      </trkpt>
      <trkpt lat="47.05978" lon="5.56135">
        <ele>252</ele>
        <time>2016-06-01T10:35:37Z</time>
      </trkpt>
      <trkpt lat="47.05969" lon="5.56148">
        <ele>252.96</ele>
        <time>2016-06-01T10:35:48Z</time>
      </trkpt>
      <trkpt lat="47.05963" lon="5.56157">
        <ele>252.96</ele>
        <time>2016-06-01T10:36:03Z</time>
      </trkpt>
      <trkpt lat="47.05962" lon="5.56155">
        <ele>252.96</ele>
        <time>2016-06-01T10:36:14Z</time>
      </trkpt>
      <trkpt lat="47.0596" lon="5.56156">
        <ele>253.44</ele>
        <time>2016-06-01T10:36:36Z</time>
      </trkpt>
      <trkpt lat="47.05959" lon="5.56157">
        <ele>254.41</ele>
        <time>2016-06-01T10:36:50Z</time>
      </trkpt>
      <trkpt lat="47.05958" lon="5.56158">
        <ele>253.93</ele>
        <time>2016-06-01T10:37:07Z</time>
      </trkpt>
      <trkpt lat="47.05954" lon="5.56157">
        <ele>253.93</ele>
        <time>2016-06-01T10:37:20Z</time>
      </trkpt>
      <trkpt lat="47.05953" lon="5.56159">
        <ele>252.96</ele>
        <time>2016-06-01T10:37:37Z</time>
      </trkpt>
      <trkpt lat="47.05953" lon="5.56159">
        <ele>253.93</ele>
        <time>2016-06-01T10:37:59Z</time>
      </trkpt>
      <trkpt lat="47.05953" lon="5.56158">
        <ele>253.44</ele>
        <time>2016-06-01T10:38:12Z</time>
      </trkpt>
      <trkpt lat="47.05953" lon="5.56159">
        <ele>252.96</ele>
        <time>2016-06-01T10:38:25Z</time>
      </trkpt>
      <trkpt lat="47.05953" lon="5.5616">
        <ele>252.96</ele>
        <time>2016-06-01T10:38:44Z</time>
      </trkpt>
      <trkpt lat="47.05952" lon="5.5616">
        <ele>253.44</ele>
        <time>2016-06-01T10:39:05Z</time>
      </trkpt>
      <trkpt lat="47.05953" lon="5.56161">
        <ele>252.48</ele>
        <time>2016-06-01T10:39:24Z</time>
      </trkpt>
      <trkpt lat="47.05953" lon="5.56161">
        <ele>252.48</ele>
        <time>2016-06-01T10:39:43Z</time>
      </trkpt>
      <trkpt lat="47.05954" lon="5.56162">
        <ele>252</ele>
        <time>2016-06-01T10:40:07Z</time>
      </trkpt>
      <trkpt lat="47.05955" lon="5.56161">
        <ele>251.52</ele>
        <time>2016-06-01T10:40:28Z</time>
      </trkpt>
      <trkpt lat="47.05956" lon="5.56162">
        <ele>249.6</ele>
        <time>2016-06-01T10:40:53Z</time>
      </trkpt>
      <trkpt lat="47.05958" lon="5.56164">
        <ele>248.16</ele>
        <time>2016-06-01T10:41:19Z</time>
      </trkpt>
      <trkpt lat="47.05958" lon="5.56164">
        <ele>248.16</ele>
        <time>2016-06-01T10:41:47Z</time>
      </trkpt>
      <trkpt lat="47.05959" lon="5.56165">
        <ele>248.64</ele>
        <time>2016-06-01T10:42:11Z</time>
      </trkpt>
      <trkpt lat="47.0596" lon="5.56167">
        <ele>249.12</ele>
        <time>2016-06-01T10:42:39Z</time>
      </trkpt>
      <trkpt lat="47.05961" lon="5.56167">
        <ele>249.12</ele>
        <time>2016-06-01T10:43:07Z</time>
      </trkpt>
      <trkpt lat="47.05961" lon="5.56167">
        <ele>248.64</ele>
        <time>2016-06-01T10:43:37Z</time>
      </trkpt>
      <trkpt lat="47.05961" lon="5.56166">
        <ele>249.6</ele>
        <time>2016-06-01T10:44:05Z</time>
      </trkpt>
      <trkpt lat="47.05962" lon="5.56167">
        <ele>248.16</ele>
        <time>2016-06-01T10:44:31Z</time>
      </trkpt>
      <trkpt lat="47.05962" lon="5.56168">
        <ele>249.6</ele>
        <time>2016-06-01T10:44:56Z</time>
      </trkpt>
      <trkpt lat="47.05962" lon="5.56169">
        <ele>250.56</ele>
        <time>2016-06-01T10:45:22Z</time>
      </trkpt>
      <trkpt lat="47.05961" lon="5.56169">
        <ele>251.04</ele>
        <time>2016-06-01T10:45:49Z</time>
      </trkpt>
      <trkpt lat="47.05961" lon="5.56169">
        <ele>251.52</ele>
        <time>2016-06-01T10:46:18Z</time>
      </trkpt>
      <trkpt lat="47.05961" lon="5.56169">
        <ele>251.52</ele>
        <time>2016-06-01T10:46:50Z</time>
      </trkpt>
      <trkpt lat="47.05962" lon="5.5617">
        <ele>251.52</ele>
        <time>2016-06-01T10:47:21Z</time>
      </trkpt>
      <trkpt lat="47.05962" lon="5.56171">
        <ele>252</ele>
        <time>2016-06-01T10:47:48Z</time>
      </trkpt>
      <trkpt lat="47.05962" lon="5.56169">
        <ele>251.52</ele>
        <time>2016-06-01T10:48:07Z</time>
      </trkpt>
      <trkpt lat="47.05962" lon="5.56168">
        <ele>251.04</ele>
        <time>2016-06-01T10:48:26Z</time>
      </trkpt>
      <trkpt lat="47.05963" lon="5.56166">
        <ele>251.04</ele>
        <time>2016-06-01T10:48:44Z</time>
      </trkpt>
      <trkpt lat="47.05963" lon="5.56165">
        <ele>250.56</ele>
        <time>2016-06-01T10:49:04Z</time>
      </trkpt>
      <trkpt lat="47.05963" lon="5.56165">
        <ele>250.56</ele>
        <time>2016-06-01T10:49:21Z</time>
      </trkpt>
      <trkpt lat="47.05963" lon="5.56164">
        <ele>250.08</ele>
        <time>2016-06-01T10:49:33Z</time>
      </trkpt>
      <trkpt lat="47.05963" lon="5.56164">
        <ele>249.6</ele>
        <time>2016-06-01T10:49:49Z</time>
      </trkpt>
      <trkpt lat="47.05963" lon="5.56164">
        <ele>249.6</ele>
        <time>2016-06-01T10:50:02Z</time>
      </trkpt>
      <trkpt lat="47.05963" lon="5.56164">
        <ele>249.6</ele>
        <time>2016-06-01T10:50:18Z</time>
      </trkpt>
      <trkpt lat="47.05963" lon="5.56164">
        <ele>249.12</ele>
        <time>2016-06-01T10:50:30Z</time>
      </trkpt>
      <trkpt lat="47.05962" lon="5.56164">
        <ele>249.12</ele>
        <time>2016-06-01T10:50:50Z</time>
      </trkpt>
      <trkpt lat="47.05962" lon="5.56164">
        <ele>249.12</ele>
        <time>2016-06-01T10:51:09Z</time>
      </trkpt>
      <trkpt lat="47.05962" lon="5.56163">
        <ele>249.6</ele>
        <time>2016-06-01T10:51:29Z</time>
      </trkpt>
      <trkpt lat="47.05961" lon="5.56163">
        <ele>249.12</ele>
        <time>2016-06-01T10:51:51Z</time>
      </trkpt>
      <trkpt lat="47.05961" lon="5.56163">
        <ele>248.64</ele>
        <time>2016-06-01T10:52:13Z</time>
      </trkpt>
      <trkpt lat="47.05961" lon="5.56164">
        <ele>249.12</ele>
        <time>2016-06-01T10:52:30Z</time>
      </trkpt>
      <trkpt lat="47.0596" lon="5.56165">
        <ele>249.6</ele>
        <time>2016-06-01T10:52:56Z</time>
      </trkpt>
      <trkpt lat="47.0596" lon="5.56164">
        <ele>249.6</ele>
        <time>2016-06-01T10:53:12Z</time>
      </trkpt>
      <trkpt lat="47.05961" lon="5.56164">
        <ele>249.12</ele>
        <time>2016-06-01T10:53:35Z</time>
      </trkpt>
      <trkpt lat="47.05961" lon="5.56165">
        <ele>249.12</ele>
        <time>2016-06-01T10:53:55Z</time>
      </trkpt>
      <trkpt lat="47.05961" lon="5.56166">
        <ele>249.6</ele>
        <time>2016-06-01T10:54:13Z</time>
      </trkpt>
      <trkpt lat="47.05961" lon="5.56166">
        <ele>249.6</ele>
        <time>2016-06-01T10:54:33Z</time>
      </trkpt>
      <trkpt lat="47.0596" lon="5.56165">
        <ele>249.6</ele>
        <time>2016-06-01T10:54:50Z</time>
      </trkpt>
      <trkpt lat="47.05959" lon="5.56164">
        <ele>249.6</ele>
        <time>2016-06-01T10:55:11Z</time>
      </trkpt>
      <trkpt lat="47.0596" lon="5.56164">
        <ele>250.08</ele>
        <time>2016-06-01T10:55:32Z</time>
      </trkpt>
      <trkpt lat="47.05961" lon="5.56166">
        <ele>250.08</ele>
        <time>2016-06-01T10:55:37Z</time>
      </trkpt>
      <trkpt lat="47.05967" lon="5.56163">
        <ele>249.12</ele>
        <time>2016-06-01T10:55:54Z</time>
      </trkpt>
      <trkpt lat="47.05949" lon="5.56163">
        <ele>249.12</ele>
        <time>2016-06-01T10:56:10Z</time>
      </trkpt>
      <trkpt lat="47.0595" lon="5.56161">
        <ele>250.08</ele>
        <time>2016-06-01T10:56:30Z</time>
      </trkpt>
      <trkpt lat="47.0595" lon="5.5616">
        <ele>249.6</ele>
        <time>2016-06-01T10:56:56Z</time>
      </trkpt>
      <trkpt lat="47.0595" lon="5.5616">
        <ele>250.08</ele>
        <time>2016-06-01T10:57:17Z</time>
      </trkpt>
      <trkpt lat="47.05952" lon="5.56159">
        <ele>250.56</ele>
        <time>2016-06-01T10:57:36Z</time>
      </trkpt>
      <trkpt lat="47.05953" lon="5.56158">
        <ele>251.04</ele>
        <time>2016-06-01T10:57:52Z</time>
      </trkpt>
      <trkpt lat="47.05954" lon="5.56158">
        <ele>252.48</ele>
        <time>2016-06-01T10:58:10Z</time>
      </trkpt>
      <trkpt lat="47.05955" lon="5.56158">
        <ele>252.48</ele>
        <time>2016-06-01T10:58:32Z</time>
      </trkpt>
      <trkpt lat="47.05955" lon="5.56159">
        <ele>253.44</ele>
        <time>2016-06-01T10:58:53Z</time>
      </trkpt>
      <trkpt lat="47.05956" lon="5.56158">
        <ele>255.37</ele>
        <time>2016-06-01T10:59:07Z</time>
      </trkpt>
      <trkpt lat="47.05956" lon="5.56159">
        <ele>255.85</ele>
        <time>2016-06-01T10:59:27Z</time>
      </trkpt>
      <trkpt lat="47.05956" lon="5.56159">
        <ele>255.85</ele>
        <time>2016-06-01T10:59:55Z</time>
      </trkpt>
      <trkpt lat="47.05957" lon="5.56165">
        <ele>254.89</ele>
        <time>2016-06-01T11:00:06Z</time>
      </trkpt>
      <trkpt lat="47.05953" lon="5.56176">
        <ele>254.41</ele>
        <time>2016-06-01T11:00:13Z</time>
      </trkpt>
      <trkpt lat="47.05952" lon="5.5619">
        <ele>253.44</ele>
        <time>2016-06-01T11:00:23Z</time>
      </trkpt>
      <trkpt lat="47.05952" lon="5.562">
        <ele>253.44</ele>
        <time>2016-06-01T11:00:30Z</time>
      </trkpt>
      <trkpt lat="47.05949" lon="5.56213">
        <ele>253.93</ele>
        <time>2016-06-01T11:00:40Z</time>
      </trkpt>
      <trkpt lat="47.05945" lon="5.56222">
        <ele>252.48</ele>
        <time>2016-06-01T11:00:45Z</time>
      </trkpt>
      <trkpt lat="47.05939" lon="5.56238">
        <ele>251.52</ele>
        <time>2016-06-01T11:00:57Z</time>
      </trkpt>
      <trkpt lat="47.05936" lon="5.56261">
        <ele>252.96</ele>
        <time>2016-06-01T11:01:07Z</time>
      </trkpt>
      <trkpt lat="47.05935" lon="5.56265">
        <ele>252.96</ele>
        <time>2016-06-01T11:01:10Z</time>
      </trkpt>
      <trkpt lat="47.05933" lon="5.56276">
        <ele>251.52</ele>
        <time>2016-06-01T11:01:17Z</time>
      </trkpt>
      <trkpt lat="47.05929" lon="5.56291">
        <ele>250.56</ele>
        <time>2016-06-01T11:01:28Z</time>
      </trkpt>
      <trkpt lat="47.05925" lon="5.56301">
        <ele>250.08</ele>
        <time>2016-06-01T11:01:38Z</time>
      </trkpt>
      <trkpt lat="47.05922" lon="5.56309">
        <ele>248.16</ele>
        <time>2016-06-01T11:01:52Z</time>
      </trkpt>
      <trkpt lat="47.05918" lon="5.56316">
        <ele>245.27</ele>
        <time>2016-06-01T11:02:00Z</time>
      </trkpt>
      <trkpt lat="47.05918" lon="5.56325">
        <ele>242.39</ele>
        <time>2016-06-01T11:02:07Z</time>
      </trkpt>
      <trkpt lat="47.05913" lon="5.56333">
        <ele>241.43</ele>
        <time>2016-06-01T11:02:17Z</time>
      </trkpt>
      <trkpt lat="47.05906" lon="5.5635">
        <ele>242.39</ele>
        <time>2016-06-01T11:02:28Z</time>
      </trkpt>
      <trkpt lat="47.05904" lon="5.56355">
        <ele>242.39</ele>
        <time>2016-06-01T11:02:32Z</time>
      </trkpt>
      <trkpt lat="47.05893" lon="5.56373">
        <ele>242.39</ele>
        <time>2016-06-01T11:02:45Z</time>
      </trkpt>
      <trkpt lat="47.05883" lon="5.56397">
        <ele>242.87</ele>
        <time>2016-06-01T11:02:55Z</time>
      </trkpt>
      <trkpt lat="47.05874" lon="5.5643">
        <ele>247.2</ele>
        <time>2016-06-01T11:03:07Z</time>
      </trkpt>
      <trkpt lat="47.05869" lon="5.56441">
        <ele>246.72</ele>
        <time>2016-06-01T11:03:17Z</time>
      </trkpt>
      <trkpt lat="47.05861" lon="5.56459">
        <ele>244.79</ele>
        <time>2016-06-01T11:03:29Z</time>
      </trkpt>
      <trkpt lat="47.05858" lon="5.56476">
        <ele>244.79</ele>
        <time>2016-06-01T11:03:40Z</time>
      </trkpt>
      <trkpt lat="47.05857" lon="5.56484">
        <ele>244.31</ele>
        <time>2016-06-01T11:03:47Z</time>
      </trkpt>
      <trkpt lat="47.05858" lon="5.56488">
        <ele>244.31</ele>
        <time>2016-06-01T11:03:49Z</time>
      </trkpt>
      <trkpt lat="47.05852" lon="5.56515">
        <ele>245.27</ele>
        <time>2016-06-01T11:04:02Z</time>
      </trkpt>
      <trkpt lat="47.05852" lon="5.56529">
        <ele>242.39</ele>
        <time>2016-06-01T11:04:15Z</time>
      </trkpt>
      <trkpt lat="47.0585" lon="5.56538">
        <ele>240.95</ele>
        <time>2016-06-01T11:04:26Z</time>
      </trkpt>
      <trkpt lat="47.05848" lon="5.56544">
        <ele>238.06</ele>
        <time>2016-06-01T11:04:32Z</time>
      </trkpt>
      <trkpt lat="47.05847" lon="5.56566">
        <ele>236.14</ele>
        <time>2016-06-01T11:04:42Z</time>
      </trkpt>
      <trkpt lat="47.05841" lon="5.56587">
        <ele>234.7</ele>
        <time>2016-06-01T11:04:54Z</time>
      </trkpt>
      <trkpt lat="47.05841" lon="5.566">
        <ele>236.14</ele>
        <time>2016-06-01T11:05:01Z</time>
      </trkpt>
      <trkpt lat="47.05842" lon="5.56613">
        <ele>236.62</ele>
        <time>2016-06-01T11:05:05Z</time>
      </trkpt>
      <trkpt lat="47.0584" lon="5.56627">
        <ele>236.14</ele>
        <time>2016-06-01T11:05:15Z</time>
      </trkpt>
      <trkpt lat="47.0584" lon="5.56632">
        <ele>235.18</ele>
        <time>2016-06-01T11:05:18Z</time>
      </trkpt>
      <trkpt lat="47.05835" lon="5.56647">
        <ele>232.3</ele>
        <time>2016-06-01T11:05:31Z</time>
      </trkpt>
      <trkpt lat="47.0583" lon="5.56659">
        <ele>228.45</ele>
        <time>2016-06-01T11:05:41Z</time>
      </trkpt>
      <trkpt lat="47.05832" lon="5.56685">
        <ele>221.72</ele>
        <time>2016-06-01T11:05:55Z</time>
      </trkpt>
      <trkpt lat="47.05831" lon="5.56701">
        <ele>215.47</ele>
        <time>2016-06-01T11:06:08Z</time>
      </trkpt>
      <trkpt lat="47.05834" lon="5.56715">
        <ele>211.63</ele>
        <time>2016-06-01T11:06:19Z</time>
      </trkpt>
      <trkpt lat="47.05832" lon="5.56729">
        <ele>207.3</ele>
        <time>2016-06-01T11:06:30Z</time>
      </trkpt>
      <trkpt lat="47.05833" lon="5.56731">
        <ele>206.82</ele>
        <time>2016-06-01T11:06:31Z</time>
      </trkpt>
      <trkpt lat="47.05837" lon="5.56756">
        <ele>204.42</ele>
        <time>2016-06-01T11:06:44Z</time>
      </trkpt>
      <trkpt lat="47.05842" lon="5.56775">
        <ele>210.67</ele>
        <time>2016-06-01T11:06:57Z</time>
      </trkpt>
      <trkpt lat="47.05842" lon="5.56781">
        <ele>211.63</ele>
        <time>2016-06-01T11:06:59Z</time>
      </trkpt>
      <trkpt lat="47.05845" lon="5.56793">
        <ele>214.51</ele>
        <time>2016-06-01T11:07:09Z</time>
      </trkpt>
      <trkpt lat="47.05843" lon="5.56799">
        <ele>213.55</ele>
        <time>2016-06-01T11:07:19Z</time>
      </trkpt>
      <trkpt lat="47.05838" lon="5.5682">
        <ele>209.22</ele>
        <time>2016-06-01T11:07:31Z</time>
      </trkpt>
      <trkpt lat="47.05827" lon="5.56837">
        <ele>202.98</ele>
        <time>2016-06-01T11:07:45Z</time>
      </trkpt>
      <trkpt lat="47.05821" lon="5.56857">
        <ele>202.01</ele>
        <time>2016-06-01T11:07:57Z</time>
      </trkpt>
      <trkpt lat="47.05816" lon="5.56871">
        <ele>201.53</ele>
        <time>2016-06-01T11:08:11Z</time>
      </trkpt>
      <trkpt lat="47.05816" lon="5.5688">
        <ele>204.42</ele>
        <time>2016-06-01T11:08:22Z</time>
      </trkpt>
      <trkpt lat="47.05808" lon="5.56897">
        <ele>205.38</ele>
        <time>2016-06-01T11:08:35Z</time>
      </trkpt>
      <trkpt lat="47.05803" lon="5.56911">
        <ele>208.26</ele>
        <time>2016-06-01T11:08:49Z</time>
      </trkpt>
      <trkpt lat="47.05792" lon="5.56926">
        <ele>208.26</ele>
        <time>2016-06-01T11:09:01Z</time>
      </trkpt>
      <trkpt lat="47.05788" lon="5.56947">
        <ele>211.15</ele>
        <time>2016-06-01T11:09:12Z</time>
      </trkpt>
      <trkpt lat="47.05787" lon="5.56948">
        <ele>211.15</ele>
        <time>2016-06-01T11:09:13Z</time>
      </trkpt>
      <trkpt lat="47.05781" lon="5.56961">
        <ele>209.7</ele>
        <time>2016-06-01T11:09:24Z</time>
      </trkpt>
      <trkpt lat="47.05777" lon="5.56975">
        <ele>212.11</ele>
        <time>2016-06-01T11:09:34Z</time>
      </trkpt>
      <trkpt lat="47.05776" lon="5.56979">
        <ele>212.11</ele>
        <time>2016-06-01T11:09:43Z</time>
      </trkpt>
      <trkpt lat="47.05766" lon="5.56992">
        <ele>214.03</ele>
        <time>2016-06-01T11:09:54Z</time>
      </trkpt>
      <trkpt lat="47.05763" lon="5.57005">
        <ele>217.88</ele>
        <time>2016-06-01T11:10:06Z</time>
      </trkpt>
      <trkpt lat="47.05763" lon="5.57011">
        <ele>222.68</ele>
        <time>2016-06-01T11:10:12Z</time>
      </trkpt>
      <trkpt lat="47.05758" lon="5.57025">
        <ele>227.97</ele>
        <time>2016-06-01T11:10:24Z</time>
      </trkpt>
      <trkpt lat="47.05757" lon="5.57029">
        <ele>230.37</ele>
        <time>2016-06-01T11:10:40Z</time>
      </trkpt>
      <trkpt lat="47.05761" lon="5.57023">
        <ele>232.78</ele>
        <time>2016-06-01T11:10:57Z</time>
      </trkpt>
      <trkpt lat="47.05762" lon="5.57018">
        <ele>234.7</ele>
        <time>2016-06-01T11:11:08Z</time>
      </trkpt>
      <trkpt lat="47.05763" lon="5.57019">
        <ele>237.1</ele>
        <time>2016-06-01T11:11:37Z</time>
      </trkpt>
      <trkpt lat="47.05764" lon="5.5702">
        <ele>236.62</ele>
        <time>2016-06-01T11:12:02Z</time>
      </trkpt>
      <trkpt lat="47.05764" lon="5.5702">
        <ele>237.58</ele>
        <time>2016-06-01T11:12:20Z</time>
      </trkpt>
      <trkpt lat="47.05762" lon="5.57028">
        <ele>239.02</ele>
        <time>2016-06-01T11:12:32Z</time>
      </trkpt>
      <trkpt lat="47.05751" lon="5.57043">
        <ele>237.58</ele>
        <time>2016-06-01T11:12:43Z</time>
      </trkpt>
      <trkpt lat="47.05743" lon="5.57056">
        <ele>235.18</ele>
        <time>2016-06-01T11:12:54Z</time>
      </trkpt>
      <trkpt lat="47.05735" lon="5.57073">
        <ele>235.18</ele>
        <time>2016-06-01T11:13:06Z</time>
      </trkpt>
      <trkpt lat="47.05721" lon="5.5709">
        <ele>234.22</ele>
        <time>2016-06-01T11:13:21Z</time>
      </trkpt>
      <trkpt lat="47.05716" lon="5.57099">
        <ele>234.7</ele>
        <time>2016-06-01T11:13:28Z</time>
      </trkpt>
      <trkpt lat="47.0571" lon="5.57108">
        <ele>236.14</ele>
        <time>2016-06-01T11:13:36Z</time>
      </trkpt>
      <trkpt lat="47.05701" lon="5.57117">
        <ele>233.26</ele>
        <time>2016-06-01T11:13:48Z</time>
      </trkpt>
      <trkpt lat="47.05692" lon="5.5713">
        <ele>228.93</ele>
        <time>2016-06-01T11:13:59Z</time>
      </trkpt>
      <trkpt lat="47.05682" lon="5.57152">
        <ele>224.12</ele>
        <time>2016-06-01T11:14:13Z</time>
      </trkpt>
      <trkpt lat="47.05681" lon="5.57153">
        <ele>221.72</ele>
        <time>2016-06-01T11:14:16Z</time>
      </trkpt>
      <trkpt lat="47.05677" lon="5.57169">
        <ele>217.88</ele>
        <time>2016-06-01T11:14:29Z</time>
      </trkpt>
      <trkpt lat="47.05674" lon="5.57188">
        <ele>226.05</ele>
        <time>2016-06-01T11:14:41Z</time>
      </trkpt>
      <trkpt lat="47.05672" lon="5.57209">
        <ele>233.26</ele>
        <time>2016-06-01T11:14:54Z</time>
      </trkpt>
      <trkpt lat="47.0567" lon="5.57222">
        <ele>233.74</ele>
        <time>2016-06-01T11:15:06Z</time>
      </trkpt>
      <trkpt lat="47.05669" lon="5.57225">
        <ele>233.74</ele>
        <time>2016-06-01T11:15:10Z</time>
      </trkpt>
      <trkpt lat="47.05666" lon="5.57253">
        <ele>236.14</ele>
        <time>2016-06-01T11:15:21Z</time>
      </trkpt>
      <trkpt lat="47.05666" lon="5.57277">
        <ele>239.02</ele>
        <time>2016-06-01T11:15:31Z</time>
      </trkpt>
      <trkpt lat="47.05666" lon="5.57295">
        <ele>239.99</ele>
        <time>2016-06-01T11:15:45Z</time>
      </trkpt>
      <trkpt lat="47.05664" lon="5.57305">
        <ele>242.87</ele>
        <time>2016-06-01T11:15:54Z</time>
      </trkpt>
      <trkpt lat="47.05661" lon="5.5731">
        <ele>244.79</ele>
        <time>2016-06-01T11:16:00Z</time>
      </trkpt>
      <trkpt lat="47.05655" lon="5.57318">
        <ele>245.27</ele>
        <time>2016-06-01T11:16:09Z</time>
      </trkpt>
      <trkpt lat="47.05642" lon="5.57325">
        <ele>245.75</ele>
        <time>2016-06-01T11:16:22Z</time>
      </trkpt>
      <trkpt lat="47.05631" lon="5.57334">
        <ele>245.27</ele>
        <time>2016-06-01T11:16:36Z</time>
      </trkpt>
      <trkpt lat="47.05632" lon="5.57334">
        <ele>243.35</ele>
        <time>2016-06-01T11:16:57Z</time>
      </trkpt>
      <trkpt lat="47.05633" lon="5.57335">
        <ele>243.35</ele>
        <time>2016-06-01T11:17:18Z</time>
      </trkpt>
      <trkpt lat="47.05626" lon="5.5734">
        <ele>244.31</ele>
        <time>2016-06-01T11:17:39Z</time>
      </trkpt>
      <trkpt lat="47.05619" lon="5.57345">
        <ele>243.35</ele>
        <time>2016-06-01T11:17:53Z</time>
      </trkpt>
      <trkpt lat="47.05607" lon="5.57351">
        <ele>245.75</ele>
        <time>2016-06-01T11:18:02Z</time>
      </trkpt>
      <trkpt lat="47.05596" lon="5.57353">
        <ele>246.72</ele>
        <time>2016-06-01T11:18:09Z</time>
      </trkpt>
      <trkpt lat="47.05586" lon="5.57355">
        <ele>240.95</ele>
        <time>2016-06-01T11:18:18Z</time>
      </trkpt>
      <trkpt lat="47.0557" lon="5.57365">
        <ele>240.47</ele>
        <time>2016-06-01T11:18:33Z</time>
      </trkpt>
      <trkpt lat="47.05557" lon="5.57378">
        <ele>243.83</ele>
        <time>2016-06-01T11:18:48Z</time>
      </trkpt>
      <trkpt lat="47.05546" lon="5.57384">
        <ele>243.35</ele>
        <time>2016-06-01T11:19:00Z</time>
      </trkpt>
      <trkpt lat="47.05529" lon="5.57393">
        <ele>240.47</ele>
        <time>2016-06-01T11:19:13Z</time>
      </trkpt>
      <trkpt lat="47.05515" lon="5.57402">
        <ele>237.58</ele>
        <time>2016-06-01T11:19:26Z</time>
      </trkpt>
      <trkpt lat="47.05501" lon="5.57411">
        <ele>233.74</ele>
        <time>2016-06-01T11:19:37Z</time>
      </trkpt>
      <trkpt lat="47.05492" lon="5.57415">
        <ele>235.18</ele>
        <time>2016-06-01T11:19:46Z</time>
      </trkpt>
      <trkpt lat="47.05483" lon="5.57421">
        <ele>237.1</ele>
        <time>2016-06-01T11:19:57Z</time>
      </trkpt>
      <trkpt lat="47.05481" lon="5.57422">
        <ele>238.06</ele>
        <time>2016-06-01T11:20:13Z</time>
      </trkpt>
      <trkpt lat="47.05468" lon="5.57429">
        <ele>235.18</ele>
        <time>2016-06-01T11:20:25Z</time>
      </trkpt>
      <trkpt lat="47.05456" lon="5.57435">
        <ele>237.1</ele>
        <time>2016-06-01T11:20:35Z</time>
      </trkpt>
      <trkpt lat="47.0544" lon="5.57441">
        <ele>238.06</ele>
        <time>2016-06-01T11:20:47Z</time>
      </trkpt>
      <trkpt lat="47.05436" lon="5.57445">
        <ele>237.58</ele>
        <time>2016-06-01T11:20:59Z</time>
      </trkpt>
      <trkpt lat="47.05428" lon="5.5745">
        <ele>237.58</ele>
        <time>2016-06-01T11:21:14Z</time>
      </trkpt>
      <trkpt lat="47.0542" lon="5.57454">
        <ele>237.58</ele>
        <time>2016-06-01T11:21:26Z</time>
      </trkpt>
      <trkpt lat="47.05415" lon="5.57456">
        <ele>238.54</ele>
        <time>2016-06-01T11:21:30Z</time>
      </trkpt>
      <trkpt lat="47.05407" lon="5.57463">
        <ele>237.58</ele>
        <time>2016-06-01T11:21:36Z</time>
      </trkpt>
      <trkpt lat="47.05401" lon="5.57467">
        <ele>237.1</ele>
        <time>2016-06-01T11:21:42Z</time>
      </trkpt>
      <trkpt lat="47.05384" lon="5.57476">
        <ele>235.66</ele>
        <time>2016-06-01T11:21:56Z</time>
      </trkpt>
      <trkpt lat="47.05368" lon="5.57486">
        <ele>232.3</ele>
        <time>2016-06-01T11:22:10Z</time>
      </trkpt>
      <trkpt lat="47.05353" lon="5.57491">
        <ele>232.78</ele>
        <time>2016-06-01T11:22:23Z</time>
      </trkpt>
      <trkpt lat="47.05344" lon="5.57495">
        <ele>233.26</ele>
        <time>2016-06-01T11:22:30Z</time>
      </trkpt>
      <trkpt lat="47.05326" lon="5.57511">
        <ele>232.3</ele>
        <time>2016-06-01T11:22:47Z</time>
      </trkpt>
      <trkpt lat="47.05311" lon="5.57522">
        <ele>233.74</ele>
        <time>2016-06-01T11:23:02Z</time>
      </trkpt>
      <trkpt lat="47.053" lon="5.57525">
        <ele>232.78</ele>
        <time>2016-06-01T11:23:12Z</time>
      </trkpt>
      <trkpt lat="47.05288" lon="5.57534">
        <ele>229.89</ele>
        <time>2016-06-01T11:23:24Z</time>
      </trkpt>
      <trkpt lat="47.05272" lon="5.57538">
        <ele>225.09</ele>
        <time>2016-06-01T11:23:37Z</time>
      </trkpt>
      <trkpt lat="47.05258" lon="5.57541">
        <ele>220.76</ele>
        <time>2016-06-01T11:23:49Z</time>
      </trkpt>
      <trkpt lat="47.05253" lon="5.57543">
        <ele>221.72</ele>
        <time>2016-06-01T11:23:52Z</time>
      </trkpt>
      <trkpt lat="47.05241" lon="5.57558">
        <ele>221.72</ele>
        <time>2016-06-01T11:24:06Z</time>
      </trkpt>
      <trkpt lat="47.05231" lon="5.57562">
        <ele>220.28</ele>
        <time>2016-06-01T11:24:16Z</time>
      </trkpt>
      <trkpt lat="47.05227" lon="5.57565">
        <ele>220.76</ele>
        <time>2016-06-01T11:24:21Z</time>
      </trkpt>
      <trkpt lat="47.05216" lon="5.57569">
        <ele>221.24</ele>
        <time>2016-06-01T11:24:30Z</time>
      </trkpt>
      <trkpt lat="47.05203" lon="5.57577">
        <ele>226.05</ele>
        <time>2016-06-01T11:24:42Z</time>
      </trkpt>
      <trkpt lat="47.05201" lon="5.57577">
        <ele>227.97</ele>
        <time>2016-06-01T11:24:44Z</time>
      </trkpt>
      <trkpt lat="47.05195" lon="5.5758">
        <ele>229.41</ele>
        <time>2016-06-01T11:24:50Z</time>
      </trkpt>
      <trkpt lat="47.05189" lon="5.57586">
        <ele>231.33</ele>
        <time>2016-06-01T11:24:57Z</time>
      </trkpt>
      <trkpt lat="47.05186" lon="5.57587">
        <ele>231.81</ele>
        <time>2016-06-01T11:25:00Z</time>
      </trkpt>
      <trkpt lat="47.05174" lon="5.57595">
        <ele>234.7</ele>
        <time>2016-06-01T11:25:12Z</time>
      </trkpt>
      <trkpt lat="47.05167" lon="5.57599">
        <ele>235.18</ele>
        <time>2016-06-01T11:25:22Z</time>
      </trkpt>
      <trkpt lat="47.05163" lon="5.576">
        <ele>233.74</ele>
        <time>2016-06-01T11:25:26Z</time>
      </trkpt>
      <trkpt lat="47.05151" lon="5.57609">
        <ele>233.26</ele>
        <time>2016-06-01T11:25:38Z</time>
      </trkpt>
      <trkpt lat="47.05139" lon="5.57621">
        <ele>232.78</ele>
        <time>2016-06-01T11:25:51Z</time>
      </trkpt>
      <trkpt lat="47.05127" lon="5.57628">
        <ele>228.93</ele>
        <time>2016-06-01T11:26:05Z</time>
      </trkpt>
      <trkpt lat="47.0513" lon="5.57642">
        <ele>231.33</ele>
        <time>2016-06-01T11:26:16Z</time>
      </trkpt>
      <trkpt lat="47.05132" lon="5.57654">
        <ele>233.26</ele>
        <time>2016-06-01T11:26:25Z</time>
      </trkpt>
      <trkpt lat="47.05136" lon="5.57672">
        <ele>236.14</ele>
        <time>2016-06-01T11:26:40Z</time>
      </trkpt>
      <trkpt lat="47.05139" lon="5.57691">
        <ele>235.18</ele>
        <time>2016-06-01T11:26:52Z</time>
      </trkpt>
      <trkpt lat="47.05144" lon="5.57704">
        <ele>232.78</ele>
        <time>2016-06-01T11:27:04Z</time>
      </trkpt>
      <trkpt lat="47.05148" lon="5.57715">
        <ele>230.37</ele>
        <time>2016-06-01T11:27:15Z</time>
      </trkpt>
      <trkpt lat="47.0515" lon="5.57724">
        <ele>228.45</ele>
        <time>2016-06-01T11:27:21Z</time>
      </trkpt>
      <trkpt lat="47.05153" lon="5.57737">
        <ele>227.49</ele>
        <time>2016-06-01T11:27:31Z</time>
      </trkpt>
      <trkpt lat="47.05156" lon="5.5775">
        <ele>227.49</ele>
        <time>2016-06-01T11:27:42Z</time>
      </trkpt>
      <trkpt lat="47.05161" lon="5.57764">
        <ele>232.3</ele>
        <time>2016-06-01T11:27:55Z</time>
      </trkpt>
      <trkpt lat="47.0517" lon="5.57774">
        <ele>235.18</ele>
        <time>2016-06-01T11:28:06Z</time>
      </trkpt>
      <trkpt lat="47.05172" lon="5.57783">
        <ele>236.62</ele>
        <time>2016-06-01T11:28:14Z</time>
      </trkpt>
      <trkpt lat="47.0517" lon="5.57799">
        <ele>233.26</ele>
        <time>2016-06-01T11:28:27Z</time>
      </trkpt>
      <trkpt lat="47.05173" lon="5.57813">
        <ele>231.81</ele>
        <time>2016-06-01T11:28:39Z</time>
      </trkpt>
      <trkpt lat="47.05175" lon="5.5783">
        <ele>233.26</ele>
        <time>2016-06-01T11:28:48Z</time>
      </trkpt>
      <trkpt lat="47.05176" lon="5.57844">
        <ele>233.26</ele>
        <time>2016-06-01T11:28:59Z</time>
      </trkpt>
      <trkpt lat="47.05182" lon="5.57859">
        <ele>235.66</ele>
        <time>2016-06-01T11:29:11Z</time>
      </trkpt>
      <trkpt lat="47.05187" lon="5.57873">
        <ele>239.51</ele>
        <time>2016-06-01T11:29:24Z</time>
      </trkpt>
      <trkpt lat="47.05188" lon="5.5788">
        <ele>239.99</ele>
        <time>2016-06-01T11:29:30Z</time>
      </trkpt>
      <trkpt lat="47.05193" lon="5.57903">
        <ele>243.35</ele>
        <time>2016-06-01T11:29:43Z</time>
      </trkpt>
      <trkpt lat="47.052" lon="5.57925">
        <ele>242.87</ele>
        <time>2016-06-01T11:29:55Z</time>
      </trkpt>
      <trkpt lat="47.05202" lon="5.57934">
        <ele>242.39</ele>
        <time>2016-06-01T11:30:06Z</time>
      </trkpt>
      <trkpt lat="47.05203" lon="5.57949">
        <ele>240.47</ele>
        <time>2016-06-01T11:30:17Z</time>
      </trkpt>
      <trkpt lat="47.05208" lon="5.57967">
        <ele>239.02</ele>
        <time>2016-06-01T11:30:29Z</time>
      </trkpt>
      <trkpt lat="47.05213" lon="5.57991">
        <ele>241.43</ele>
        <time>2016-06-01T11:30:43Z</time>
      </trkpt>
      <trkpt lat="47.05223" lon="5.58009">
        <ele>242.87</ele>
        <time>2016-06-01T11:30:57Z</time>
      </trkpt>
      <trkpt lat="47.05226" lon="5.58034">
        <ele>243.35</ele>
        <time>2016-06-01T11:31:11Z</time>
      </trkpt>
      <trkpt lat="47.05226" lon="5.5804">
        <ele>242.87</ele>
        <time>2016-06-01T11:31:15Z</time>
      </trkpt>
      <trkpt lat="47.05232" lon="5.58056">
        <ele>240.47</ele>
        <time>2016-06-01T11:31:28Z</time>
      </trkpt>
      <trkpt lat="47.05235" lon="5.58071">
        <ele>238.06</ele>
        <time>2016-06-01T11:31:38Z</time>
      </trkpt>
      <trkpt lat="47.0524" lon="5.58091">
        <ele>236.14</ele>
        <time>2016-06-01T11:31:50Z</time>
      </trkpt>
      <trkpt lat="47.05245" lon="5.58107">
        <ele>236.14</ele>
        <time>2016-06-01T11:32:01Z</time>
      </trkpt>
      <trkpt lat="47.05249" lon="5.58125">
        <ele>235.66</ele>
        <time>2016-06-01T11:32:13Z</time>
      </trkpt>
      <trkpt lat="47.0525" lon="5.58133">
        <ele>232.78</ele>
        <time>2016-06-01T11:32:19Z</time>
      </trkpt>
      <trkpt lat="47.05254" lon="5.58153">
        <ele>232.78</ele>
        <time>2016-06-01T11:32:32Z</time>
      </trkpt>
      <trkpt lat="47.05258" lon="5.5817">
        <ele>236.14</ele>
        <time>2016-06-01T11:32:45Z</time>
      </trkpt>
      <trkpt lat="47.05263" lon="5.58188">
        <ele>235.18</ele>
        <time>2016-06-01T11:32:57Z</time>
      </trkpt>
      <trkpt lat="47.05265" lon="5.582">
        <ele>235.66</ele>
        <time>2016-06-01T11:33:07Z</time>
      </trkpt>
      <trkpt lat="47.05269" lon="5.58213">
        <ele>232.3</ele>
        <time>2016-06-01T11:33:18Z</time>
      </trkpt>
      <trkpt lat="47.05273" lon="5.58226">
        <ele>231.81</ele>
        <time>2016-06-01T11:33:29Z</time>
      </trkpt>
      <trkpt lat="47.05275" lon="5.58243">
        <ele>228.93</ele>
        <time>2016-06-01T11:33:41Z</time>
      </trkpt>
      <trkpt lat="47.05276" lon="5.58249">
        <ele>228.93</ele>
        <time>2016-06-01T11:33:45Z</time>
      </trkpt>
      <trkpt lat="47.0528" lon="5.58265">
        <ele>229.89</ele>
        <time>2016-06-01T11:33:58Z</time>
      </trkpt>
      <trkpt lat="47.05283" lon="5.5828">
        <ele>228.93</ele>
        <time>2016-06-01T11:34:11Z</time>
      </trkpt>
      <trkpt lat="47.05289" lon="5.58299">
        <ele>228.45</ele>
        <time>2016-06-01T11:34:24Z</time>
      </trkpt>
      <trkpt lat="47.0529" lon="5.58311">
        <ele>226.05</ele>
        <time>2016-06-01T11:34:35Z</time>
      </trkpt>
      <trkpt lat="47.05291" lon="5.5832">
        <ele>223.16</ele>
        <time>2016-06-01T11:34:46Z</time>
      </trkpt>
      <trkpt lat="47.05294" lon="5.58334">
        <ele>222.68</ele>
        <time>2016-06-01T11:34:57Z</time>
      </trkpt>
      <trkpt lat="47.05297" lon="5.58346">
        <ele>224.61</ele>
        <time>2016-06-01T11:35:05Z</time>
      </trkpt>
      <trkpt lat="47.05304" lon="5.58363">
        <ele>227.49</ele>
        <time>2016-06-01T11:35:17Z</time>
      </trkpt>
      <trkpt lat="47.05308" lon="5.58376">
        <ele>226.53</ele>
        <time>2016-06-01T11:35:29Z</time>
      </trkpt>
      <trkpt lat="47.0531" lon="5.58391">
        <ele>226.53</ele>
        <time>2016-06-01T11:35:41Z</time>
      </trkpt>
      <trkpt lat="47.05311" lon="5.584">
        <ele>226.53</ele>
        <time>2016-06-01T11:35:47Z</time>
      </trkpt>
      <trkpt lat="47.05314" lon="5.58409">
        <ele>227.97</ele>
        <time>2016-06-01T11:35:54Z</time>
      </trkpt>
      <trkpt lat="47.05317" lon="5.58425">
        <ele>228.45</ele>
        <time>2016-06-01T11:36:07Z</time>
      </trkpt>
      <trkpt lat="47.05322" lon="5.58442">
        <ele>226.53</ele>
        <time>2016-06-01T11:36:20Z</time>
      </trkpt>
      <trkpt lat="47.05325" lon="5.5846">
        <ele>226.05</ele>
        <time>2016-06-01T11:36:33Z</time>
      </trkpt>
      <trkpt lat="47.05327" lon="5.58475">
        <ele>224.12</ele>
        <time>2016-06-01T11:36:45Z</time>
      </trkpt>
      <trkpt lat="47.05324" lon="5.58483">
        <ele>223.16</ele>
        <time>2016-06-01T11:36:52Z</time>
      </trkpt>
      <trkpt lat="47.05311" lon="5.58494">
        <ele>218.84</ele>
        <time>2016-06-01T11:37:06Z</time>
      </trkpt>
      <trkpt lat="47.053" lon="5.58501">
        <ele>220.28</ele>
        <time>2016-06-01T11:37:19Z</time>
      </trkpt>
      <trkpt lat="47.05288" lon="5.58509">
        <ele>223.64</ele>
        <time>2016-06-01T11:37:32Z</time>
      </trkpt>
      <trkpt lat="47.05278" lon="5.58514">
        <ele>225.57</ele>
        <time>2016-06-01T11:37:41Z</time>
      </trkpt>
      <trkpt lat="47.05264" lon="5.58523">
        <ele>227.97</ele>
        <time>2016-06-01T11:37:55Z</time>
      </trkpt>
      <trkpt lat="47.05253" lon="5.58525">
        <ele>227.97</ele>
        <time>2016-06-01T11:38:07Z</time>
      </trkpt>
      <trkpt lat="47.05244" lon="5.58526">
        <ele>228.45</ele>
        <time>2016-06-01T11:38:21Z</time>
      </trkpt>
      <trkpt lat="47.05229" lon="5.58531">
        <ele>228.45</ele>
        <time>2016-06-01T11:38:34Z</time>
      </trkpt>
      <trkpt lat="47.05217" lon="5.58544">
        <ele>222.2</ele>
        <time>2016-06-01T11:38:46Z</time>
      </trkpt>
      <trkpt lat="47.05207" lon="5.5856">
        <ele>219.8</ele>
        <time>2016-06-01T11:38:58Z</time>
      </trkpt>
      <trkpt lat="47.05206" lon="5.58564">
        <ele>220.28</ele>
        <time>2016-06-01T11:39:00Z</time>
      </trkpt>
      <trkpt lat="47.05203" lon="5.58575">
        <ele>221.24</ele>
        <time>2016-06-01T11:39:12Z</time>
      </trkpt>
      <trkpt lat="47.05197" lon="5.58602">
        <ele>224.12</ele>
        <time>2016-06-01T11:39:26Z</time>
      </trkpt>
      <trkpt lat="47.05194" lon="5.58616">
        <ele>226.05</ele>
        <time>2016-06-01T11:39:38Z</time>
      </trkpt>
      <trkpt lat="47.05187" lon="5.58628">
        <ele>224.61</ele>
        <time>2016-06-01T11:39:48Z</time>
      </trkpt>
      <trkpt lat="47.05183" lon="5.5865">
        <ele>226.53</ele>
        <time>2016-06-01T11:40:03Z</time>
      </trkpt>
      <trkpt lat="47.05182" lon="5.58656">
        <ele>226.05</ele>
        <time>2016-06-01T11:40:07Z</time>
      </trkpt>
      <trkpt lat="47.05175" lon="5.58677">
        <ele>228.45</ele>
        <time>2016-06-01T11:40:22Z</time>
      </trkpt>
      <trkpt lat="47.0518" lon="5.58695">
        <ele>227.01</ele>
        <time>2016-06-01T11:40:35Z</time>
      </trkpt>
      <trkpt lat="47.0518" lon="5.58704">
        <ele>221.72</ele>
        <time>2016-06-01T11:40:50Z</time>
      </trkpt>
      <trkpt lat="47.05181" lon="5.58714">
        <ele>219.32</ele>
        <time>2016-06-01T11:41:02Z</time>
      </trkpt>
      <trkpt lat="47.05182" lon="5.58719">
        <ele>218.36</ele>
        <time>2016-06-01T11:41:07Z</time>
      </trkpt>
      <trkpt lat="47.05187" lon="5.58736">
        <ele>216.43</ele>
        <time>2016-06-01T11:41:18Z</time>
      </trkpt>
      <trkpt lat="47.05189" lon="5.58758">
        <ele>217.88</ele>
        <time>2016-06-01T11:41:31Z</time>
      </trkpt>
      <trkpt lat="47.05193" lon="5.58781">
        <ele>218.84</ele>
        <time>2016-06-01T11:41:44Z</time>
      </trkpt>
      <trkpt lat="47.05197" lon="5.58801">
        <ele>219.32</ele>
        <time>2016-06-01T11:41:57Z</time>
      </trkpt>
      <trkpt lat="47.05199" lon="5.58814">
        <ele>218.36</ele>
        <time>2016-06-01T11:42:04Z</time>
      </trkpt>
      <trkpt lat="47.05201" lon="5.58822">
        <ele>219.8</ele>
        <time>2016-06-01T11:42:08Z</time>
      </trkpt>
      <trkpt lat="47.05206" lon="5.58847">
        <ele>220.76</ele>
        <time>2016-06-01T11:42:24Z</time>
      </trkpt>
      <trkpt lat="47.05205" lon="5.58862">
        <ele>220.28</ele>
        <time>2016-06-01T11:42:38Z</time>
      </trkpt>
      <trkpt lat="47.05208" lon="5.58871">
        <ele>220.28</ele>
        <time>2016-06-01T11:42:52Z</time>
      </trkpt>
      <trkpt lat="47.05208" lon="5.58879">
        <ele>220.28</ele>
        <time>2016-06-01T11:43:04Z</time>
      </trkpt>
      <trkpt lat="47.05211" lon="5.58884">
        <ele>220.28</ele>
        <time>2016-06-01T11:43:16Z</time>
      </trkpt>
      <trkpt lat="47.05212" lon="5.58895">
        <ele>221.72</ele>
        <time>2016-06-01T11:43:29Z</time>
      </trkpt>
      <trkpt lat="47.05219" lon="5.58915">
        <ele>220.28</ele>
        <time>2016-06-01T11:43:43Z</time>
      </trkpt>
      <trkpt lat="47.05225" lon="5.58937">
        <ele>220.28</ele>
        <time>2016-06-01T11:43:58Z</time>
      </trkpt>
      <trkpt lat="47.05229" lon="5.58954">
        <ele>221.24</ele>
        <time>2016-06-01T11:44:11Z</time>
      </trkpt>
      <trkpt lat="47.05232" lon="5.58974">
        <ele>221.24</ele>
        <time>2016-06-01T11:44:24Z</time>
      </trkpt>
      <trkpt lat="47.05232" lon="5.58977">
        <ele>221.24</ele>
        <time>2016-06-01T11:44:26Z</time>
      </trkpt>
      <trkpt lat="47.05232" lon="5.5898">
        <ele>221.72</ele>
        <time>2016-06-01T11:44:28Z</time>
      </trkpt>
      <trkpt lat="47.05229" lon="5.59001">
        <ele>226.53</ele>
        <time>2016-06-01T11:44:40Z</time>
      </trkpt>
      <trkpt lat="47.05222" lon="5.59007">
        <ele>226.53</ele>
        <time>2016-06-01T11:44:54Z</time>
      </trkpt>
      <trkpt lat="47.05222" lon="5.59009">
        <ele>224.12</ele>
        <time>2016-06-01T11:45:11Z</time>
      </trkpt>
      <trkpt lat="47.05221" lon="5.59007">
        <ele>222.2</ele>
        <time>2016-06-01T11:45:31Z</time>
      </trkpt>
      <trkpt lat="47.05221" lon="5.59005">
        <ele>222.2</ele>
        <time>2016-06-01T11:45:46Z</time>
      </trkpt>
      <trkpt lat="47.0522" lon="5.59004">
        <ele>221.72</ele>
        <time>2016-06-01T11:46:03Z</time>
      </trkpt>
      <trkpt lat="47.05219" lon="5.59001">
        <ele>221.72</ele>
        <time>2016-06-01T11:46:15Z</time>
      </trkpt>
      <trkpt lat="47.05219" lon="5.58999">
        <ele>220.28</ele>
        <time>2016-06-01T11:46:29Z</time>
      </trkpt>
      <trkpt lat="47.0522" lon="5.59002">
        <ele>222.2</ele>
        <time>2016-06-01T11:46:52Z</time>
      </trkpt>
      <trkpt lat="47.0522" lon="5.59003">
        <ele>223.16</ele>
        <time>2016-06-01T11:47:08Z</time>
      </trkpt>
      <trkpt lat="47.05219" lon="5.59002">
        <ele>223.64</ele>
        <time>2016-06-01T11:47:21Z</time>
      </trkpt>
      <trkpt lat="47.0522" lon="5.59003">
        <ele>224.12</ele>
        <time>2016-06-01T11:47:42Z</time>
      </trkpt>
      <trkpt lat="47.05221" lon="5.59003">
        <ele>224.61</ele>
        <time>2016-06-01T11:47:56Z</time>
      </trkpt>
      <trkpt lat="47.05221" lon="5.59">
        <ele>223.64</ele>
        <time>2016-06-01T11:48:19Z</time>
      </trkpt>
      <trkpt lat="47.05222" lon="5.59003">
        <ele>223.16</ele>
        <time>2016-06-01T11:48:36Z</time>
      </trkpt>
      <trkpt lat="47.05224" lon="5.59003">
        <ele>224.12</ele>
        <time>2016-06-01T11:49:01Z</time>
      </trkpt>
      <trkpt lat="47.05226" lon="5.59005">
        <ele>224.61</ele>
        <time>2016-06-01T11:49:24Z</time>
      </trkpt>
      <trkpt lat="47.05228" lon="5.59017">
        <ele>228.93</ele>
        <time>2016-06-01T11:49:46Z</time>
      </trkpt>
      <trkpt lat="47.05233" lon="5.59018">
        <ele>230.37</ele>
        <time>2016-06-01T11:50:16Z</time>
      </trkpt>
      <trkpt lat="47.05229" lon="5.59019">
        <ele>230.85</ele>
        <time>2016-06-01T11:50:38Z</time>
      </trkpt>
      <trkpt lat="47.05226" lon="5.59017">
        <ele>231.81</ele>
        <time>2016-06-01T11:50:58Z</time>
      </trkpt>
      <trkpt lat="47.05223" lon="5.59017">
        <ele>232.78</ele>
        <time>2016-06-01T11:51:24Z</time>
      </trkpt>
      <trkpt lat="47.05221" lon="5.59018">
        <ele>233.74</ele>
        <time>2016-06-01T11:51:46Z</time>
      </trkpt>
      <trkpt lat="47.05219" lon="5.59012">
        <ele>235.66</ele>
        <time>2016-06-01T11:52:08Z</time>
      </trkpt>
      <trkpt lat="47.05218" lon="5.59009">
        <ele>236.62</ele>
        <time>2016-06-01T11:52:39Z</time>
      </trkpt>
      <trkpt lat="47.05217" lon="5.59011">
        <ele>236.62</ele>
        <time>2016-06-01T11:52:58Z</time>
      </trkpt>
      <trkpt lat="47.05213" lon="5.59004">
        <ele>235.18</ele>
        <time>2016-06-01T11:53:12Z</time>
      </trkpt>
      <trkpt lat="47.0521" lon="5.58996">
        <ele>233.26</ele>
        <time>2016-06-01T11:53:26Z</time>
      </trkpt>
      <trkpt lat="47.05209" lon="5.58992">
        <ele>230.85</ele>
        <time>2016-06-01T11:53:46Z</time>
      </trkpt>
      <trkpt lat="47.0521" lon="5.58993">
        <ele>229.89</ele>
        <time>2016-06-01T11:54:05Z</time>
      </trkpt>
      <trkpt lat="47.05216" lon="5.58996">
        <ele>227.01</ele>
        <time>2016-06-01T11:54:21Z</time>
      </trkpt>
      <trkpt lat="47.05222" lon="5.58997">
        <ele>225.09</ele>
        <time>2016-06-01T11:54:39Z</time>
      </trkpt>
      <trkpt lat="47.05223" lon="5.59003">
        <ele>224.61</ele>
        <time>2016-06-01T11:54:53Z</time>
      </trkpt>
      <trkpt lat="47.05217" lon="5.59007">
        <ele>226.05</ele>
        <time>2016-06-01T11:55:21Z</time>
      </trkpt>
      <trkpt lat="47.05217" lon="5.59009">
        <ele>227.01</ele>
        <time>2016-06-01T11:55:41Z</time>
      </trkpt>
      <trkpt lat="47.05217" lon="5.5901">
        <ele>227.01</ele>
        <time>2016-06-01T11:56:05Z</time>
      </trkpt>
      <trkpt lat="47.05218" lon="5.59011">
        <ele>227.49</ele>
        <time>2016-06-01T11:56:27Z</time>
      </trkpt>
      <trkpt lat="47.05219" lon="5.59012">
        <ele>227.49</ele>
        <time>2016-06-01T11:56:55Z</time>
      </trkpt>
      <trkpt lat="47.05219" lon="5.59012">
        <ele>228.45</ele>
        <time>2016-06-01T11:57:25Z</time>
      </trkpt>
      <trkpt lat="47.05219" lon="5.59012">
        <ele>228.93</ele>
        <time>2016-06-01T11:57:44Z</time>
      </trkpt>
      <trkpt lat="47.05217" lon="5.59011">
        <ele>231.33</ele>
        <time>2016-06-01T11:57:58Z</time>
      </trkpt>
      <trkpt lat="47.05215" lon="5.59012">
        <ele>231.81</ele>
        <time>2016-06-01T11:58:18Z</time>
      </trkpt>
      <trkpt lat="47.05214" lon="5.59013">
        <ele>233.74</ele>
        <time>2016-06-01T11:58:43Z</time>
      </trkpt>
      <trkpt lat="47.05213" lon="5.59013">
        <ele>233.74</ele>
        <time>2016-06-01T11:59:11Z</time>
      </trkpt>
      <trkpt lat="47.05213" lon="5.59014">
        <ele>233.74</ele>
        <time>2016-06-01T11:59:37Z</time>
      </trkpt>
      <trkpt lat="47.05213" lon="5.59014">
        <ele>234.22</ele>
        <time>2016-06-01T11:59:56Z</time>
      </trkpt>
      <trkpt lat="47.05213" lon="5.59014">
        <ele>234.22</ele>
        <time>2016-06-01T12:00:27Z</time>
      </trkpt>
      <trkpt lat="47.05214" lon="5.59014">
        <ele>234.22</ele>
        <time>2016-06-01T12:00:48Z</time>
      </trkpt>
      <trkpt lat="47.05214" lon="5.59014">
        <ele>234.22</ele>
        <time>2016-06-01T12:01:11Z</time>
      </trkpt>
      <trkpt lat="47.05215" lon="5.59015">
        <ele>234.7</ele>
        <time>2016-06-01T12:01:34Z</time>
      </trkpt>
      <trkpt lat="47.05215" lon="5.59015">
        <ele>234.7</ele>
        <time>2016-06-01T12:02:00Z</time>
      </trkpt>
      <trkpt lat="47.05216" lon="5.59016">
        <ele>235.66</ele>
        <time>2016-06-01T12:02:17Z</time>
      </trkpt>
      <trkpt lat="47.05217" lon="5.59012">
        <ele>234.7</ele>
        <time>2016-06-01T12:02:39Z</time>
      </trkpt>
      <trkpt lat="47.05218" lon="5.5901">
        <ele>233.74</ele>
        <time>2016-06-01T12:02:53Z</time>
      </trkpt>
      <trkpt lat="47.05219" lon="5.59007">
        <ele>232.78</ele>
        <time>2016-06-01T12:03:13Z</time>
      </trkpt>
      <trkpt lat="47.05219" lon="5.59005">
        <ele>231.81</ele>
        <time>2016-06-01T12:03:29Z</time>
      </trkpt>
      <trkpt lat="47.05219" lon="5.59004">
        <ele>230.85</ele>
        <time>2016-06-01T12:03:48Z</time>
      </trkpt>
      <trkpt lat="47.05218" lon="5.59002">
        <ele>230.85</ele>
        <time>2016-06-01T12:04:08Z</time>
      </trkpt>
      <trkpt lat="47.05219" lon="5.59002">
        <ele>230.37</ele>
        <time>2016-06-01T12:04:32Z</time>
      </trkpt>
      <trkpt lat="47.05222" lon="5.58998">
        <ele>231.81</ele>
        <time>2016-06-01T12:04:48Z</time>
      </trkpt>
      <trkpt lat="47.05231" lon="5.5899">
        <ele>233.26</ele>
        <time>2016-06-01T12:05:00Z</time>
      </trkpt>
      <trkpt lat="47.0523" lon="5.58979">
        <ele>230.85</ele>
        <time>2016-06-01T12:05:10Z</time>
      </trkpt>
      <trkpt lat="47.05229" lon="5.58968">
        <ele>229.89</ele>
        <time>2016-06-01T12:05:20Z</time>
      </trkpt>
      <trkpt lat="47.05226" lon="5.58951">
        <ele>228.93</ele>
        <time>2016-06-01T12:05:34Z</time>
      </trkpt>
      <trkpt lat="47.05222" lon="5.58928">
        <ele>227.97</ele>
        <time>2016-06-01T12:05:47Z</time>
      </trkpt>
      <trkpt lat="47.05219" lon="5.58908">
        <ele>222.2</ele>
        <time>2016-06-01T12:05:58Z</time>
      </trkpt>
      <trkpt lat="47.05213" lon="5.58892">
        <ele>218.36</ele>
        <time>2016-06-01T12:06:09Z</time>
      </trkpt>
      <trkpt lat="47.05206" lon="5.58875">
        <ele>215.95</ele>
        <time>2016-06-01T12:06:21Z</time>
      </trkpt>
      <trkpt lat="47.05194" lon="5.58882">
        <ele>212.11</ele>
        <time>2016-06-01T12:06:35Z</time>
      </trkpt>
      <trkpt lat="47.05177" lon="5.58892">
        <ele>210.19</ele>
        <time>2016-06-01T12:06:50Z</time>
      </trkpt>
      <trkpt lat="47.05164" lon="5.58901">
        <ele>207.3</ele>
        <time>2016-06-01T12:07:05Z</time>
      </trkpt>
      <trkpt lat="47.05151" lon="5.58907">
        <ele>207.3</ele>
        <time>2016-06-01T12:07:14Z</time>
      </trkpt>
      <trkpt lat="47.05136" lon="5.58918">
        <ele>210.67</ele>
        <time>2016-06-01T12:07:29Z</time>
      </trkpt>
      <trkpt lat="47.0512" lon="5.58927">
        <ele>211.15</ele>
        <time>2016-06-01T12:07:45Z</time>
      </trkpt>
      <trkpt lat="47.05109" lon="5.58934">
        <ele>210.19</ele>
        <time>2016-06-01T12:07:57Z</time>
      </trkpt>
      <trkpt lat="47.05096" lon="5.58925">
        <ele>210.19</ele>
        <time>2016-06-01T12:08:11Z</time>
      </trkpt>
      <trkpt lat="47.05088" lon="5.58922">
        <ele>211.63</ele>
        <time>2016-06-01T12:08:22Z</time>
      </trkpt>
      <trkpt lat="47.05089" lon="5.58922">
        <ele>212.59</ele>
        <time>2016-06-01T12:08:36Z</time>
      </trkpt>
      <trkpt lat="47.05089" lon="5.58923">
        <ele>213.55</ele>
        <time>2016-06-01T12:08:37Z</time>
      </trkpt>
      <trkpt lat="47.05096" lon="5.58933">
        <ele>215.95</ele>
        <time>2016-06-01T12:08:51Z</time>
      </trkpt>
      <trkpt lat="47.05089" lon="5.58948">
        <ele>217.4</ele>
        <time>2016-06-01T12:09:00Z</time>
      </trkpt>
      <trkpt lat="47.05077" lon="5.58961">
        <ele>220.76</ele>
        <time>2016-06-01T12:09:13Z</time>
      </trkpt>
      <trkpt lat="47.05071" lon="5.58969">
        <ele>218.36</ele>
        <time>2016-06-01T12:09:24Z</time>
      </trkpt>
      <trkpt lat="47.05063" lon="5.58973">
        <ele>214.03</ele>
        <time>2016-06-01T12:09:36Z</time>
      </trkpt>
      <trkpt lat="47.05048" lon="5.58979">
        <ele>208.74</ele>
        <time>2016-06-01T12:09:50Z</time>
      </trkpt>
      <trkpt lat="47.05047" lon="5.58979">
        <ele>208.74</ele>
        <time>2016-06-01T12:09:51Z</time>
      </trkpt>
      <trkpt lat="47.05034" lon="5.58981">
        <ele>206.34</ele>
        <time>2016-06-01T12:10:05Z</time>
      </trkpt>
      <trkpt lat="47.05017" lon="5.58987">
        <ele>205.38</ele>
        <time>2016-06-01T12:10:21Z</time>
      </trkpt>
      <trkpt lat="47.04998" lon="5.58995">
        <ele>210.19</ele>
        <time>2016-06-01T12:10:35Z</time>
      </trkpt>
      <trkpt lat="47.04987" lon="5.59006">
        <ele>208.26</ele>
        <time>2016-06-01T12:10:47Z</time>
      </trkpt>
      <trkpt lat="47.04982" lon="5.59013">
        <ele>207.3</ele>
        <time>2016-06-01T12:10:53Z</time>
      </trkpt>
      <trkpt lat="47.04981" lon="5.59032">
        <ele>207.78</ele>
        <time>2016-06-01T12:11:05Z</time>
      </trkpt>
      <trkpt lat="47.0498" lon="5.59044">
        <ele>209.22</ele>
        <time>2016-06-01T12:11:14Z</time>
      </trkpt>
      <trkpt lat="47.04974" lon="5.59059">
        <ele>210.19</ele>
        <time>2016-06-01T12:11:26Z</time>
      </trkpt>
      <trkpt lat="47.04974" lon="5.59076">
        <ele>207.3</ele>
        <time>2016-06-01T12:11:38Z</time>
      </trkpt>
      <trkpt lat="47.0497" lon="5.59098">
        <ele>206.82</ele>
        <time>2016-06-01T12:11:52Z</time>
      </trkpt>
      <trkpt lat="47.0497" lon="5.59112">
        <ele>204.42</ele>
        <time>2016-06-01T12:12:05Z</time>
      </trkpt>
      <trkpt lat="47.04968" lon="5.59132">
        <ele>202.49</ele>
        <time>2016-06-01T12:12:18Z</time>
      </trkpt>
      <trkpt lat="47.04967" lon="5.59152">
        <ele>202.49</ele>
        <time>2016-06-01T12:12:29Z</time>
      </trkpt>
      <trkpt lat="47.04961" lon="5.59167">
        <ele>202.49</ele>
        <time>2016-06-01T12:12:41Z</time>
      </trkpt>
      <trkpt lat="47.04949" lon="5.59188">
        <ele>205.38</ele>
        <time>2016-06-01T12:12:54Z</time>
      </trkpt>
      <trkpt lat="47.04948" lon="5.5919">
        <ele>205.86</ele>
        <time>2016-06-01T12:12:55Z</time>
      </trkpt>
      <trkpt lat="47.04943" lon="5.59194">
        <ele>207.78</ele>
        <time>2016-06-01T12:12:59Z</time>
      </trkpt>
      <trkpt lat="47.04936" lon="5.59208">
        <ele>211.15</ele>
        <time>2016-06-01T12:13:11Z</time>
      </trkpt>
      <trkpt lat="47.04923" lon="5.5922">
        <ele>214.03</ele>
        <time>2016-06-01T12:13:26Z</time>
      </trkpt>
      <trkpt lat="47.04906" lon="5.5922">
        <ele>215.95</ele>
        <time>2016-06-01T12:13:38Z</time>
      </trkpt>
      <trkpt lat="47.04895" lon="5.59223">
        <ele>222.2</ele>
        <time>2016-06-01T12:13:51Z</time>
      </trkpt>
      <trkpt lat="47.04886" lon="5.59224">
        <ele>227.49</ele>
        <time>2016-06-01T12:14:04Z</time>
      </trkpt>
      <trkpt lat="47.04896" lon="5.59227">
        <ele>228.45</ele>
        <time>2016-06-01T12:14:19Z</time>
      </trkpt>
      <trkpt lat="47.04897" lon="5.59227">
        <ele>228.93</ele>
        <time>2016-06-01T12:14:28Z</time>
      </trkpt>
      <trkpt lat="47.04893" lon="5.59229">
        <ele>228.45</ele>
        <time>2016-06-01T12:14:39Z</time>
      </trkpt>
      <trkpt lat="47.04892" lon="5.59231">
        <ele>227.97</ele>
        <time>2016-06-01T12:14:55Z</time>
      </trkpt>
      <trkpt lat="47.04889" lon="5.5924">
        <ele>227.49</ele>
        <time>2016-06-01T12:15:07Z</time>
      </trkpt>
      <trkpt lat="47.04886" lon="5.59252">
        <ele>226.05</ele>
        <time>2016-06-01T12:15:22Z</time>
      </trkpt>
      <trkpt lat="47.04885" lon="5.59255">
        <ele>223.64</ele>
        <time>2016-06-01T12:15:33Z</time>
      </trkpt>
      <trkpt lat="47.04886" lon="5.5926">
        <ele>222.2</ele>
        <time>2016-06-01T12:15:48Z</time>
      </trkpt>
      <trkpt lat="47.04886" lon="5.59276">
        <ele>223.16</ele>
        <time>2016-06-01T12:16:01Z</time>
      </trkpt>
      <trkpt lat="47.04883" lon="5.59294">
        <ele>224.12</ele>
        <time>2016-06-01T12:16:13Z</time>
      </trkpt>
      <trkpt lat="47.04881" lon="5.59307">
        <ele>221.24</ele>
        <time>2016-06-01T12:16:26Z</time>
      </trkpt>
      <trkpt lat="47.04876" lon="5.59331">
        <ele>219.32</ele>
        <time>2016-06-01T12:16:42Z</time>
      </trkpt>
      <trkpt lat="47.04871" lon="5.59353">
        <ele>221.24</ele>
        <time>2016-06-01T12:16:53Z</time>
      </trkpt>
      <trkpt lat="47.04869" lon="5.59364">
        <ele>219.32</ele>
        <time>2016-06-01T12:17:07Z</time>
      </trkpt>
      <trkpt lat="47.04866" lon="5.59373">
        <ele>216.91</ele>
        <time>2016-06-01T12:17:19Z</time>
      </trkpt>
      <trkpt lat="47.04864" lon="5.59382">
        <ele>216.43</ele>
        <time>2016-06-01T12:17:32Z</time>
      </trkpt>
      <trkpt lat="47.04858" lon="5.59393">
        <ele>213.55</ele>
        <time>2016-06-01T12:17:46Z</time>
      </trkpt>
      <trkpt lat="47.04853" lon="5.59402">
        <ele>213.55</ele>
        <time>2016-06-01T12:18:01Z</time>
      </trkpt>
      <trkpt lat="47.04851" lon="5.59408">
        <ele>212.59</ele>
        <time>2016-06-01T12:18:12Z</time>
      </trkpt>
      <trkpt lat="47.0484" lon="5.5942">
        <ele>210.19</ele>
        <time>2016-06-01T12:18:24Z</time>
      </trkpt>
      <trkpt lat="47.04834" lon="5.59434">
        <ele>210.19</ele>
        <time>2016-06-01T12:18:36Z</time>
      </trkpt>
      <trkpt lat="47.04825" lon="5.59452">
        <ele>210.19</ele>
        <time>2016-06-01T12:18:47Z</time>
      </trkpt>
      <trkpt lat="47.04806" lon="5.59489">
        <ele>211.15</ele>
        <time>2016-06-01T12:19:02Z</time>
      </trkpt>
      <trkpt lat="47.04793" lon="5.59511">
        <ele>210.67</ele>
        <time>2016-06-01T12:19:15Z</time>
      </trkpt>
      <trkpt lat="47.04781" lon="5.59539">
        <ele>217.4</ele>
        <time>2016-06-01T12:19:27Z</time>
      </trkpt>
      <trkpt lat="47.04774" lon="5.59552">
        <ele>219.32</ele>
        <time>2016-06-01T12:19:38Z</time>
      </trkpt>
      <trkpt lat="47.0477" lon="5.59561">
        <ele>216.91</ele>
        <time>2016-06-01T12:19:50Z</time>
      </trkpt>
      <trkpt lat="47.04766" lon="5.59577">
        <ele>214.99</ele>
        <time>2016-06-01T12:20:02Z</time>
      </trkpt>
      <trkpt lat="47.04758" lon="5.59598">
        <ele>215.47</ele>
        <time>2016-06-01T12:20:14Z</time>
      </trkpt>
      <trkpt lat="47.0475" lon="5.59615">
        <ele>214.51</ele>
        <time>2016-06-01T12:20:26Z</time>
      </trkpt>
      <trkpt lat="47.04737" lon="5.59627">
        <ele>214.51</ele>
        <time>2016-06-01T12:20:39Z</time>
      </trkpt>
      <trkpt lat="47.04728" lon="5.59633">
        <ele>213.07</ele>
        <time>2016-06-01T12:20:53Z</time>
      </trkpt>
      <trkpt lat="47.04718" lon="5.59645">
        <ele>209.7</ele>
        <time>2016-06-01T12:21:06Z</time>
      </trkpt>
      <trkpt lat="47.04713" lon="5.59652">
        <ele>205.86</ele>
        <time>2016-06-01T12:21:20Z</time>
      </trkpt>
      <trkpt lat="47.04705" lon="5.59662">
        <ele>205.38</ele>
        <time>2016-06-01T12:21:34Z</time>
      </trkpt>
      <trkpt lat="47.047" lon="5.59667">
        <ele>203.46</ele>
        <time>2016-06-01T12:21:47Z</time>
      </trkpt>
      <trkpt lat="47.04689" lon="5.59683">
        <ele>202.01</ele>
        <time>2016-06-01T12:22:02Z</time>
      </trkpt>
      <trkpt lat="47.04685" lon="5.59692">
        <ele>205.86</ele>
        <time>2016-06-01T12:22:17Z</time>
      </trkpt>
      <trkpt lat="47.04684" lon="5.59699">
        <ele>208.74</ele>
        <time>2016-06-01T12:22:30Z</time>
      </trkpt>
      <trkpt lat="47.04684" lon="5.59704">
        <ele>214.03</ele>
        <time>2016-06-01T12:22:47Z</time>
      </trkpt>
      <trkpt lat="47.04683" lon="5.59708">
        <ele>217.4</ele>
        <time>2016-06-01T12:23:03Z</time>
      </trkpt>
      <trkpt lat="47.04683" lon="5.59706">
        <ele>218.84</ele>
        <time>2016-06-01T12:23:20Z</time>
      </trkpt>
      <trkpt lat="47.04682" lon="5.59707">
        <ele>219.32</ele>
        <time>2016-06-01T12:23:37Z</time>
      </trkpt>
      <trkpt lat="47.04681" lon="5.59708">
        <ele>219.8</ele>
        <time>2016-06-01T12:23:51Z</time>
      </trkpt>
      <trkpt lat="47.0468" lon="5.59709">
        <ele>220.76</ele>
        <time>2016-06-01T12:24:06Z</time>
      </trkpt>
      <trkpt lat="47.04678" lon="5.59712">
        <ele>220.76</ele>
        <time>2016-06-01T12:24:18Z</time>
      </trkpt>
      <trkpt lat="47.04672" lon="5.59724">
        <ele>218.84</ele>
        <time>2016-06-01T12:24:33Z</time>
      </trkpt>
      <trkpt lat="47.04671" lon="5.59728">
        <ele>218.84</ele>
        <time>2016-06-01T12:24:56Z</time>
      </trkpt>
      <trkpt lat="47.04672" lon="5.5973">
        <ele>219.32</ele>
        <time>2016-06-01T12:25:20Z</time>
      </trkpt>
      <trkpt lat="47.04665" lon="5.59741">
        <ele>218.84</ele>
        <time>2016-06-01T12:25:33Z</time>
      </trkpt>
      <trkpt lat="47.04661" lon="5.59754">
        <ele>218.84</ele>
        <time>2016-06-01T12:25:44Z</time>
      </trkpt>
      <trkpt lat="47.04653" lon="5.5977">
        <ele>215.95</ele>
        <time>2016-06-01T12:25:56Z</time>
      </trkpt>
      <trkpt lat="47.04644" lon="5.59783">
        <ele>214.99</ele>
        <time>2016-06-01T12:26:11Z</time>
      </trkpt>
      <trkpt lat="47.04643" lon="5.59799">
        <ele>214.99</ele>
        <time>2016-06-01T12:26:27Z</time>
      </trkpt>
      <trkpt lat="47.04644" lon="5.5981">
        <ele>214.99</ele>
        <time>2016-06-01T12:26:43Z</time>
      </trkpt>
      <trkpt lat="47.04642" lon="5.59821">
        <ele>216.43</ele>
        <time>2016-06-01T12:26:59Z</time>
      </trkpt>
      <trkpt lat="47.04638" lon="5.5983">
        <ele>216.91</ele>
        <time>2016-06-01T12:27:12Z</time>
      </trkpt>
      <trkpt lat="47.04637" lon="5.59834">
        <ele>215.95</ele>
        <time>2016-06-01T12:27:31Z</time>
      </trkpt>
      <trkpt lat="47.04635" lon="5.59837">
        <ele>216.91</ele>
        <time>2016-06-01T12:27:51Z</time>
      </trkpt>
      <trkpt lat="47.04633" lon="5.59851">
        <ele>219.32</ele>
        <time>2016-06-01T12:28:03Z</time>
      </trkpt>
      <trkpt lat="47.04633" lon="5.59866">
        <ele>220.76</ele>
        <time>2016-06-01T12:28:15Z</time>
      </trkpt>
      <trkpt lat="47.04628" lon="5.59885">
        <ele>222.2</ele>
        <time>2016-06-01T12:28:27Z</time>
      </trkpt>
      <trkpt lat="47.04623" lon="5.59896">
        <ele>224.12</ele>
        <time>2016-06-01T12:28:40Z</time>
      </trkpt>
      <trkpt lat="47.04617" lon="5.59909">
        <ele>224.61</ele>
        <time>2016-06-01T12:28:51Z</time>
      </trkpt>
      <trkpt lat="47.04616" lon="5.59914">
        <ele>224.61</ele>
        <time>2016-06-01T12:29:00Z</time>
      </trkpt>
      <trkpt lat="47.04613" lon="5.59932">
        <ele>225.57</ele>
        <time>2016-06-01T12:29:10Z</time>
      </trkpt>
      <trkpt lat="47.0461" lon="5.59944">
        <ele>224.12</ele>
        <time>2016-06-01T12:29:21Z</time>
      </trkpt>
      <trkpt lat="47.04602" lon="5.59961">
        <ele>221.24</ele>
        <time>2016-06-01T12:29:34Z</time>
      </trkpt>
      <trkpt lat="47.04593" lon="5.59973">
        <ele>221.24</ele>
        <time>2016-06-01T12:29:45Z</time>
      </trkpt>
      <trkpt lat="47.04586" lon="5.59986">
        <ele>221.72</ele>
        <time>2016-06-01T12:29:58Z</time>
      </trkpt>
      <trkpt lat="47.04582" lon="5.6">
        <ele>223.16</ele>
        <time>2016-06-01T12:30:08Z</time>
      </trkpt>
      <trkpt lat="47.04582" lon="5.60002">
        <ele>223.64</ele>
        <time>2016-06-01T12:30:09Z</time>
      </trkpt>
      <trkpt lat="47.04577" lon="5.60026">
        <ele>220.28</ele>
        <time>2016-06-01T12:30:23Z</time>
      </trkpt>
      <trkpt lat="47.04567" lon="5.60046">
        <ele>224.12</ele>
        <time>2016-06-01T12:30:36Z</time>
      </trkpt>
      <trkpt lat="47.04565" lon="5.60063">
        <ele>225.57</ele>
        <time>2016-06-01T12:30:50Z</time>
      </trkpt>
      <trkpt lat="47.04564" lon="5.60079">
        <ele>228.45</ele>
        <time>2016-06-01T12:31:00Z</time>
      </trkpt>
      <trkpt lat="47.04561" lon="5.60097">
        <ele>229.41</ele>
        <time>2016-06-01T12:31:13Z</time>
      </trkpt>
      <trkpt lat="47.04562" lon="5.60114">
        <ele>230.85</ele>
        <time>2016-06-01T12:31:26Z</time>
      </trkpt>
      <trkpt lat="47.04564" lon="5.60123">
        <ele>231.81</ele>
        <time>2016-06-01T12:31:32Z</time>
      </trkpt>
      <trkpt lat="47.04568" lon="5.60142">
        <ele>227.01</ele>
        <time>2016-06-01T12:31:44Z</time>
      </trkpt>
      <trkpt lat="47.04569" lon="5.60155">
        <ele>225.57</ele>
        <time>2016-06-01T12:31:56Z</time>
      </trkpt>
      <trkpt lat="47.04565" lon="5.60168">
        <ele>225.57</ele>
        <time>2016-06-01T12:32:07Z</time>
      </trkpt>
      <trkpt lat="47.04562" lon="5.6019">
        <ele>227.97</ele>
        <time>2016-06-01T12:32:22Z</time>
      </trkpt>
      <trkpt lat="47.04561" lon="5.60205">
        <ele>232.3</ele>
        <time>2016-06-01T12:32:35Z</time>
      </trkpt>
      <trkpt lat="47.04561" lon="5.60216">
        <ele>231.33</ele>
        <time>2016-06-01T12:32:45Z</time>
      </trkpt>
      <trkpt lat="47.0456" lon="5.6024">
        <ele>225.57</ele>
        <time>2016-06-01T12:32:59Z</time>
      </trkpt>
      <trkpt lat="47.04558" lon="5.6026">
        <ele>226.53</ele>
        <time>2016-06-01T12:33:10Z</time>
      </trkpt>
      <trkpt lat="47.04551" lon="5.60275">
        <ele>224.61</ele>
        <time>2016-06-01T12:33:22Z</time>
      </trkpt>
      <trkpt lat="47.04546" lon="5.60291">
        <ele>220.28</ele>
        <time>2016-06-01T12:33:35Z</time>
      </trkpt>
      <trkpt lat="47.04547" lon="5.60306">
        <ele>219.8</ele>
        <time>2016-06-01T12:33:46Z</time>
      </trkpt>
      <trkpt lat="47.04545" lon="5.60332">
        <ele>222.2</ele>
        <time>2016-06-01T12:33:59Z</time>
      </trkpt>
      <trkpt lat="47.04544" lon="5.60343">
        <ele>223.16</ele>
        <time>2016-06-01T12:34:11Z</time>
      </trkpt>
      <trkpt lat="47.04546" lon="5.60361">
        <ele>225.57</ele>
        <time>2016-06-01T12:34:22Z</time>
      </trkpt>
      <trkpt lat="47.04551" lon="5.60383">
        <ele>228.93</ele>
        <time>2016-06-01T12:34:33Z</time>
      </trkpt>
      <trkpt lat="47.04556" lon="5.604">
        <ele>227.49</ele>
        <time>2016-06-01T12:34:44Z</time>
      </trkpt>
      <trkpt lat="47.0456" lon="5.60415">
        <ele>227.97</ele>
        <time>2016-06-01T12:34:55Z</time>
      </trkpt>
      <trkpt lat="47.04562" lon="5.60428">
        <ele>226.05</ele>
        <time>2016-06-01T12:35:04Z</time>
      </trkpt>
      <trkpt lat="47.04565" lon="5.60439">
        <ele>221.24</ele>
        <time>2016-06-01T12:35:13Z</time>
      </trkpt>
      <trkpt lat="47.04571" lon="5.60452">
        <ele>221.72</ele>
        <time>2016-06-01T12:35:23Z</time>
      </trkpt>
      <trkpt lat="47.04571" lon="5.60456">
        <ele>221.72</ele>
        <time>2016-06-01T12:35:25Z</time>
      </trkpt>
      <trkpt lat="47.04573" lon="5.60476">
        <ele>224.12</ele>
        <time>2016-06-01T12:35:37Z</time>
      </trkpt>
      <trkpt lat="47.04577" lon="5.605">
        <ele>227.49</ele>
        <time>2016-06-01T12:35:50Z</time>
      </trkpt>
      <trkpt lat="47.04578" lon="5.60504">
        <ele>227.97</ele>
        <time>2016-06-01T12:35:52Z</time>
      </trkpt>
      <trkpt lat="47.04579" lon="5.60521">
        <ele>229.89</ele>
        <time>2016-06-01T12:36:02Z</time>
      </trkpt>
      <trkpt lat="47.04582" lon="5.60532">
        <ele>231.81</ele>
        <time>2016-06-01T12:36:17Z</time>
      </trkpt>
      <trkpt lat="47.04592" lon="5.60537">
        <ele>230.85</ele>
        <time>2016-06-01T12:36:29Z</time>
      </trkpt>
      <trkpt lat="47.04595" lon="5.60537">
        <ele>230.85</ele>
        <time>2016-06-01T12:36:44Z</time>
      </trkpt>
      <trkpt lat="47.04599" lon="5.6055">
        <ele>230.37</ele>
        <time>2016-06-01T12:36:56Z</time>
      </trkpt>
      <trkpt lat="47.04608" lon="5.60567">
        <ele>228.45</ele>
        <time>2016-06-01T12:37:10Z</time>
      </trkpt>
      <trkpt lat="47.04615" lon="5.60577">
        <ele>227.97</ele>
        <time>2016-06-01T12:37:21Z</time>
      </trkpt>
      <trkpt lat="47.04621" lon="5.60588">
        <ele>227.01</ele>
        <time>2016-06-01T12:37:31Z</time>
      </trkpt>
      <trkpt lat="47.04625" lon="5.60597">
        <ele>228.45</ele>
        <time>2016-06-01T12:37:39Z</time>
      </trkpt>
      <trkpt lat="47.04631" lon="5.60609">
        <ele>226.05</ele>
        <time>2016-06-01T12:37:49Z</time>
      </trkpt>
      <trkpt lat="47.04637" lon="5.60618">
        <ele>225.57</ele>
        <time>2016-06-01T12:37:59Z</time>
      </trkpt>
      <trkpt lat="47.04646" lon="5.60624">
        <ele>225.57</ele>
        <time>2016-06-01T12:38:09Z</time>
      </trkpt>
      <trkpt lat="47.04654" lon="5.6064">
        <ele>227.97</ele>
        <time>2016-06-01T12:38:20Z</time>
      </trkpt>
      <trkpt lat="47.0466" lon="5.60652">
        <ele>228.45</ele>
        <time>2016-06-01T12:38:33Z</time>
      </trkpt>
      <trkpt lat="47.04664" lon="5.60658">
        <ele>228.45</ele>
        <time>2016-06-01T12:38:39Z</time>
      </trkpt>
      <trkpt lat="47.04668" lon="5.60664">
        <ele>228.93</ele>
        <time>2016-06-01T12:38:43Z</time>
      </trkpt>
      <trkpt lat="47.0467" lon="5.60668">
        <ele>228.93</ele>
        <time>2016-06-01T12:38:45Z</time>
      </trkpt>
      <trkpt lat="47.04671" lon="5.60673">
        <ele>229.41</ele>
        <time>2016-06-01T12:38:47Z</time>
      </trkpt>
      <trkpt lat="47.04674" lon="5.60692">
        <ele>234.22</ele>
        <time>2016-06-01T12:38:57Z</time>
      </trkpt>
      <trkpt lat="47.04675" lon="5.607">
        <ele>235.66</ele>
        <time>2016-06-01T12:39:03Z</time>
      </trkpt>
      <trkpt lat="47.04685" lon="5.60716">
        <ele>236.14</ele>
        <time>2016-06-01T12:39:16Z</time>
      </trkpt>
      <trkpt lat="47.04691" lon="5.60734">
        <ele>232.3</ele>
        <time>2016-06-01T12:39:32Z</time>
      </trkpt>
      <trkpt lat="47.04687" lon="5.60755">
        <ele>227.01</ele>
        <time>2016-06-01T12:39:46Z</time>
      </trkpt>
      <trkpt lat="47.04684" lon="5.60771">
        <ele>225.09</ele>
        <time>2016-06-01T12:39:56Z</time>
      </trkpt>
      <trkpt lat="47.04682" lon="5.60788">
        <ele>222.2</ele>
        <time>2016-06-01T12:40:07Z</time>
      </trkpt>
      <trkpt lat="47.04676" lon="5.60804">
        <ele>223.16</ele>
        <time>2016-06-01T12:40:19Z</time>
      </trkpt>
      <trkpt lat="47.04668" lon="5.60821">
        <ele>225.09</ele>
        <time>2016-06-01T12:40:34Z</time>
      </trkpt>
      <trkpt lat="47.04661" lon="5.60832">
        <ele>226.05</ele>
        <time>2016-06-01T12:40:44Z</time>
      </trkpt>
      <trkpt lat="47.04654" lon="5.60844">
        <ele>228.45</ele>
        <time>2016-06-01T12:40:56Z</time>
      </trkpt>
      <trkpt lat="47.0465" lon="5.60859">
        <ele>229.41</ele>
        <time>2016-06-01T12:41:07Z</time>
      </trkpt>
      <trkpt lat="47.04644" lon="5.60875">
        <ele>227.49</ele>
        <time>2016-06-01T12:41:19Z</time>
      </trkpt>
      <trkpt lat="47.04638" lon="5.60889">
        <ele>227.01</ele>
        <time>2016-06-01T12:41:30Z</time>
      </trkpt>
      <trkpt lat="47.04627" lon="5.60908">
        <ele>227.01</ele>
        <time>2016-06-01T12:41:43Z</time>
      </trkpt>
      <trkpt lat="47.04618" lon="5.60927">
        <ele>228.45</ele>
        <time>2016-06-01T12:41:55Z</time>
      </trkpt>
      <trkpt lat="47.04615" lon="5.60943">
        <ele>228.93</ele>
        <time>2016-06-01T12:42:08Z</time>
      </trkpt>
      <trkpt lat="47.04615" lon="5.60946">
        <ele>229.41</ele>
        <time>2016-06-01T12:42:09Z</time>
      </trkpt>
      <trkpt lat="47.04609" lon="5.60964">
        <ele>231.81</ele>
        <time>2016-06-01T12:42:21Z</time>
      </trkpt>
      <trkpt lat="47.04603" lon="5.60979">
        <ele>234.7</ele>
        <time>2016-06-01T12:42:32Z</time>
      </trkpt>
      <trkpt lat="47.04601" lon="5.60996">
        <ele>235.66</ele>
        <time>2016-06-01T12:42:44Z</time>
      </trkpt>
      <trkpt lat="47.04599" lon="5.61009">
        <ele>237.1</ele>
        <time>2016-06-01T12:42:55Z</time>
      </trkpt>
      <trkpt lat="47.04593" lon="5.61025">
        <ele>235.18</ele>
        <time>2016-06-01T12:43:05Z</time>
      </trkpt>
      <trkpt lat="47.0459" lon="5.61031">
        <ele>233.26</ele>
        <time>2016-06-01T12:43:18Z</time>
      </trkpt>
      <trkpt lat="47.04591" lon="5.61034">
        <ele>232.78</ele>
        <time>2016-06-01T12:43:38Z</time>
      </trkpt>
      <trkpt lat="47.04586" lon="5.61049">
        <ele>232.78</ele>
        <time>2016-06-01T12:43:50Z</time>
      </trkpt>
      <trkpt lat="47.04583" lon="5.61069">
        <ele>231.81</ele>
        <time>2016-06-01T12:44:02Z</time>
      </trkpt>
      <trkpt lat="47.04579" lon="5.61087">
        <ele>233.26</ele>
        <time>2016-06-01T12:44:14Z</time>
      </trkpt>
      <trkpt lat="47.04579" lon="5.61091">
        <ele>233.74</ele>
        <time>2016-06-01T12:44:16Z</time>
      </trkpt>
      <trkpt lat="47.04578" lon="5.6111">
        <ele>233.74</ele>
        <time>2016-06-01T12:44:26Z</time>
      </trkpt>
      <trkpt lat="47.04575" lon="5.61126">
        <ele>230.85</ele>
        <time>2016-06-01T12:44:37Z</time>
      </trkpt>
      <trkpt lat="47.04575" lon="5.61133">
        <ele>228.45</ele>
        <time>2016-06-01T12:44:44Z</time>
      </trkpt>
      <trkpt lat="47.04577" lon="5.61138">
        <ele>228.93</ele>
        <time>2016-06-01T12:44:48Z</time>
      </trkpt>
      <trkpt lat="47.04578" lon="5.61156">
        <ele>228.93</ele>
        <time>2016-06-01T12:44:58Z</time>
      </trkpt>
      <trkpt lat="47.04574" lon="5.61185">
        <ele>228.93</ele>
        <time>2016-06-01T12:45:12Z</time>
      </trkpt>
      <trkpt lat="47.04572" lon="5.61202">
        <ele>230.37</ele>
        <time>2016-06-01T12:45:23Z</time>
      </trkpt>
      <trkpt lat="47.04576" lon="5.61213">
        <ele>229.41</ele>
        <time>2016-06-01T12:45:34Z</time>
      </trkpt>
      <trkpt lat="47.04578" lon="5.61224">
        <ele>227.01</ele>
        <time>2016-06-01T12:45:45Z</time>
      </trkpt>
      <trkpt lat="47.04577" lon="5.61244">
        <ele>224.12</ele>
        <time>2016-06-01T12:45:57Z</time>
      </trkpt>
      <trkpt lat="47.04578" lon="5.6125">
        <ele>224.61</ele>
        <time>2016-06-01T12:46:02Z</time>
      </trkpt>
      <trkpt lat="47.04577" lon="5.61258">
        <ele>224.61</ele>
        <time>2016-06-01T12:46:06Z</time>
      </trkpt>
      <trkpt lat="47.0457" lon="5.61292">
        <ele>230.85</ele>
        <time>2016-06-01T12:46:19Z</time>
      </trkpt>
      <trkpt lat="47.04572" lon="5.6131">
        <ele>231.33</ele>
        <time>2016-06-01T12:46:31Z</time>
      </trkpt>
      <trkpt lat="47.04574" lon="5.61325">
        <ele>230.37</ele>
        <time>2016-06-01T12:46:43Z</time>
      </trkpt>
      <trkpt lat="47.04575" lon="5.61342">
        <ele>228.93</ele>
        <time>2016-06-01T12:46:54Z</time>
      </trkpt>
      <trkpt lat="47.04578" lon="5.61359">
        <ele>225.57</ele>
        <time>2016-06-01T12:47:06Z</time>
      </trkpt>
      <trkpt lat="47.04578" lon="5.61384">
        <ele>224.61</ele>
        <time>2016-06-01T12:47:19Z</time>
      </trkpt>
      <trkpt lat="47.04579" lon="5.61407">
        <ele>225.09</ele>
        <time>2016-06-01T12:47:32Z</time>
      </trkpt>
      <trkpt lat="47.04579" lon="5.61408">
        <ele>225.09</ele>
        <time>2016-06-01T12:47:34Z</time>
      </trkpt>
      <trkpt lat="47.04582" lon="5.61419">
        <ele>223.64</ele>
        <time>2016-06-01T12:47:44Z</time>
      </trkpt>
      <trkpt lat="47.04582" lon="5.61421">
        <ele>223.64</ele>
        <time>2016-06-01T12:47:46Z</time>
      </trkpt>
      <trkpt lat="47.04588" lon="5.61441">
        <ele>224.61</ele>
        <time>2016-06-01T12:47:58Z</time>
      </trkpt>
      <trkpt lat="47.0459" lon="5.6145">
        <ele>225.57</ele>
        <time>2016-06-01T12:48:11Z</time>
      </trkpt>
      <trkpt lat="47.04591" lon="5.61452">
        <ele>226.53</ele>
        <time>2016-06-01T12:48:25Z</time>
      </trkpt>
      <trkpt lat="47.0459" lon="5.61457">
        <ele>227.01</ele>
        <time>2016-06-01T12:48:29Z</time>
      </trkpt>
      <trkpt lat="47.04602" lon="5.61456">
        <ele>224.12</ele>
        <time>2016-06-01T12:48:35Z</time>
      </trkpt>
      <trkpt lat="47.04607" lon="5.61464">
        <ele>223.16</ele>
        <time>2016-06-01T12:48:42Z</time>
      </trkpt>
      <trkpt lat="47.04614" lon="5.61477">
        <ele>221.72</ele>
        <time>2016-06-01T12:48:54Z</time>
      </trkpt>
      <trkpt lat="47.04614" lon="5.61479">
        <ele>222.2</ele>
        <time>2016-06-01T12:49:11Z</time>
      </trkpt>
      <trkpt lat="47.04613" lon="5.61479">
        <ele>221.24</ele>
        <time>2016-06-01T12:49:28Z</time>
      </trkpt>
      <trkpt lat="47.04614" lon="5.61479">
        <ele>220.76</ele>
        <time>2016-06-01T12:49:58Z</time>
      </trkpt>
      <trkpt lat="47.04616" lon="5.61478">
        <ele>220.76</ele>
        <time>2016-06-01T12:50:07Z</time>
      </trkpt>
      <trkpt lat="47.04619" lon="5.61499">
        <ele>222.68</ele>
        <time>2016-06-01T12:50:20Z</time>
      </trkpt>
      <trkpt lat="47.04615" lon="5.61517">
        <ele>223.16</ele>
        <time>2016-06-01T12:50:32Z</time>
      </trkpt>
      <trkpt lat="47.04609" lon="5.61535">
        <ele>222.68</ele>
        <time>2016-06-01T12:50:45Z</time>
      </trkpt>
      <trkpt lat="47.04608" lon="5.61538">
        <ele>222.68</ele>
        <time>2016-06-01T12:50:47Z</time>
      </trkpt>
      <trkpt lat="47.04605" lon="5.61551">
        <ele>222.2</ele>
        <time>2016-06-01T12:50:56Z</time>
      </trkpt>
      <trkpt lat="47.046" lon="5.61571">
        <ele>222.2</ele>
        <time>2016-06-01T12:51:08Z</time>
      </trkpt>
      <trkpt lat="47.04599" lon="5.61575">
        <ele>222.2</ele>
        <time>2016-06-01T12:51:11Z</time>
      </trkpt>
      <trkpt lat="47.04597" lon="5.61589">
        <ele>224.12</ele>
        <time>2016-06-01T12:51:21Z</time>
      </trkpt>
      <trkpt lat="47.04597" lon="5.61604">
        <ele>226.05</ele>
        <time>2016-06-01T12:51:31Z</time>
      </trkpt>
      <trkpt lat="47.04595" lon="5.61622">
        <ele>224.61</ele>
        <time>2016-06-01T12:51:42Z</time>
      </trkpt>
      <trkpt lat="47.04595" lon="5.61625">
        <ele>224.61</ele>
        <time>2016-06-01T12:51:44Z</time>
      </trkpt>
      <trkpt lat="47.04595" lon="5.61628">
        <ele>225.09</ele>
        <time>2016-06-01T12:51:46Z</time>
      </trkpt>
      <trkpt lat="47.04595" lon="5.61641">
        <ele>227.01</ele>
        <time>2016-06-01T12:51:57Z</time>
      </trkpt>
      <trkpt lat="47.04596" lon="5.61641">
        <ele>226.53</ele>
        <time>2016-06-01T12:52:17Z</time>
      </trkpt>
      <trkpt lat="47.04594" lon="5.61649">
        <ele>226.05</ele>
        <time>2016-06-01T12:52:22Z</time>
      </trkpt>
      <trkpt lat="47.0459" lon="5.61667">
        <ele>226.53</ele>
        <time>2016-06-01T12:52:34Z</time>
      </trkpt>
      <trkpt lat="47.04589" lon="5.61682">
        <ele>230.37</ele>
        <time>2016-06-01T12:52:45Z</time>
      </trkpt>
      <trkpt lat="47.04588" lon="5.61695">
        <ele>230.37</ele>
        <time>2016-06-01T12:52:53Z</time>
      </trkpt>
      <trkpt lat="47.04588" lon="5.61697">
        <ele>230.37</ele>
        <time>2016-06-01T12:52:55Z</time>
      </trkpt>
      <trkpt lat="47.04583" lon="5.61719">
        <ele>225.57</ele>
        <time>2016-06-01T12:53:09Z</time>
      </trkpt>
      <trkpt lat="47.0458" lon="5.61735">
        <ele>224.12</ele>
        <time>2016-06-01T12:53:19Z</time>
      </trkpt>
      <trkpt lat="47.04577" lon="5.61754">
        <ele>223.64</ele>
        <time>2016-06-01T12:53:32Z</time>
      </trkpt>
      <trkpt lat="47.04575" lon="5.61765">
        <ele>223.16</ele>
        <time>2016-06-01T12:53:39Z</time>
      </trkpt>
      <trkpt lat="47.04575" lon="5.61781">
        <ele>226.53</ele>
        <time>2016-06-01T12:53:49Z</time>
      </trkpt>
      <trkpt lat="47.04574" lon="5.61799">
        <ele>226.05</ele>
        <time>2016-06-01T12:54:05Z</time>
      </trkpt>
      <trkpt lat="47.04573" lon="5.61814">
        <ele>224.61</ele>
        <time>2016-06-01T12:54:16Z</time>
      </trkpt>
      <trkpt lat="47.04574" lon="5.61823">
        <ele>225.57</ele>
        <time>2016-06-01T12:54:23Z</time>
      </trkpt>
      <trkpt lat="47.04573" lon="5.6183">
        <ele>224.12</ele>
        <time>2016-06-01T12:54:33Z</time>
      </trkpt>
      <trkpt lat="47.04574" lon="5.61843">
        <ele>220.76</ele>
        <time>2016-06-01T12:54:46Z</time>
      </trkpt>
      <trkpt lat="47.04575" lon="5.61851">
        <ele>220.76</ele>
        <time>2016-06-01T12:55:01Z</time>
      </trkpt>
      <trkpt lat="47.04576" lon="5.61855">
        <ele>220.28</ele>
        <time>2016-06-01T12:55:07Z</time>
      </trkpt>
      <trkpt lat="47.04579" lon="5.61871">
        <ele>220.76</ele>
        <time>2016-06-01T12:55:17Z</time>
      </trkpt>
      <trkpt lat="47.04582" lon="5.61891">
        <ele>221.72</ele>
        <time>2016-06-01T12:55:29Z</time>
      </trkpt>
      <trkpt lat="47.04582" lon="5.61893">
        <ele>221.72</ele>
        <time>2016-06-01T12:55:30Z</time>
      </trkpt>
      <trkpt lat="47.04589" lon="5.61913">
        <ele>221.72</ele>
        <time>2016-06-01T12:55:44Z</time>
      </trkpt>
      <trkpt lat="47.04589" lon="5.61914">
        <ele>222.2</ele>
        <time>2016-06-01T12:55:45Z</time>
      </trkpt>
      <trkpt lat="47.04591" lon="5.61921">
        <ele>222.2</ele>
        <time>2016-06-01T12:55:50Z</time>
      </trkpt>
      <trkpt lat="47.04592" lon="5.61929">
        <ele>222.68</ele>
        <time>2016-06-01T12:55:55Z</time>
      </trkpt>
      <trkpt lat="47.04593" lon="5.61932">
        <ele>223.16</ele>
        <time>2016-06-01T12:55:57Z</time>
      </trkpt>
      <trkpt lat="47.04593" lon="5.61939">
        <ele>223.64</ele>
        <time>2016-06-01T12:56:02Z</time>
      </trkpt>
      <trkpt lat="47.04593" lon="5.6195">
        <ele>225.09</ele>
        <time>2016-06-01T12:56:09Z</time>
      </trkpt>
      <trkpt lat="47.04591" lon="5.61953">
        <ele>225.09</ele>
        <time>2016-06-01T12:56:11Z</time>
      </trkpt>
      <trkpt lat="47.0459" lon="5.61961">
        <ele>225.09</ele>
        <time>2016-06-01T12:56:17Z</time>
      </trkpt>
      <trkpt lat="47.04588" lon="5.61968">
        <ele>224.61</ele>
        <time>2016-06-01T12:56:21Z</time>
      </trkpt>
      <trkpt lat="47.04585" lon="5.61975">
        <ele>224.12</ele>
        <time>2016-06-01T12:56:26Z</time>
      </trkpt>
      <trkpt lat="47.04581" lon="5.61982">
        <ele>225.09</ele>
        <time>2016-06-01T12:56:31Z</time>
      </trkpt>
      <trkpt lat="47.04578" lon="5.6199">
        <ele>227.01</ele>
        <time>2016-06-01T12:56:47Z</time>
      </trkpt>
      <trkpt lat="47.04574" lon="5.61999">
        <ele>226.53</ele>
        <time>2016-06-01T12:57:06Z</time>
      </trkpt>
      <trkpt lat="47.04571" lon="5.62009">
        <ele>227.01</ele>
        <time>2016-06-01T12:57:18Z</time>
      </trkpt>
      <trkpt lat="47.04569" lon="5.62015">
        <ele>228.45</ele>
        <time>2016-06-01T12:57:25Z</time>
      </trkpt>
      <trkpt lat="47.04568" lon="5.62028">
        <ele>227.49</ele>
        <time>2016-06-01T12:57:34Z</time>
      </trkpt>
      <trkpt lat="47.04563" lon="5.62047">
        <ele>227.49</ele>
        <time>2016-06-01T12:57:46Z</time>
      </trkpt>
      <trkpt lat="47.04562" lon="5.62051">
        <ele>226.53</ele>
        <time>2016-06-01T12:57:49Z</time>
      </trkpt>
      <trkpt lat="47.04561" lon="5.62063">
        <ele>225.09</ele>
        <time>2016-06-01T12:57:57Z</time>
      </trkpt>
      <trkpt lat="47.04557" lon="5.62083">
        <ele>224.61</ele>
        <time>2016-06-01T12:58:10Z</time>
      </trkpt>
      <trkpt lat="47.04557" lon="5.62085">
        <ele>224.61</ele>
        <time>2016-06-01T12:58:11Z</time>
      </trkpt>
      <trkpt lat="47.04558" lon="5.62098">
        <ele>223.64</ele>
        <time>2016-06-01T12:58:19Z</time>
      </trkpt>
      <trkpt lat="47.04564" lon="5.62112">
        <ele>223.64</ele>
        <time>2016-06-01T12:58:30Z</time>
      </trkpt>
      <trkpt lat="47.04565" lon="5.62113">
        <ele>223.64</ele>
        <time>2016-06-01T12:58:31Z</time>
      </trkpt>
      <trkpt lat="47.04569" lon="5.62117">
        <ele>223.16</ele>
        <time>2016-06-01T12:58:35Z</time>
      </trkpt>
      <trkpt lat="47.04584" lon="5.62128">
        <ele>221.24</ele>
        <time>2016-06-01T12:58:50Z</time>
      </trkpt>
      <trkpt lat="47.04596" lon="5.62137">
        <ele>219.8</ele>
        <time>2016-06-01T12:59:02Z</time>
      </trkpt>
      <trkpt lat="47.046" lon="5.62137">
        <ele>220.28</ele>
        <time>2016-06-01T12:59:20Z</time>
      </trkpt>
      <trkpt lat="47.04601" lon="5.62138">
        <ele>221.24</ele>
        <time>2016-06-01T12:59:40Z</time>
      </trkpt>
      <trkpt lat="47.04601" lon="5.62138">
        <ele>221.24</ele>
        <time>2016-06-01T12:59:49Z</time>
      </trkpt>
      <trkpt lat="47.04601" lon="5.62141">
        <ele>220.76</ele>
        <time>2016-06-01T13:00:02Z</time>
      </trkpt>
      <trkpt lat="47.04601" lon="5.62141">
        <ele>220.76</ele>
        <time>2016-06-01T13:00:06Z</time>
      </trkpt>
      <trkpt lat="47.046" lon="5.62142">
        <ele>221.24</ele>
        <time>2016-06-01T13:00:08Z</time>
      </trkpt>
      <trkpt lat="47.046" lon="5.62157">
        <ele>220.76</ele>
        <time>2016-06-01T13:00:18Z</time>
      </trkpt>
      <trkpt lat="47.04598" lon="5.62171">
        <ele>220.28</ele>
        <time>2016-06-01T13:00:30Z</time>
      </trkpt>
      <trkpt lat="47.04598" lon="5.62172">
        <ele>222.68</ele>
        <time>2016-06-01T13:00:51Z</time>
      </trkpt>
      <trkpt lat="47.04597" lon="5.62172">
        <ele>221.24</ele>
        <time>2016-06-01T13:01:15Z</time>
      </trkpt>
      <trkpt lat="47.04597" lon="5.62173">
        <ele>221.24</ele>
        <time>2016-06-01T13:01:45Z</time>
      </trkpt>
      <trkpt lat="47.04595" lon="5.62189">
        <ele>223.16</ele>
        <time>2016-06-01T13:02:00Z</time>
      </trkpt>
      <trkpt lat="47.04595" lon="5.62191">
        <ele>223.16</ele>
        <time>2016-06-01T13:02:01Z</time>
      </trkpt>
      <trkpt lat="47.04589" lon="5.62207">
        <ele>223.16</ele>
        <time>2016-06-01T13:02:13Z</time>
      </trkpt>
      <trkpt lat="47.04578" lon="5.62226">
        <ele>222.2</ele>
        <time>2016-06-01T13:02:29Z</time>
      </trkpt>
      <trkpt lat="47.04576" lon="5.62231">
        <ele>221.72</ele>
        <time>2016-06-01T13:02:32Z</time>
      </trkpt>
      <trkpt lat="47.04563" lon="5.62252">
        <ele>221.24</ele>
        <time>2016-06-01T13:02:48Z</time>
      </trkpt>
      <trkpt lat="47.04554" lon="5.6227">
        <ele>222.2</ele>
        <time>2016-06-01T13:03:04Z</time>
      </trkpt>
      <trkpt lat="47.04552" lon="5.62275">
        <ele>222.68</ele>
        <time>2016-06-01T13:03:21Z</time>
      </trkpt>
      <trkpt lat="47.04547" lon="5.62292">
        <ele>223.64</ele>
        <time>2016-06-01T13:03:37Z</time>
      </trkpt>
      <trkpt lat="47.04543" lon="5.623">
        <ele>223.64</ele>
        <time>2016-06-01T13:03:43Z</time>
      </trkpt>
      <trkpt lat="47.04535" lon="5.62319">
        <ele>223.16</ele>
        <time>2016-06-01T13:03:58Z</time>
      </trkpt>
      <trkpt lat="47.04535" lon="5.62322">
        <ele>223.64</ele>
        <time>2016-06-01T13:04:00Z</time>
      </trkpt>
      <trkpt lat="47.04531" lon="5.62335">
        <ele>223.64</ele>
        <time>2016-06-01T13:04:08Z</time>
      </trkpt>
      <trkpt lat="47.04528" lon="5.62344">
        <ele>222.68</ele>
        <time>2016-06-01T13:04:14Z</time>
      </trkpt>
      <trkpt lat="47.04527" lon="5.62348">
        <ele>223.16</ele>
        <time>2016-06-01T13:04:16Z</time>
      </trkpt>
      <trkpt lat="47.04521" lon="5.62368">
        <ele>225.09</ele>
        <time>2016-06-01T13:04:29Z</time>
      </trkpt>
      <trkpt lat="47.04519" lon="5.62384">
        <ele>225.09</ele>
        <time>2016-06-01T13:04:38Z</time>
      </trkpt>
      <trkpt lat="47.04518" lon="5.62387">
        <ele>225.09</ele>
        <time>2016-06-01T13:04:41Z</time>
      </trkpt>
      <trkpt lat="47.04518" lon="5.62391">
        <ele>225.57</ele>
        <time>2016-06-01T13:04:43Z</time>
      </trkpt>
      <trkpt lat="47.04514" lon="5.6241">
        <ele>225.57</ele>
        <time>2016-06-01T13:04:54Z</time>
      </trkpt>
      <trkpt lat="47.04512" lon="5.6243">
        <ele>224.61</ele>
        <time>2016-06-01T13:05:06Z</time>
      </trkpt>
      <trkpt lat="47.04506" lon="5.62456">
        <ele>225.09</ele>
        <time>2016-06-01T13:05:21Z</time>
      </trkpt>
      <trkpt lat="47.04505" lon="5.62459">
        <ele>225.09</ele>
        <time>2016-06-01T13:05:23Z</time>
      </trkpt>
      <trkpt lat="47.04503" lon="5.62463">
        <ele>225.57</ele>
        <time>2016-06-01T13:05:26Z</time>
      </trkpt>
      <trkpt lat="47.04498" lon="5.62482">
        <ele>224.61</ele>
        <time>2016-06-01T13:05:38Z</time>
      </trkpt>
      <trkpt lat="47.04497" lon="5.62483">
        <ele>224.61</ele>
        <time>2016-06-01T13:05:39Z</time>
      </trkpt>
      <trkpt lat="47.04489" lon="5.62504">
        <ele>223.64</ele>
        <time>2016-06-01T13:05:53Z</time>
      </trkpt>
      <trkpt lat="47.04482" lon="5.62517">
        <ele>225.57</ele>
        <time>2016-06-01T13:06:02Z</time>
      </trkpt>
      <trkpt lat="47.04479" lon="5.62523">
        <ele>225.09</ele>
        <time>2016-06-01T13:06:07Z</time>
      </trkpt>
      <trkpt lat="47.04472" lon="5.62544">
        <ele>225.09</ele>
        <time>2016-06-01T13:06:20Z</time>
      </trkpt>
      <trkpt lat="47.04467" lon="5.62559">
        <ele>225.57</ele>
        <time>2016-06-01T13:06:30Z</time>
      </trkpt>
      <trkpt lat="47.04466" lon="5.6256">
        <ele>226.05</ele>
        <time>2016-06-01T13:06:31Z</time>
      </trkpt>
      <trkpt lat="47.04456" lon="5.62575">
        <ele>227.49</ele>
        <time>2016-06-01T13:06:42Z</time>
      </trkpt>
      <trkpt lat="47.04453" lon="5.6258">
        <ele>227.01</ele>
        <time>2016-06-01T13:06:46Z</time>
      </trkpt>
      <trkpt lat="47.0445" lon="5.62583">
        <ele>226.53</ele>
        <time>2016-06-01T13:06:49Z</time>
      </trkpt>
      <trkpt lat="47.0444" lon="5.62597">
        <ele>227.01</ele>
        <time>2016-06-01T13:07:02Z</time>
      </trkpt>
      <trkpt lat="47.04431" lon="5.62605">
        <ele>226.53</ele>
        <time>2016-06-01T13:07:12Z</time>
      </trkpt>
      <trkpt lat="47.04429" lon="5.62609">
        <ele>226.05</ele>
        <time>2016-06-01T13:07:15Z</time>
      </trkpt>
      <trkpt lat="47.04427" lon="5.6261">
        <ele>226.05</ele>
        <time>2016-06-01T13:07:17Z</time>
      </trkpt>
      <trkpt lat="47.04419" lon="5.62618">
        <ele>225.57</ele>
        <time>2016-06-01T13:07:26Z</time>
      </trkpt>
      <trkpt lat="47.04413" lon="5.6263">
        <ele>225.57</ele>
        <time>2016-06-01T13:07:35Z</time>
      </trkpt>
      <trkpt lat="47.04407" lon="5.62638">
        <ele>226.53</ele>
        <time>2016-06-01T13:07:42Z</time>
      </trkpt>
      <trkpt lat="47.04402" lon="5.62651">
        <ele>227.49</ele>
        <time>2016-06-01T13:07:52Z</time>
      </trkpt>
      <trkpt lat="47.04392" lon="5.62669">
        <ele>228.45</ele>
        <time>2016-06-01T13:08:05Z</time>
      </trkpt>
      <trkpt lat="47.04384" lon="5.62682">
        <ele>227.97</ele>
        <time>2016-06-01T13:08:16Z</time>
      </trkpt>
      <trkpt lat="47.04381" lon="5.62687">
        <ele>227.49</ele>
        <time>2016-06-01T13:08:20Z</time>
      </trkpt>
      <trkpt lat="47.0438" lon="5.6269">
        <ele>227.97</ele>
        <time>2016-06-01T13:08:22Z</time>
      </trkpt>
      <trkpt lat="47.04372" lon="5.627">
        <ele>227.97</ele>
        <time>2016-06-01T13:08:33Z</time>
      </trkpt>
      <trkpt lat="47.04362" lon="5.62713">
        <ele>227.49</ele>
        <time>2016-06-01T13:08:45Z</time>
      </trkpt>
      <trkpt lat="47.04357" lon="5.62719">
        <ele>227.01</ele>
        <time>2016-06-01T13:08:51Z</time>
      </trkpt>
      <trkpt lat="47.04344" lon="5.62731">
        <ele>230.37</ele>
        <time>2016-06-01T13:09:06Z</time>
      </trkpt>
      <trkpt lat="47.04329" lon="5.62739">
        <ele>228.45</ele>
        <time>2016-06-01T13:09:18Z</time>
      </trkpt>
      <trkpt lat="47.04317" lon="5.62751">
        <ele>226.05</ele>
        <time>2016-06-01T13:09:31Z</time>
      </trkpt>
      <trkpt lat="47.04311" lon="5.62755">
        <ele>225.57</ele>
        <time>2016-06-01T13:09:37Z</time>
      </trkpt>
      <trkpt lat="47.04296" lon="5.62764">
        <ele>225.09</ele>
        <time>2016-06-01T13:09:52Z</time>
      </trkpt>
      <trkpt lat="47.0429" lon="5.62767">
        <ele>224.61</ele>
        <time>2016-06-01T13:09:58Z</time>
      </trkpt>
      <trkpt lat="47.04285" lon="5.6277">
        <ele>222.68</ele>
        <time>2016-06-01T13:10:03Z</time>
      </trkpt>
      <trkpt lat="47.04281" lon="5.62773">
        <ele>223.64</ele>
        <time>2016-06-01T13:10:07Z</time>
      </trkpt>
      <trkpt lat="47.04279" lon="5.62774">
        <ele>224.12</ele>
        <time>2016-06-01T13:10:09Z</time>
      </trkpt>
      <trkpt lat="47.04277" lon="5.62775">
        <ele>224.61</ele>
        <time>2016-06-01T13:10:11Z</time>
      </trkpt>
      <trkpt lat="47.04273" lon="5.62777">
        <ele>224.12</ele>
        <time>2016-06-01T13:10:15Z</time>
      </trkpt>
      <trkpt lat="47.0427" lon="5.62781">
        <ele>224.61</ele>
        <time>2016-06-01T13:10:19Z</time>
      </trkpt>
      <trkpt lat="47.04262" lon="5.62797">
        <ele>223.64</ele>
        <time>2016-06-01T13:10:30Z</time>
      </trkpt>
      <trkpt lat="47.04259" lon="5.62802">
        <ele>223.64</ele>
        <time>2016-06-01T13:10:34Z</time>
      </trkpt>
      <trkpt lat="47.04253" lon="5.6282">
        <ele>224.12</ele>
        <time>2016-06-01T13:10:48Z</time>
      </trkpt>
      <trkpt lat="47.04247" lon="5.62834">
        <ele>224.12</ele>
        <time>2016-06-01T13:11:00Z</time>
      </trkpt>
      <trkpt lat="47.04241" lon="5.6285">
        <ele>225.57</ele>
        <time>2016-06-01T13:11:11Z</time>
      </trkpt>
      <trkpt lat="47.04234" lon="5.62869">
        <ele>226.05</ele>
        <time>2016-06-01T13:11:23Z</time>
      </trkpt>
      <trkpt lat="47.04233" lon="5.62875">
        <ele>226.05</ele>
        <time>2016-06-01T13:11:36Z</time>
      </trkpt>
      <trkpt lat="47.04228" lon="5.62893">
        <ele>226.05</ele>
        <time>2016-06-01T13:11:48Z</time>
      </trkpt>
      <trkpt lat="47.04225" lon="5.62906">
        <ele>226.05</ele>
        <time>2016-06-01T13:11:56Z</time>
      </trkpt>
      <trkpt lat="47.04224" lon="5.6291">
        <ele>225.57</ele>
        <time>2016-06-01T13:11:58Z</time>
      </trkpt>
      <trkpt lat="47.04221" lon="5.62927">
        <ele>225.09</ele>
        <time>2016-06-01T13:12:08Z</time>
      </trkpt>
      <trkpt lat="47.0422" lon="5.62944">
        <ele>224.61</ele>
        <time>2016-06-01T13:12:19Z</time>
      </trkpt>
      <trkpt lat="47.0422" lon="5.62947">
        <ele>225.09</ele>
        <time>2016-06-01T13:12:21Z</time>
      </trkpt>
      <trkpt lat="47.04219" lon="5.62964">
        <ele>226.05</ele>
        <time>2016-06-01T13:12:32Z</time>
      </trkpt>
      <trkpt lat="47.04218" lon="5.62978">
        <ele>226.53</ele>
        <time>2016-06-01T13:12:41Z</time>
      </trkpt>
      <trkpt lat="47.04218" lon="5.62987">
        <ele>227.49</ele>
        <time>2016-06-01T13:12:46Z</time>
      </trkpt>
      <trkpt lat="47.0422" lon="5.63007">
        <ele>230.85</ele>
        <time>2016-06-01T13:12:58Z</time>
      </trkpt>
      <trkpt lat="47.04219" lon="5.63013">
        <ele>231.81</ele>
        <time>2016-06-01T13:13:02Z</time>
      </trkpt>
      <trkpt lat="47.04217" lon="5.6303">
        <ele>231.81</ele>
        <time>2016-06-01T13:13:12Z</time>
      </trkpt>
      <trkpt lat="47.04218" lon="5.63032">
        <ele>231.81</ele>
        <time>2016-06-01T13:13:14Z</time>
      </trkpt>
      <trkpt lat="47.0422" lon="5.6304">
        <ele>232.3</ele>
        <time>2016-06-01T13:13:29Z</time>
      </trkpt>
      <trkpt lat="47.0422" lon="5.63047">
        <ele>230.37</ele>
        <time>2016-06-01T13:13:35Z</time>
      </trkpt>
      <trkpt lat="47.04221" lon="5.63058">
        <ele>228.93</ele>
        <time>2016-06-01T13:13:44Z</time>
      </trkpt>
      <trkpt lat="47.04222" lon="5.63062">
        <ele>229.89</ele>
        <time>2016-06-01T13:13:51Z</time>
      </trkpt>
      <trkpt lat="47.04225" lon="5.63062">
        <ele>229.41</ele>
        <time>2016-06-01T13:14:02Z</time>
      </trkpt>
      <trkpt lat="47.04226" lon="5.6306">
        <ele>229.89</ele>
        <time>2016-06-01T13:14:21Z</time>
      </trkpt>
      <trkpt lat="47.04229" lon="5.63061">
        <ele>229.89</ele>
        <time>2016-06-01T13:14:33Z</time>
      </trkpt>
      <trkpt lat="47.04228" lon="5.63061">
        <ele>230.37</ele>
        <time>2016-06-01T13:14:43Z</time>
      </trkpt>
      <trkpt lat="47.04228" lon="5.63061">
        <ele>230.85</ele>
        <time>2016-06-01T13:14:48Z</time>
      </trkpt>
      <trkpt lat="47.04229" lon="5.63062">
        <ele>230.37</ele>
        <time>2016-06-01T13:14:59Z</time>
      </trkpt>
      <trkpt lat="47.04228" lon="5.63063">
        <ele>231.81</ele>
        <time>2016-06-01T13:15:19Z</time>
      </trkpt>
      <trkpt lat="47.04227" lon="5.63064">
        <ele>231.81</ele>
        <time>2016-06-01T13:15:40Z</time>
      </trkpt>
      <trkpt lat="47.04229" lon="5.63063">
        <ele>232.78</ele>
        <time>2016-06-01T13:16:04Z</time>
      </trkpt>
      <trkpt lat="47.0423" lon="5.63063">
        <ele>235.18</ele>
        <time>2016-06-01T13:16:29Z</time>
      </trkpt>
      <trkpt lat="47.0423" lon="5.63064">
        <ele>235.66</ele>
        <time>2016-06-01T13:16:47Z</time>
      </trkpt>
      <trkpt lat="47.04231" lon="5.63064">
        <ele>235.66</ele>
        <time>2016-06-01T13:17:13Z</time>
      </trkpt>
      <trkpt lat="47.0423" lon="5.63065">
        <ele>236.62</ele>
        <time>2016-06-01T13:17:38Z</time>
      </trkpt>
      <trkpt lat="47.0423" lon="5.63065">
        <ele>237.1</ele>
        <time>2016-06-01T13:17:58Z</time>
      </trkpt>
      <trkpt lat="47.04229" lon="5.63066">
        <ele>236.62</ele>
        <time>2016-06-01T13:18:26Z</time>
      </trkpt>
      <trkpt lat="47.04226" lon="5.63069">
        <ele>239.51</ele>
        <time>2016-06-01T13:18:45Z</time>
      </trkpt>
      <trkpt lat="47.0423" lon="5.63065">
        <ele>243.35</ele>
        <time>2016-06-01T13:19:05Z</time>
      </trkpt>
      <trkpt lat="47.04229" lon="5.63066">
        <ele>243.35</ele>
        <time>2016-06-01T13:19:20Z</time>
      </trkpt>
      <trkpt lat="47.04229" lon="5.63066">
        <ele>243.35</ele>
        <time>2016-06-01T13:19:35Z</time>
      </trkpt>
      <trkpt lat="47.04229" lon="5.63067">
        <ele>243.35</ele>
        <time>2016-06-01T13:19:53Z</time>
      </trkpt>
      <trkpt lat="47.0423" lon="5.63066">
        <ele>243.35</ele>
        <time>2016-06-01T13:20:13Z</time>
      </trkpt>
      <trkpt lat="47.04229" lon="5.63068">
        <ele>243.35</ele>
        <time>2016-06-01T13:20:41Z</time>
      </trkpt>
      <trkpt lat="47.04229" lon="5.63069">
        <ele>243.83</ele>
        <time>2016-06-01T13:21:06Z</time>
      </trkpt>
      <trkpt lat="47.04228" lon="5.63072">
        <ele>244.31</ele>
        <time>2016-06-01T13:21:23Z</time>
      </trkpt>
      <trkpt lat="47.04227" lon="5.63071">
        <ele>244.31</ele>
        <time>2016-06-01T13:21:33Z</time>
      </trkpt>
      <trkpt lat="47.04229" lon="5.63074">
        <ele>243.83</ele>
        <time>2016-06-01T13:21:38Z</time>
      </trkpt>
      <trkpt lat="47.04234" lon="5.63078">
        <ele>243.83</ele>
        <time>2016-06-01T13:21:49Z</time>
      </trkpt>
      <trkpt lat="47.04244" lon="5.63069">
        <ele>242.87</ele>
        <time>2016-06-01T13:21:58Z</time>
      </trkpt>
      <trkpt lat="47.0425" lon="5.63053">
        <ele>240.95</ele>
        <time>2016-06-01T13:22:10Z</time>
      </trkpt>
      <trkpt lat="47.04264" lon="5.63041">
        <ele>236.14</ele>
        <time>2016-06-01T13:22:24Z</time>
      </trkpt>
      <trkpt lat="47.04269" lon="5.63038">
        <ele>235.18</ele>
        <time>2016-06-01T13:22:29Z</time>
      </trkpt>
      <trkpt lat="47.04283" lon="5.63024">
        <ele>232.3</ele>
        <time>2016-06-01T13:22:44Z</time>
      </trkpt>
      <trkpt lat="47.04296" lon="5.63012">
        <ele>229.89</ele>
        <time>2016-06-01T13:22:57Z</time>
      </trkpt>
      <trkpt lat="47.043" lon="5.63009">
        <ele>229.41</ele>
        <time>2016-06-01T13:23:01Z</time>
      </trkpt>
      <trkpt lat="47.04304" lon="5.63007">
        <ele>228.45</ele>
        <time>2016-06-01T13:23:04Z</time>
      </trkpt>
      <trkpt lat="47.04308" lon="5.63001">
        <ele>226.05</ele>
        <time>2016-06-01T13:23:09Z</time>
      </trkpt>
      <trkpt lat="47.04315" lon="5.62994">
        <ele>226.53</ele>
        <time>2016-06-01T13:23:15Z</time>
      </trkpt>
      <trkpt lat="47.04324" lon="5.62982">
        <ele>226.53</ele>
        <time>2016-06-01T13:23:25Z</time>
      </trkpt>
      <trkpt lat="47.04336" lon="5.62967">
        <ele>226.53</ele>
        <time>2016-06-01T13:23:39Z</time>
      </trkpt>
      <trkpt lat="47.04347" lon="5.62961">
        <ele>226.53</ele>
        <time>2016-06-01T13:23:49Z</time>
      </trkpt>
      <trkpt lat="47.0435" lon="5.6296">
        <ele>226.53</ele>
        <time>2016-06-01T13:23:51Z</time>
      </trkpt>
      <trkpt lat="47.04357" lon="5.62959">
        <ele>225.09</ele>
        <time>2016-06-01T13:23:57Z</time>
      </trkpt>
      <trkpt lat="47.04361" lon="5.6296">
        <ele>224.61</ele>
        <time>2016-06-01T13:24:00Z</time>
      </trkpt>
      <trkpt lat="47.04366" lon="5.62961">
        <ele>224.12</ele>
        <time>2016-06-01T13:24:04Z</time>
      </trkpt>
      <trkpt lat="47.04373" lon="5.62962">
        <ele>223.64</ele>
        <time>2016-06-01T13:24:10Z</time>
      </trkpt>
      <trkpt lat="47.04378" lon="5.62964">
        <ele>223.16</ele>
        <time>2016-06-01T13:24:14Z</time>
      </trkpt>
      <trkpt lat="47.04381" lon="5.62965">
        <ele>223.16</ele>
        <time>2016-06-01T13:24:17Z</time>
      </trkpt>
      <trkpt lat="47.04392" lon="5.62969">
        <ele>222.2</ele>
        <time>2016-06-01T13:24:27Z</time>
      </trkpt>
      <trkpt lat="47.04407" lon="5.62974">
        <ele>221.24</ele>
        <time>2016-06-01T13:24:39Z</time>
      </trkpt>
      <trkpt lat="47.04411" lon="5.62973">
        <ele>220.76</ele>
        <time>2016-06-01T13:24:42Z</time>
      </trkpt>
      <trkpt lat="47.04416" lon="5.62974">
        <ele>221.72</ele>
        <time>2016-06-01T13:24:46Z</time>
      </trkpt>
      <trkpt lat="47.04426" lon="5.62974">
        <ele>222.68</ele>
        <time>2016-06-01T13:24:54Z</time>
      </trkpt>
      <trkpt lat="47.04439" lon="5.62972">
        <ele>222.2</ele>
        <time>2016-06-01T13:25:05Z</time>
      </trkpt>
      <trkpt lat="47.04454" lon="5.62964">
        <ele>223.16</ele>
        <time>2016-06-01T13:25:17Z</time>
      </trkpt>
      <trkpt lat="47.04465" lon="5.62957">
        <ele>223.16</ele>
        <time>2016-06-01T13:25:27Z</time>
      </trkpt>
      <trkpt lat="47.04483" lon="5.62951">
        <ele>223.64</ele>
        <time>2016-06-01T13:25:42Z</time>
      </trkpt>
      <trkpt lat="47.04484" lon="5.62951">
        <ele>223.64</ele>
        <time>2016-06-01T13:25:43Z</time>
      </trkpt>
      <trkpt lat="47.04487" lon="5.62951">
        <ele>223.64</ele>
        <time>2016-06-01T13:25:46Z</time>
      </trkpt>
      <trkpt lat="47.0449" lon="5.62951">
        <ele>223.16</ele>
        <time>2016-06-01T13:25:48Z</time>
      </trkpt>
      <trkpt lat="47.04495" lon="5.62951">
        <ele>223.16</ele>
        <time>2016-06-01T13:25:52Z</time>
      </trkpt>
      <trkpt lat="47.04508" lon="5.6295">
        <ele>222.68</ele>
        <time>2016-06-01T13:26:03Z</time>
      </trkpt>
      <trkpt lat="47.04522" lon="5.62946">
        <ele>221.72</ele>
        <time>2016-06-01T13:26:14Z</time>
      </trkpt>
      <trkpt lat="47.04524" lon="5.62944">
        <ele>221.72</ele>
        <time>2016-06-01T13:26:16Z</time>
      </trkpt>
      <trkpt lat="47.04538" lon="5.62934">
        <ele>223.16</ele>
        <time>2016-06-01T13:26:29Z</time>
      </trkpt>
      <trkpt lat="47.04545" lon="5.62927">
        <ele>223.64</ele>
        <time>2016-06-01T13:26:37Z</time>
      </trkpt>
      <trkpt lat="47.04548" lon="5.62923">
        <ele>223.64</ele>
        <time>2016-06-01T13:26:40Z</time>
      </trkpt>
      <trkpt lat="47.04561" lon="5.6291">
        <ele>223.64</ele>
        <time>2016-06-01T13:26:52Z</time>
      </trkpt>
      <trkpt lat="47.0457" lon="5.62899">
        <ele>224.12</ele>
        <time>2016-06-01T13:27:01Z</time>
      </trkpt>
      <trkpt lat="47.04584" lon="5.62886">
        <ele>224.12</ele>
        <time>2016-06-01T13:27:15Z</time>
      </trkpt>
      <trkpt lat="47.04588" lon="5.62884">
        <ele>223.64</ele>
        <time>2016-06-01T13:27:19Z</time>
      </trkpt>
      <trkpt lat="47.04601" lon="5.62876">
        <ele>223.16</ele>
        <time>2016-06-01T13:27:31Z</time>
      </trkpt>
      <trkpt lat="47.04616" lon="5.62868">
        <ele>224.61</ele>
        <time>2016-06-01T13:27:43Z</time>
      </trkpt>
      <trkpt lat="47.04634" lon="5.62861">
        <ele>225.09</ele>
        <time>2016-06-01T13:27:58Z</time>
      </trkpt>
      <trkpt lat="47.04649" lon="5.62855">
        <ele>225.57</ele>
        <time>2016-06-01T13:28:11Z</time>
      </trkpt>
      <trkpt lat="47.04658" lon="5.62851">
        <ele>225.57</ele>
        <time>2016-06-01T13:28:18Z</time>
      </trkpt>
      <trkpt lat="47.04669" lon="5.62847">
        <ele>224.12</ele>
        <time>2016-06-01T13:28:27Z</time>
      </trkpt>
      <trkpt lat="47.04686" lon="5.62839">
        <ele>224.12</ele>
        <time>2016-06-01T13:28:41Z</time>
      </trkpt>
      <trkpt lat="47.04698" lon="5.62834">
        <ele>223.64</ele>
        <time>2016-06-01T13:28:52Z</time>
      </trkpt>
      <trkpt lat="47.04712" lon="5.62829">
        <ele>223.16</ele>
        <time>2016-06-01T13:29:04Z</time>
      </trkpt>
      <trkpt lat="47.04713" lon="5.62829">
        <ele>222.68</ele>
        <time>2016-06-01T13:29:05Z</time>
      </trkpt>
      <trkpt lat="47.04718" lon="5.62831">
        <ele>221.24</ele>
        <time>2016-06-01T13:29:11Z</time>
      </trkpt>
      <trkpt lat="47.0472" lon="5.62834">
        <ele>220.76</ele>
        <time>2016-06-01T13:29:14Z</time>
      </trkpt>
      <trkpt lat="47.04727" lon="5.62843">
        <ele>222.2</ele>
        <time>2016-06-01T13:29:20Z</time>
      </trkpt>
      <trkpt lat="47.04735" lon="5.62858">
        <ele>220.76</ele>
        <time>2016-06-01T13:29:31Z</time>
      </trkpt>
      <trkpt lat="47.0474" lon="5.62867">
        <ele>220.76</ele>
        <time>2016-06-01T13:29:37Z</time>
      </trkpt>
      <trkpt lat="47.04741" lon="5.62874">
        <ele>221.72</ele>
        <time>2016-06-01T13:29:41Z</time>
      </trkpt>
      <trkpt lat="47.04742" lon="5.62878">
        <ele>221.72</ele>
        <time>2016-06-01T13:29:43Z</time>
      </trkpt>
      <trkpt lat="47.04744" lon="5.62882">
        <ele>222.2</ele>
        <time>2016-06-01T13:29:46Z</time>
      </trkpt>
      <trkpt lat="47.04747" lon="5.62893">
        <ele>221.72</ele>
        <time>2016-06-01T13:29:53Z</time>
      </trkpt>
      <trkpt lat="47.04761" lon="5.62915">
        <ele>225.09</ele>
        <time>2016-06-01T13:30:08Z</time>
      </trkpt>
      <trkpt lat="47.04764" lon="5.62919">
        <ele>225.57</ele>
        <time>2016-06-01T13:30:11Z</time>
      </trkpt>
      <trkpt lat="47.04766" lon="5.62927">
        <ele>225.57</ele>
        <time>2016-06-01T13:30:16Z</time>
      </trkpt>
      <trkpt lat="47.04777" lon="5.62942">
        <ele>222.68</ele>
        <time>2016-06-01T13:30:29Z</time>
      </trkpt>
      <trkpt lat="47.04781" lon="5.62949">
        <ele>222.2</ele>
        <time>2016-06-01T13:30:36Z</time>
      </trkpt>
      <trkpt lat="47.04787" lon="5.62955">
        <ele>221.24</ele>
        <time>2016-06-01T13:30:42Z</time>
      </trkpt>
      <trkpt lat="47.04799" lon="5.62973">
        <ele>220.76</ele>
        <time>2016-06-01T13:30:56Z</time>
      </trkpt>
      <trkpt lat="47.04802" lon="5.62977">
        <ele>220.76</ele>
        <time>2016-06-01T13:30:59Z</time>
      </trkpt>
      <trkpt lat="47.04806" lon="5.62985">
        <ele>221.72</ele>
        <time>2016-06-01T13:31:04Z</time>
      </trkpt>
      <trkpt lat="47.04812" lon="5.62995">
        <ele>224.12</ele>
        <time>2016-06-01T13:31:10Z</time>
      </trkpt>
      <trkpt lat="47.04814" lon="5.62999">
        <ele>224.12</ele>
        <time>2016-06-01T13:31:12Z</time>
      </trkpt>
      <trkpt lat="47.04817" lon="5.63009">
        <ele>225.09</ele>
        <time>2016-06-01T13:31:18Z</time>
      </trkpt>
      <trkpt lat="47.04819" lon="5.63017">
        <ele>225.09</ele>
        <time>2016-06-01T13:31:23Z</time>
      </trkpt>
      <trkpt lat="47.04824" lon="5.63035">
        <ele>225.57</ele>
        <time>2016-06-01T13:31:33Z</time>
      </trkpt>
      <trkpt lat="47.04833" lon="5.63059">
        <ele>224.12</ele>
        <time>2016-06-01T13:31:49Z</time>
      </trkpt>
      <trkpt lat="47.04834" lon="5.63067">
        <ele>221.24</ele>
        <time>2016-06-01T13:31:55Z</time>
      </trkpt>
      <trkpt lat="47.04841" lon="5.63081">
        <ele>221.24</ele>
        <time>2016-06-01T13:32:03Z</time>
      </trkpt>
      <trkpt lat="47.04847" lon="5.63101">
        <ele>222.2</ele>
        <time>2016-06-01T13:32:15Z</time>
      </trkpt>
      <trkpt lat="47.04849" lon="5.63106">
        <ele>222.68</ele>
        <time>2016-06-01T13:32:18Z</time>
      </trkpt>
      <trkpt lat="47.04853" lon="5.63117">
        <ele>223.16</ele>
        <time>2016-06-01T13:32:25Z</time>
      </trkpt>
      <trkpt lat="47.04855" lon="5.63122">
        <ele>223.16</ele>
        <time>2016-06-01T13:32:28Z</time>
      </trkpt>
      <trkpt lat="47.04863" lon="5.63142">
        <ele>221.72</ele>
        <time>2016-06-01T13:32:41Z</time>
      </trkpt>
      <trkpt lat="47.04864" lon="5.63145">
        <ele>222.2</ele>
        <time>2016-06-01T13:32:43Z</time>
      </trkpt>
      <trkpt lat="47.04874" lon="5.63163">
        <ele>223.16</ele>
        <time>2016-06-01T13:32:56Z</time>
      </trkpt>
      <trkpt lat="47.04875" lon="5.63164">
        <ele>223.64</ele>
        <time>2016-06-01T13:32:57Z</time>
      </trkpt>
      <trkpt lat="47.04881" lon="5.63175">
        <ele>223.64</ele>
        <time>2016-06-01T13:33:04Z</time>
      </trkpt>
      <trkpt lat="47.04889" lon="5.63191">
        <ele>222.68</ele>
        <time>2016-06-01T13:33:15Z</time>
      </trkpt>
      <trkpt lat="47.0489" lon="5.63195">
        <ele>222.68</ele>
        <time>2016-06-01T13:33:18Z</time>
      </trkpt>
      <trkpt lat="47.04899" lon="5.63212">
        <ele>221.72</ele>
        <time>2016-06-01T13:33:30Z</time>
      </trkpt>
      <trkpt lat="47.04901" lon="5.63218">
        <ele>221.24</ele>
        <time>2016-06-01T13:33:34Z</time>
      </trkpt>
      <trkpt lat="47.04903" lon="5.63222">
        <ele>219.8</ele>
        <time>2016-06-01T13:33:38Z</time>
      </trkpt>
      <trkpt lat="47.04912" lon="5.63238">
        <ele>219.32</ele>
        <time>2016-06-01T13:33:50Z</time>
      </trkpt>
      <trkpt lat="47.04918" lon="5.63247">
        <ele>218.36</ele>
        <time>2016-06-01T13:33:57Z</time>
      </trkpt>
      <trkpt lat="47.0492" lon="5.63252">
        <ele>217.88</ele>
        <time>2016-06-01T13:34:00Z</time>
      </trkpt>
      <trkpt lat="47.04924" lon="5.63259">
        <ele>217.4</ele>
        <time>2016-06-01T13:34:05Z</time>
      </trkpt>
      <trkpt lat="47.04926" lon="5.63264">
        <ele>217.4</ele>
        <time>2016-06-01T13:34:09Z</time>
      </trkpt>
      <trkpt lat="47.04935" lon="5.63284">
        <ele>215.47</ele>
        <time>2016-06-01T13:34:23Z</time>
      </trkpt>
      <trkpt lat="47.04942" lon="5.63292">
        <ele>215.47</ele>
        <time>2016-06-01T13:34:30Z</time>
      </trkpt>
      <trkpt lat="47.04947" lon="5.63302">
        <ele>216.91</ele>
        <time>2016-06-01T13:34:36Z</time>
      </trkpt>
      <trkpt lat="47.04951" lon="5.63311">
        <ele>216.91</ele>
        <time>2016-06-01T13:34:42Z</time>
      </trkpt>
      <trkpt lat="47.04953" lon="5.63313">
        <ele>216.43</ele>
        <time>2016-06-01T13:34:44Z</time>
      </trkpt>
      <trkpt lat="47.04956" lon="5.63317">
        <ele>215.95</ele>
        <time>2016-06-01T13:34:47Z</time>
      </trkpt>
      <trkpt lat="47.0496" lon="5.6332">
        <ele>216.43</ele>
        <time>2016-06-01T13:34:50Z</time>
      </trkpt>
      <trkpt lat="47.04963" lon="5.63328">
        <ele>217.88</ele>
        <time>2016-06-01T13:34:55Z</time>
      </trkpt>
      <trkpt lat="47.04967" lon="5.63333">
        <ele>219.32</ele>
        <time>2016-06-01T13:34:59Z</time>
      </trkpt>
      <trkpt lat="47.04968" lon="5.63336">
        <ele>218.84</ele>
        <time>2016-06-01T13:35:01Z</time>
      </trkpt>
      <trkpt lat="47.0497" lon="5.63338">
        <ele>218.84</ele>
        <time>2016-06-01T13:35:03Z</time>
      </trkpt>
      <trkpt lat="47.04973" lon="5.63345">
        <ele>218.36</ele>
        <time>2016-06-01T13:35:07Z</time>
      </trkpt>
      <trkpt lat="47.04978" lon="5.63355">
        <ele>217.4</ele>
        <time>2016-06-01T13:35:14Z</time>
      </trkpt>
      <trkpt lat="47.04982" lon="5.63361">
        <ele>217.4</ele>
        <time>2016-06-01T13:35:19Z</time>
      </trkpt>
      <trkpt lat="47.04987" lon="5.63376">
        <ele>217.4</ele>
        <time>2016-06-01T13:35:28Z</time>
      </trkpt>
      <trkpt lat="47.04992" lon="5.63385">
        <ele>218.36</ele>
        <time>2016-06-01T13:35:35Z</time>
      </trkpt>
      <trkpt lat="47.04998" lon="5.63397">
        <ele>219.8</ele>
        <time>2016-06-01T13:35:42Z</time>
      </trkpt>
      <trkpt lat="47.04999" lon="5.63405">
        <ele>220.28</ele>
        <time>2016-06-01T13:35:47Z</time>
      </trkpt>
      <trkpt lat="47.05007" lon="5.63429">
        <ele>220.76</ele>
        <time>2016-06-01T13:36:01Z</time>
      </trkpt>
      <trkpt lat="47.05014" lon="5.63446">
        <ele>222.2</ele>
        <time>2016-06-01T13:36:11Z</time>
      </trkpt>
      <trkpt lat="47.05017" lon="5.63452">
        <ele>223.64</ele>
        <time>2016-06-01T13:36:15Z</time>
      </trkpt>
      <trkpt lat="47.0503" lon="5.63479">
        <ele>225.09</ele>
        <time>2016-06-01T13:36:31Z</time>
      </trkpt>
      <trkpt lat="47.05032" lon="5.63481">
        <ele>224.61</ele>
        <time>2016-06-01T13:36:33Z</time>
      </trkpt>
      <trkpt lat="47.05035" lon="5.63487">
        <ele>224.61</ele>
        <time>2016-06-01T13:36:37Z</time>
      </trkpt>
      <trkpt lat="47.05041" lon="5.63496">
        <ele>225.57</ele>
        <time>2016-06-01T13:36:44Z</time>
      </trkpt>
      <trkpt lat="47.05046" lon="5.63504">
        <ele>226.53</ele>
        <time>2016-06-01T13:36:51Z</time>
      </trkpt>
      <trkpt lat="47.05049" lon="5.63508">
        <ele>226.53</ele>
        <time>2016-06-01T13:36:54Z</time>
      </trkpt>
      <trkpt lat="47.05055" lon="5.63518">
        <ele>227.49</ele>
        <time>2016-06-01T13:37:02Z</time>
      </trkpt>
      <trkpt lat="47.05065" lon="5.63529">
        <ele>223.16</ele>
        <time>2016-06-01T13:37:15Z</time>
      </trkpt>
      <trkpt lat="47.05067" lon="5.63532">
        <ele>222.68</ele>
        <time>2016-06-01T13:37:17Z</time>
      </trkpt>
      <trkpt lat="47.05074" lon="5.63542">
        <ele>219.8</ele>
        <time>2016-06-01T13:37:26Z</time>
      </trkpt>
      <trkpt lat="47.05084" lon="5.63556">
        <ele>220.76</ele>
        <time>2016-06-01T13:37:37Z</time>
      </trkpt>
      <trkpt lat="47.05095" lon="5.63571">
        <ele>225.09</ele>
        <time>2016-06-01T13:37:48Z</time>
      </trkpt>
      <trkpt lat="47.051" lon="5.63576">
        <ele>225.57</ele>
        <time>2016-06-01T13:37:52Z</time>
      </trkpt>
      <trkpt lat="47.05108" lon="5.63591">
        <ele>225.57</ele>
        <time>2016-06-01T13:38:03Z</time>
      </trkpt>
      <trkpt lat="47.05115" lon="5.636">
        <ele>225.09</ele>
        <time>2016-06-01T13:38:11Z</time>
      </trkpt>
      <trkpt lat="47.05116" lon="5.63603">
        <ele>225.09</ele>
        <time>2016-06-01T13:38:13Z</time>
      </trkpt>
      <trkpt lat="47.0512" lon="5.63608">
        <ele>226.05</ele>
        <time>2016-06-01T13:38:17Z</time>
      </trkpt>
      <trkpt lat="47.05125" lon="5.63612">
        <ele>226.53</ele>
        <time>2016-06-01T13:38:22Z</time>
      </trkpt>
      <trkpt lat="47.05132" lon="5.6362">
        <ele>226.05</ele>
        <time>2016-06-01T13:38:30Z</time>
      </trkpt>
      <trkpt lat="47.05143" lon="5.63632">
        <ele>224.61</ele>
        <time>2016-06-01T13:38:43Z</time>
      </trkpt>
      <trkpt lat="47.05156" lon="5.63643">
        <ele>227.01</ele>
        <time>2016-06-01T13:38:53Z</time>
      </trkpt>
      <trkpt lat="47.0516" lon="5.63648">
        <ele>227.97</ele>
        <time>2016-06-01T13:38:58Z</time>
      </trkpt>
      <trkpt lat="47.05168" lon="5.63658">
        <ele>228.93</ele>
        <time>2016-06-01T13:39:05Z</time>
      </trkpt>
      <trkpt lat="47.0517" lon="5.63661">
        <ele>228.93</ele>
        <time>2016-06-01T13:39:08Z</time>
      </trkpt>
      <trkpt lat="47.05173" lon="5.6367">
        <ele>229.89</ele>
        <time>2016-06-01T13:39:14Z</time>
      </trkpt>
      <trkpt lat="47.05177" lon="5.63681">
        <ele>230.37</ele>
        <time>2016-06-01T13:39:21Z</time>
      </trkpt>
      <trkpt lat="47.05178" lon="5.63685">
        <ele>230.85</ele>
        <time>2016-06-01T13:39:23Z</time>
      </trkpt>
      <trkpt lat="47.05184" lon="5.63706">
        <ele>229.89</ele>
        <time>2016-06-01T13:39:35Z</time>
      </trkpt>
      <trkpt lat="47.05189" lon="5.63724">
        <ele>228.45</ele>
        <time>2016-06-01T13:39:47Z</time>
      </trkpt>
      <trkpt lat="47.0519" lon="5.63729">
        <ele>227.97</ele>
        <time>2016-06-01T13:39:50Z</time>
      </trkpt>
      <trkpt lat="47.05191" lon="5.63731">
        <ele>227.97</ele>
        <time>2016-06-01T13:39:52Z</time>
      </trkpt>
      <trkpt lat="47.05193" lon="5.63741">
        <ele>227.01</ele>
        <time>2016-06-01T13:39:58Z</time>
      </trkpt>
      <trkpt lat="47.05199" lon="5.63758">
        <ele>227.01</ele>
        <time>2016-06-01T13:40:08Z</time>
      </trkpt>
      <trkpt lat="47.05203" lon="5.63769">
        <ele>226.53</ele>
        <time>2016-06-01T13:40:16Z</time>
      </trkpt>
      <trkpt lat="47.05205" lon="5.63773">
        <ele>226.05</ele>
        <time>2016-06-01T13:40:18Z</time>
      </trkpt>
      <trkpt lat="47.05209" lon="5.63782">
        <ele>226.05</ele>
        <time>2016-06-01T13:40:25Z</time>
      </trkpt>
      <trkpt lat="47.05215" lon="5.63797">
        <ele>224.61</ele>
        <time>2016-06-01T13:40:35Z</time>
      </trkpt>
      <trkpt lat="47.05218" lon="5.638">
        <ele>224.61</ele>
        <time>2016-06-01T13:40:37Z</time>
      </trkpt>
      <trkpt lat="47.05227" lon="5.63815">
        <ele>224.61</ele>
        <time>2016-06-01T13:40:48Z</time>
      </trkpt>
      <trkpt lat="47.05231" lon="5.63819">
        <ele>225.09</ele>
        <time>2016-06-01T13:40:51Z</time>
      </trkpt>
      <trkpt lat="47.05236" lon="5.63825">
        <ele>225.57</ele>
        <time>2016-06-01T13:40:58Z</time>
      </trkpt>
      <trkpt lat="47.05244" lon="5.63832">
        <ele>225.09</ele>
        <time>2016-06-01T13:41:10Z</time>
      </trkpt>
      <trkpt lat="47.05258" lon="5.63841">
        <ele>226.05</ele>
        <time>2016-06-01T13:41:23Z</time>
      </trkpt>
      <trkpt lat="47.05269" lon="5.63848">
        <ele>229.89</ele>
        <time>2016-06-01T13:41:33Z</time>
      </trkpt>
      <trkpt lat="47.05274" lon="5.63849">
        <ele>230.37</ele>
        <time>2016-06-01T13:41:37Z</time>
      </trkpt>
      <trkpt lat="47.05284" lon="5.63855">
        <ele>232.78</ele>
        <time>2016-06-01T13:41:44Z</time>
      </trkpt>
      <trkpt lat="47.05287" lon="5.63859">
        <ele>233.26</ele>
        <time>2016-06-01T13:41:50Z</time>
      </trkpt>
      <trkpt lat="47.05298" lon="5.63865">
        <ele>231.81</ele>
        <time>2016-06-01T13:42:01Z</time>
      </trkpt>
      <trkpt lat="47.05304" lon="5.63867">
        <ele>230.85</ele>
        <time>2016-06-01T13:42:07Z</time>
      </trkpt>
      <trkpt lat="47.05314" lon="5.63877">
        <ele>231.33</ele>
        <time>2016-06-01T13:42:16Z</time>
      </trkpt>
      <trkpt lat="47.05319" lon="5.63881">
        <ele>230.85</ele>
        <time>2016-06-01T13:42:21Z</time>
      </trkpt>
      <trkpt lat="47.05324" lon="5.63886">
        <ele>232.3</ele>
        <time>2016-06-01T13:42:25Z</time>
      </trkpt>
      <trkpt lat="47.0533" lon="5.6389">
        <ele>232.3</ele>
        <time>2016-06-01T13:42:30Z</time>
      </trkpt>
      <trkpt lat="47.05334" lon="5.63897">
        <ele>232.78</ele>
        <time>2016-06-01T13:42:35Z</time>
      </trkpt>
      <trkpt lat="47.05343" lon="5.63908">
        <ele>229.89</ele>
        <time>2016-06-01T13:42:47Z</time>
      </trkpt>
      <trkpt lat="47.05346" lon="5.6391">
        <ele>228.45</ele>
        <time>2016-06-01T13:42:50Z</time>
      </trkpt>
      <trkpt lat="47.0535" lon="5.63919">
        <ele>227.01</ele>
        <time>2016-06-01T13:42:57Z</time>
      </trkpt>
      <trkpt lat="47.05354" lon="5.63926">
        <ele>225.57</ele>
        <time>2016-06-01T13:43:04Z</time>
      </trkpt>
      <trkpt lat="47.05356" lon="5.63933">
        <ele>225.57</ele>
        <time>2016-06-01T13:43:09Z</time>
      </trkpt>
      <trkpt lat="47.05358" lon="5.63945">
        <ele>226.53</ele>
        <time>2016-06-01T13:43:19Z</time>
      </trkpt>
      <trkpt lat="47.05359" lon="5.63951">
        <ele>226.05</ele>
        <time>2016-06-01T13:43:22Z</time>
      </trkpt>
      <trkpt lat="47.05367" lon="5.63958">
        <ele>226.53</ele>
        <time>2016-06-01T13:43:28Z</time>
      </trkpt>
      <trkpt lat="47.0537" lon="5.63961">
        <ele>226.53</ele>
        <time>2016-06-01T13:43:30Z</time>
      </trkpt>
      <trkpt lat="47.05377" lon="5.63966">
        <ele>228.93</ele>
        <time>2016-06-01T13:43:33Z</time>
      </trkpt>
      <trkpt lat="47.05389" lon="5.63975">
        <ele>231.81</ele>
        <time>2016-06-01T13:43:42Z</time>
      </trkpt>
      <trkpt lat="47.05396" lon="5.63985">
        <ele>234.22</ele>
        <time>2016-06-01T13:43:51Z</time>
      </trkpt>
      <trkpt lat="47.054" lon="5.6399">
        <ele>234.22</ele>
        <time>2016-06-01T13:43:55Z</time>
      </trkpt>
      <trkpt lat="47.05403" lon="5.63998">
        <ele>235.66</ele>
        <time>2016-06-01T13:44:06Z</time>
      </trkpt>
      <trkpt lat="47.05404" lon="5.63999">
        <ele>236.14</ele>
        <time>2016-06-01T13:44:07Z</time>
      </trkpt>
      <trkpt lat="47.05409" lon="5.64003">
        <ele>237.1</ele>
        <time>2016-06-01T13:44:20Z</time>
      </trkpt>
      <trkpt lat="47.05409" lon="5.64004">
        <ele>237.1</ele>
        <time>2016-06-01T13:44:21Z</time>
      </trkpt>
      <trkpt lat="47.05418" lon="5.64015">
        <ele>237.1</ele>
        <time>2016-06-01T13:44:32Z</time>
      </trkpt>
      <trkpt lat="47.05426" lon="5.6402">
        <ele>236.62</ele>
        <time>2016-06-01T13:44:45Z</time>
      </trkpt>
      <trkpt lat="47.05435" lon="5.64018">
        <ele>235.66</ele>
        <time>2016-06-01T13:44:58Z</time>
      </trkpt>
      <trkpt lat="47.05436" lon="5.64018">
        <ele>235.66</ele>
        <time>2016-06-01T13:44:59Z</time>
      </trkpt>
      <trkpt lat="47.05451" lon="5.64022">
        <ele>236.62</ele>
        <time>2016-06-01T13:45:09Z</time>
      </trkpt>
      <trkpt lat="47.05458" lon="5.64028">
        <ele>235.66</ele>
        <time>2016-06-01T13:45:20Z</time>
      </trkpt>
      <trkpt lat="47.0546" lon="5.64032">
        <ele>236.14</ele>
        <time>2016-06-01T13:45:34Z</time>
      </trkpt>
      <trkpt lat="47.05464" lon="5.64032">
        <ele>237.58</ele>
        <time>2016-06-01T13:45:48Z</time>
      </trkpt>
      <trkpt lat="47.05463" lon="5.64032">
        <ele>239.02</ele>
        <time>2016-06-01T13:46:03Z</time>
      </trkpt>
      <trkpt lat="47.05464" lon="5.6403">
        <ele>239.51</ele>
        <time>2016-06-01T13:46:11Z</time>
      </trkpt>
      <trkpt lat="47.05463" lon="5.64036">
        <ele>240.47</ele>
        <time>2016-06-01T13:46:23Z</time>
      </trkpt>
      <trkpt lat="47.05464" lon="5.64031">
        <ele>241.43</ele>
        <time>2016-06-01T13:46:41Z</time>
      </trkpt>
      <trkpt lat="47.05465" lon="5.64033">
        <ele>241.43</ele>
        <time>2016-06-01T13:46:52Z</time>
      </trkpt>
      <trkpt lat="47.05469" lon="5.64041">
        <ele>241.43</ele>
        <time>2016-06-01T13:47:02Z</time>
      </trkpt>
      <trkpt lat="47.05469" lon="5.64044">
        <ele>242.39</ele>
        <time>2016-06-01T13:47:24Z</time>
      </trkpt>
      <trkpt lat="47.05474" lon="5.64051">
        <ele>241.91</ele>
        <time>2016-06-01T13:47:36Z</time>
      </trkpt>
      <trkpt lat="47.05476" lon="5.64056">
        <ele>241.43</ele>
        <time>2016-06-01T13:47:50Z</time>
      </trkpt>
      <trkpt lat="47.05477" lon="5.64057">
        <ele>240.95</ele>
        <time>2016-06-01T13:48:00Z</time>
      </trkpt>
      <trkpt lat="47.05477" lon="5.64058">
        <ele>239.51</ele>
        <time>2016-06-01T13:48:07Z</time>
      </trkpt>
      <trkpt lat="47.05477" lon="5.64056">
        <ele>235.66</ele>
        <time>2016-06-01T13:48:24Z</time>
      </trkpt>
      <trkpt lat="47.05482" lon="5.64058">
        <ele>234.7</ele>
        <time>2016-06-01T13:48:39Z</time>
      </trkpt>
      <trkpt lat="47.05486" lon="5.6406">
        <ele>234.7</ele>
        <time>2016-06-01T13:48:54Z</time>
      </trkpt>
      <trkpt lat="47.05485" lon="5.64067">
        <ele>234.22</ele>
        <time>2016-06-01T13:49:07Z</time>
      </trkpt>
      <trkpt lat="47.05484" lon="5.64069">
        <ele>234.22</ele>
        <time>2016-06-01T13:49:10Z</time>
      </trkpt>
      <trkpt lat="47.0549" lon="5.64073">
        <ele>235.66</ele>
        <time>2016-06-01T13:49:23Z</time>
      </trkpt>
      <trkpt lat="47.05494" lon="5.64072">
        <ele>236.14</ele>
        <time>2016-06-01T13:49:35Z</time>
      </trkpt>
      <trkpt lat="47.05496" lon="5.64074">
        <ele>235.18</ele>
        <time>2016-06-01T13:49:57Z</time>
      </trkpt>
      <trkpt lat="47.05497" lon="5.64075">
        <ele>234.7</ele>
        <time>2016-06-01T13:50:12Z</time>
      </trkpt>
      <trkpt lat="47.05498" lon="5.64074">
        <ele>235.66</ele>
        <time>2016-06-01T13:50:31Z</time>
      </trkpt>
      <trkpt lat="47.05498" lon="5.64074">
        <ele>236.62</ele>
        <time>2016-06-01T13:50:45Z</time>
      </trkpt>
      <trkpt lat="47.05498" lon="5.64072">
        <ele>237.1</ele>
        <time>2016-06-01T13:51:01Z</time>
      </trkpt>
      <trkpt lat="47.05492" lon="5.64068">
        <ele>238.06</ele>
        <time>2016-06-01T13:51:19Z</time>
      </trkpt>
      <trkpt lat="47.05499" lon="5.64079">
        <ele>241.91</ele>
        <time>2016-06-01T13:51:31Z</time>
      </trkpt>
      <trkpt lat="47.05498" lon="5.64079">
        <ele>238.54</ele>
        <time>2016-06-01T13:51:43Z</time>
      </trkpt>
      <trkpt lat="47.05504" lon="5.6406">
        <ele>237.58</ele>
        <time>2016-06-01T13:51:58Z</time>
      </trkpt>
      <trkpt lat="47.05511" lon="5.64054">
        <ele>238.06</ele>
        <time>2016-06-01T13:52:06Z</time>
      </trkpt>
      <trkpt lat="47.05525" lon="5.64045">
        <ele>239.99</ele>
        <time>2016-06-01T13:52:19Z</time>
      </trkpt>
      <trkpt lat="47.05528" lon="5.64036">
        <ele>238.06</ele>
        <time>2016-06-01T13:52:34Z</time>
      </trkpt>
      <trkpt lat="47.05528" lon="5.64032">
        <ele>238.54</ele>
        <time>2016-06-01T13:52:55Z</time>
      </trkpt>
      <trkpt lat="47.05526" lon="5.64033">
        <ele>239.99</ele>
        <time>2016-06-01T13:53:10Z</time>
      </trkpt>
      <trkpt lat="47.05523" lon="5.64043">
        <ele>239.02</ele>
        <time>2016-06-01T13:53:21Z</time>
      </trkpt>
      <trkpt lat="47.05519" lon="5.6406">
        <ele>237.58</ele>
        <time>2016-06-01T13:53:36Z</time>
      </trkpt>
      <trkpt lat="47.05509" lon="5.64075">
        <ele>238.06</ele>
        <time>2016-06-01T13:53:48Z</time>
      </trkpt>
      <trkpt lat="47.05505" lon="5.64082">
        <ele>231.81</ele>
        <time>2016-06-01T13:53:59Z</time>
      </trkpt>
      <trkpt lat="47.055" lon="5.64095">
        <ele>229.41</ele>
        <time>2016-06-01T13:54:10Z</time>
      </trkpt>
      <trkpt lat="47.0549" lon="5.64105">
        <ele>230.85</ele>
        <time>2016-06-01T13:54:25Z</time>
      </trkpt>
      <trkpt lat="47.0549" lon="5.64114">
        <ele>230.85</ele>
        <time>2016-06-01T13:54:39Z</time>
      </trkpt>
      <trkpt lat="47.05492" lon="5.64125">
        <ele>229.41</ele>
        <time>2016-06-01T13:54:51Z</time>
      </trkpt>
      <trkpt lat="47.0549" lon="5.64131">
        <ele>230.37</ele>
        <time>2016-06-01T13:55:13Z</time>
      </trkpt>
      <trkpt lat="47.05495" lon="5.64133">
        <ele>233.26</ele>
        <time>2016-06-01T13:55:26Z</time>
      </trkpt>
      <trkpt lat="47.05501" lon="5.64141">
        <ele>234.7</ele>
        <time>2016-06-01T13:55:41Z</time>
      </trkpt>
      <trkpt lat="47.05504" lon="5.64151">
        <ele>233.74</ele>
        <time>2016-06-01T13:55:53Z</time>
      </trkpt>
      <trkpt lat="47.05508" lon="5.64168">
        <ele>234.22</ele>
        <time>2016-06-01T13:56:05Z</time>
      </trkpt>
      <trkpt lat="47.05509" lon="5.64182">
        <ele>234.7</ele>
        <time>2016-06-01T13:56:16Z</time>
      </trkpt>
      <trkpt lat="47.05504" lon="5.64192">
        <ele>232.78</ele>
        <time>2016-06-01T13:56:28Z</time>
      </trkpt>
      <trkpt lat="47.05502" lon="5.64212">
        <ele>234.22</ele>
        <time>2016-06-01T13:56:41Z</time>
      </trkpt>
      <trkpt lat="47.05498" lon="5.64216">
        <ele>234.7</ele>
        <time>2016-06-01T13:56:54Z</time>
      </trkpt>
      <trkpt lat="47.05491" lon="5.64221">
        <ele>233.74</ele>
        <time>2016-06-01T13:57:06Z</time>
      </trkpt>
      <trkpt lat="47.05486" lon="5.64224">
        <ele>235.18</ele>
        <time>2016-06-01T13:57:21Z</time>
      </trkpt>
      <trkpt lat="47.05485" lon="5.64225">
        <ele>234.7</ele>
        <time>2016-06-01T13:57:39Z</time>
      </trkpt>
      <trkpt lat="47.05485" lon="5.64226">
        <ele>234.22</ele>
        <time>2016-06-01T13:58:00Z</time>
      </trkpt>
      <trkpt lat="47.05484" lon="5.64226">
        <ele>233.74</ele>
        <time>2016-06-01T13:58:31Z</time>
      </trkpt>
      <trkpt lat="47.05483" lon="5.64226">
        <ele>232.3</ele>
        <time>2016-06-01T13:59:05Z</time>
      </trkpt>
      <trkpt lat="47.0548" lon="5.64227">
        <ele>230.37</ele>
        <time>2016-06-01T13:59:27Z</time>
      </trkpt>
      <trkpt lat="47.05479" lon="5.64227">
        <ele>231.33</ele>
        <time>2016-06-01T13:59:53Z</time>
      </trkpt>
      <trkpt lat="47.05477" lon="5.64227">
        <ele>231.33</ele>
        <time>2016-06-01T14:00:21Z</time>
      </trkpt>
      <trkpt lat="47.05477" lon="5.64226">
        <ele>230.85</ele>
        <time>2016-06-01T14:00:35Z</time>
      </trkpt>
      <trkpt lat="47.05477" lon="5.64226">
        <ele>230.37</ele>
        <time>2016-06-01T14:00:52Z</time>
      </trkpt>
      <trkpt lat="47.05477" lon="5.64228">
        <ele>230.37</ele>
        <time>2016-06-01T14:01:06Z</time>
      </trkpt>
      <trkpt lat="47.05476" lon="5.64228">
        <ele>230.37</ele>
        <time>2016-06-01T14:01:26Z</time>
      </trkpt>
      <trkpt lat="47.05478" lon="5.64227">
        <ele>230.37</ele>
        <time>2016-06-01T14:01:54Z</time>
      </trkpt>
      <trkpt lat="47.0548" lon="5.64223">
        <ele>231.81</ele>
        <time>2016-06-01T14:02:13Z</time>
      </trkpt>
      <trkpt lat="47.05483" lon="5.64222">
        <ele>233.26</ele>
        <time>2016-06-01T14:02:22Z</time>
      </trkpt>
      <trkpt lat="47.05493" lon="5.6422">
        <ele>232.78</ele>
        <time>2016-06-01T14:02:35Z</time>
      </trkpt>
      <trkpt lat="47.05495" lon="5.64219">
        <ele>233.26</ele>
        <time>2016-06-01T14:02:38Z</time>
      </trkpt>
      <trkpt lat="47.055" lon="5.6421">
        <ele>232.78</ele>
        <time>2016-06-01T14:02:52Z</time>
      </trkpt>
      <trkpt lat="47.05501" lon="5.64208">
        <ele>233.26</ele>
        <time>2016-06-01T14:03:06Z</time>
      </trkpt>
      <trkpt lat="47.055" lon="5.64207">
        <ele>234.7</ele>
        <time>2016-06-01T14:03:24Z</time>
      </trkpt>
      <trkpt lat="47.05499" lon="5.64206">
        <ele>234.7</ele>
        <time>2016-06-01T14:03:39Z</time>
      </trkpt>
      <trkpt lat="47.05499" lon="5.64204">
        <ele>235.18</ele>
        <time>2016-06-01T14:03:51Z</time>
      </trkpt>
      <trkpt lat="47.05503" lon="5.64213">
        <ele>238.06</ele>
        <time>2016-06-01T14:04:10Z</time>
      </trkpt>
      <trkpt lat="47.0551" lon="5.64221">
        <ele>239.51</ele>
        <time>2016-06-01T14:04:25Z</time>
      </trkpt>
      <trkpt lat="47.05515" lon="5.64219">
        <ele>239.02</ele>
        <time>2016-06-01T14:04:32Z</time>
      </trkpt>
      <trkpt lat="47.05516" lon="5.64217">
        <ele>239.99</ele>
        <time>2016-06-01T14:04:46Z</time>
      </trkpt>
      <trkpt lat="47.05512" lon="5.64203">
        <ele>239.99</ele>
        <time>2016-06-01T14:05:00Z</time>
      </trkpt>
      <trkpt lat="47.05511" lon="5.64194">
        <ele>239.99</ele>
        <time>2016-06-01T14:05:13Z</time>
      </trkpt>
      <trkpt lat="47.05509" lon="5.64183">
        <ele>238.54</ele>
        <time>2016-06-01T14:05:27Z</time>
      </trkpt>
      <trkpt lat="47.05505" lon="5.64172">
        <ele>239.99</ele>
        <time>2016-06-01T14:05:46Z</time>
      </trkpt>
      <trkpt lat="47.05504" lon="5.64163">
        <ele>239.99</ele>
        <time>2016-06-01T14:06:06Z</time>
      </trkpt>
      <trkpt lat="47.055" lon="5.64148">
        <ele>239.51</ele>
        <time>2016-06-01T14:06:16Z</time>
      </trkpt>
      <trkpt lat="47.05493" lon="5.64131">
        <ele>237.58</ele>
        <time>2016-06-01T14:06:28Z</time>
      </trkpt>
      <trkpt lat="47.0549" lon="5.64129">
        <ele>237.1</ele>
        <time>2016-06-01T14:06:32Z</time>
      </trkpt>
      <trkpt lat="47.05475" lon="5.64116">
        <ele>243.83</ele>
        <time>2016-06-01T14:06:47Z</time>
      </trkpt>
      <trkpt lat="47.05472" lon="5.64116">
        <ele>243.83</ele>
        <time>2016-06-01T14:07:06Z</time>
      </trkpt>
      <trkpt lat="47.05464" lon="5.64114">
        <ele>242.87</ele>
        <time>2016-06-01T14:07:22Z</time>
      </trkpt>
      <trkpt lat="47.05463" lon="5.64113">
        <ele>242.39</ele>
        <time>2016-06-01T14:07:24Z</time>
      </trkpt>
      <trkpt lat="47.05451" lon="5.64102">
        <ele>240.95</ele>
        <time>2016-06-01T14:07:38Z</time>
      </trkpt>
      <trkpt lat="47.05442" lon="5.64085">
        <ele>239.02</ele>
        <time>2016-06-01T14:07:54Z</time>
      </trkpt>
      <trkpt lat="47.05435" lon="5.64058">
        <ele>238.54</ele>
        <time>2016-06-01T14:08:11Z</time>
      </trkpt>
      <trkpt lat="47.05432" lon="5.6403">
        <ele>237.1</ele>
        <time>2016-06-01T14:08:27Z</time>
      </trkpt>
      <trkpt lat="47.05429" lon="5.64024">
        <ele>238.06</ele>
        <time>2016-06-01T14:08:55Z</time>
      </trkpt>
      <trkpt lat="47.05418" lon="5.64007">
        <ele>236.14</ele>
        <time>2016-06-01T14:09:12Z</time>
      </trkpt>
      <trkpt lat="47.05415" lon="5.64002">
        <ele>235.66</ele>
        <time>2016-06-01T14:09:17Z</time>
      </trkpt>
      <trkpt lat="47.05405" lon="5.63994">
        <ele>234.22</ele>
        <time>2016-06-01T14:09:29Z</time>
      </trkpt>
      <trkpt lat="47.05389" lon="5.63984">
        <ele>232.3</ele>
        <time>2016-06-01T14:09:39Z</time>
      </trkpt>
      <trkpt lat="47.05382" lon="5.63971">
        <ele>228.45</ele>
        <time>2016-06-01T14:09:51Z</time>
      </trkpt>
      <trkpt lat="47.05373" lon="5.63956">
        <ele>226.05</ele>
        <time>2016-06-01T14:10:04Z</time>
      </trkpt>
      <trkpt lat="47.05365" lon="5.63948">
        <ele>228.93</ele>
        <time>2016-06-01T14:10:13Z</time>
      </trkpt>
      <trkpt lat="47.0536" lon="5.63941">
        <ele>229.41</ele>
        <time>2016-06-01T14:10:18Z</time>
      </trkpt>
      <trkpt lat="47.05352" lon="5.63931">
        <ele>229.89</ele>
        <time>2016-06-01T14:10:27Z</time>
      </trkpt>
      <trkpt lat="47.05348" lon="5.63925">
        <ele>231.81</ele>
        <time>2016-06-01T14:10:32Z</time>
      </trkpt>
      <trkpt lat="47.0534" lon="5.63911">
        <ele>231.81</ele>
        <time>2016-06-01T14:10:43Z</time>
      </trkpt>
      <trkpt lat="47.05333" lon="5.639">
        <ele>231.81</ele>
        <time>2016-06-01T14:10:51Z</time>
      </trkpt>
      <trkpt lat="47.05318" lon="5.63884">
        <ele>231.33</ele>
        <time>2016-06-01T14:11:07Z</time>
      </trkpt>
      <trkpt lat="47.05315" lon="5.6388">
        <ele>230.37</ele>
        <time>2016-06-01T14:11:11Z</time>
      </trkpt>
      <trkpt lat="47.05307" lon="5.63873">
        <ele>229.89</ele>
        <time>2016-06-01T14:11:18Z</time>
      </trkpt>
      <trkpt lat="47.05301" lon="5.63872">
        <ele>230.85</ele>
        <time>2016-06-01T14:11:23Z</time>
      </trkpt>
      <trkpt lat="47.05298" lon="5.63869">
        <ele>230.37</ele>
        <time>2016-06-01T14:11:26Z</time>
      </trkpt>
      <trkpt lat="47.05288" lon="5.63863">
        <ele>229.89</ele>
        <time>2016-06-01T14:11:35Z</time>
      </trkpt>
      <trkpt lat="47.05275" lon="5.63851">
        <ele>227.49</ele>
        <time>2016-06-01T14:11:51Z</time>
      </trkpt>
      <trkpt lat="47.05261" lon="5.63846">
        <ele>225.09</ele>
        <time>2016-06-01T14:12:04Z</time>
      </trkpt>
      <trkpt lat="47.05243" lon="5.63836">
        <ele>224.12</ele>
        <time>2016-06-01T14:12:18Z</time>
      </trkpt>
      <trkpt lat="47.05229" lon="5.63823">
        <ele>224.12</ele>
        <time>2016-06-01T14:12:31Z</time>
      </trkpt>
      <trkpt lat="47.05224" lon="5.63816">
        <ele>224.61</ele>
        <time>2016-06-01T14:12:37Z</time>
      </trkpt>
      <trkpt lat="47.05216" lon="5.63798">
        <ele>223.16</ele>
        <time>2016-06-01T14:12:50Z</time>
      </trkpt>
      <trkpt lat="47.05207" lon="5.63779">
        <ele>225.09</ele>
        <time>2016-06-01T14:13:02Z</time>
      </trkpt>
      <trkpt lat="47.05201" lon="5.63763">
        <ele>224.12</ele>
        <time>2016-06-01T14:13:13Z</time>
      </trkpt>
      <trkpt lat="47.05197" lon="5.63755">
        <ele>224.61</ele>
        <time>2016-06-01T14:13:18Z</time>
      </trkpt>
      <trkpt lat="47.0519" lon="5.63732">
        <ele>223.16</ele>
        <time>2016-06-01T14:13:33Z</time>
      </trkpt>
      <trkpt lat="47.05186" lon="5.63715">
        <ele>222.2</ele>
        <time>2016-06-01T14:13:44Z</time>
      </trkpt>
      <trkpt lat="47.05181" lon="5.63692">
        <ele>222.2</ele>
        <time>2016-06-01T14:13:58Z</time>
      </trkpt>
      <trkpt lat="47.05172" lon="5.63668">
        <ele>223.16</ele>
        <time>2016-06-01T14:14:12Z</time>
      </trkpt>
      <trkpt lat="47.05159" lon="5.63648">
        <ele>224.12</ele>
        <time>2016-06-01T14:14:27Z</time>
      </trkpt>
      <trkpt lat="47.05146" lon="5.63635">
        <ele>223.64</ele>
        <time>2016-06-01T14:14:39Z</time>
      </trkpt>
      <trkpt lat="47.05131" lon="5.63621">
        <ele>224.61</ele>
        <time>2016-06-01T14:14:54Z</time>
      </trkpt>
      <trkpt lat="47.05116" lon="5.63604">
        <ele>226.05</ele>
        <time>2016-06-01T14:15:09Z</time>
      </trkpt>
      <trkpt lat="47.05109" lon="5.63594">
        <ele>226.53</ele>
        <time>2016-06-01T14:15:24Z</time>
      </trkpt>
      <trkpt lat="47.05102" lon="5.63586">
        <ele>225.57</ele>
        <time>2016-06-01T14:15:33Z</time>
      </trkpt>
      <trkpt lat="47.05091" lon="5.63574">
        <ele>222.2</ele>
        <time>2016-06-01T14:15:45Z</time>
      </trkpt>
      <trkpt lat="47.05089" lon="5.63571">
        <ele>221.24</ele>
        <time>2016-06-01T14:15:47Z</time>
      </trkpt>
      <trkpt lat="47.05082" lon="5.63554">
        <ele>218.36</ele>
        <time>2016-06-01T14:16:00Z</time>
      </trkpt>
      <trkpt lat="47.05081" lon="5.63552">
        <ele>218.36</ele>
        <time>2016-06-01T14:16:01Z</time>
      </trkpt>
      <trkpt lat="47.05076" lon="5.63546">
        <ele>217.4</ele>
        <time>2016-06-01T14:16:06Z</time>
      </trkpt>
      <trkpt lat="47.05071" lon="5.6354">
        <ele>217.88</ele>
        <time>2016-06-01T14:16:11Z</time>
      </trkpt>
      <trkpt lat="47.05058" lon="5.63524">
        <ele>217.4</ele>
        <time>2016-06-01T14:16:25Z</time>
      </trkpt>
      <trkpt lat="47.05053" lon="5.63516">
        <ele>216.43</ele>
        <time>2016-06-01T14:16:32Z</time>
      </trkpt>
      <trkpt lat="47.0504" lon="5.63498">
        <ele>218.36</ele>
        <time>2016-06-01T14:16:46Z</time>
      </trkpt>
      <trkpt lat="47.05038" lon="5.63493">
        <ele>218.36</ele>
        <time>2016-06-01T14:16:49Z</time>
      </trkpt>
      <trkpt lat="47.05027" lon="5.63473">
        <ele>219.8</ele>
        <time>2016-06-01T14:17:03Z</time>
      </trkpt>
      <trkpt lat="47.05018" lon="5.63454">
        <ele>221.24</ele>
        <time>2016-06-01T14:17:16Z</time>
      </trkpt>
      <trkpt lat="47.05009" lon="5.63432">
        <ele>221.24</ele>
        <time>2016-06-01T14:17:30Z</time>
      </trkpt>
      <trkpt lat="47.05001" lon="5.63412">
        <ele>219.32</ele>
        <time>2016-06-01T14:17:44Z</time>
      </trkpt>
      <trkpt lat="47.04996" lon="5.63395">
        <ele>218.36</ele>
        <time>2016-06-01T14:17:54Z</time>
      </trkpt>
      <trkpt lat="47.04993" lon="5.63386">
        <ele>218.36</ele>
        <time>2016-06-01T14:17:59Z</time>
      </trkpt>
      <trkpt lat="47.0499" lon="5.6338">
        <ele>218.36</ele>
        <time>2016-06-01T14:18:03Z</time>
      </trkpt>
      <trkpt lat="47.0498" lon="5.63358">
        <ele>219.8</ele>
        <time>2016-06-01T14:18:18Z</time>
      </trkpt>
      <trkpt lat="47.04978" lon="5.63355">
        <ele>219.8</ele>
        <time>2016-06-01T14:18:20Z</time>
      </trkpt>
      <trkpt lat="47.04976" lon="5.63349">
        <ele>219.8</ele>
        <time>2016-06-01T14:18:24Z</time>
      </trkpt>
      <trkpt lat="47.04974" lon="5.63346">
        <ele>219.8</ele>
        <time>2016-06-01T14:18:26Z</time>
      </trkpt>
      <trkpt lat="47.04967" lon="5.63331">
        <ele>221.72</ele>
        <time>2016-06-01T14:18:36Z</time>
      </trkpt>
      <trkpt lat="47.04965" lon="5.63328">
        <ele>221.72</ele>
        <time>2016-06-01T14:18:38Z</time>
      </trkpt>
      <trkpt lat="47.04956" lon="5.63312">
        <ele>219.32</ele>
        <time>2016-06-01T14:18:51Z</time>
      </trkpt>
      <trkpt lat="47.04949" lon="5.63297">
        <ele>218.36</ele>
        <time>2016-06-01T14:19:03Z</time>
      </trkpt>
      <trkpt lat="47.0494" lon="5.63285">
        <ele>216.43</ele>
        <time>2016-06-01T14:19:15Z</time>
      </trkpt>
      <trkpt lat="47.04932" lon="5.63275">
        <ele>217.4</ele>
        <time>2016-06-01T14:19:22Z</time>
      </trkpt>
      <trkpt lat="47.04919" lon="5.63251">
        <ele>221.24</ele>
        <time>2016-06-01T14:19:37Z</time>
      </trkpt>
      <trkpt lat="47.04906" lon="5.63227">
        <ele>223.64</ele>
        <time>2016-06-01T14:19:52Z</time>
      </trkpt>
      <trkpt lat="47.04899" lon="5.63213">
        <ele>223.16</ele>
        <time>2016-06-01T14:20:02Z</time>
      </trkpt>
      <trkpt lat="47.04896" lon="5.63207">
        <ele>223.64</ele>
        <time>2016-06-01T14:20:06Z</time>
      </trkpt>
      <trkpt lat="47.04885" lon="5.63187">
        <ele>223.64</ele>
        <time>2016-06-01T14:20:20Z</time>
      </trkpt>
      <trkpt lat="47.04877" lon="5.63172">
        <ele>223.64</ele>
        <time>2016-06-01T14:20:31Z</time>
      </trkpt>
      <trkpt lat="47.04868" lon="5.63154">
        <ele>223.16</ele>
        <time>2016-06-01T14:20:44Z</time>
      </trkpt>
      <trkpt lat="47.04866" lon="5.63146">
        <ele>222.68</ele>
        <time>2016-06-01T14:20:50Z</time>
      </trkpt>
      <trkpt lat="47.04855" lon="5.63126">
        <ele>224.12</ele>
        <time>2016-06-01T14:21:03Z</time>
      </trkpt>
      <trkpt lat="47.04848" lon="5.63107">
        <ele>222.68</ele>
        <time>2016-06-01T14:21:16Z</time>
      </trkpt>
      <trkpt lat="47.04846" lon="5.63102">
        <ele>223.16</ele>
        <time>2016-06-01T14:21:20Z</time>
      </trkpt>
      <trkpt lat="47.04837" lon="5.63079">
        <ele>222.68</ele>
        <time>2016-06-01T14:21:34Z</time>
      </trkpt>
      <trkpt lat="47.04836" lon="5.63075">
        <ele>223.16</ele>
        <time>2016-06-01T14:21:37Z</time>
      </trkpt>
      <trkpt lat="47.04831" lon="5.63055">
        <ele>223.16</ele>
        <time>2016-06-01T14:21:49Z</time>
      </trkpt>
      <trkpt lat="47.04822" lon="5.63034">
        <ele>223.16</ele>
        <time>2016-06-01T14:22:03Z</time>
      </trkpt>
      <trkpt lat="47.04816" lon="5.63015">
        <ele>224.12</ele>
        <time>2016-06-01T14:22:15Z</time>
      </trkpt>
      <trkpt lat="47.04815" lon="5.63012">
        <ele>224.61</ele>
        <time>2016-06-01T14:22:17Z</time>
      </trkpt>
      <trkpt lat="47.04813" lon="5.63006">
        <ele>224.61</ele>
        <time>2016-06-01T14:22:21Z</time>
      </trkpt>
      <trkpt lat="47.04808" lon="5.62994">
        <ele>223.16</ele>
        <time>2016-06-01T14:22:29Z</time>
      </trkpt>
      <trkpt lat="47.048" lon="5.62976">
        <ele>221.72</ele>
        <time>2016-06-01T14:22:43Z</time>
      </trkpt>
      <trkpt lat="47.0479" lon="5.62963">
        <ele>222.68</ele>
        <time>2016-06-01T14:22:53Z</time>
      </trkpt>
      <trkpt lat="47.04786" lon="5.62957">
        <ele>221.72</ele>
        <time>2016-06-01T14:22:58Z</time>
      </trkpt>
      <trkpt lat="47.04772" lon="5.62938">
        <ele>221.24</ele>
        <time>2016-06-01T14:23:13Z</time>
      </trkpt>
      <trkpt lat="47.04763" lon="5.62924">
        <ele>222.2</ele>
        <time>2016-06-01T14:23:25Z</time>
      </trkpt>
      <trkpt lat="47.04756" lon="5.62913">
        <ele>222.68</ele>
        <time>2016-06-01T14:23:33Z</time>
      </trkpt>
      <trkpt lat="47.04749" lon="5.62895">
        <ele>223.16</ele>
        <time>2016-06-01T14:23:44Z</time>
      </trkpt>
      <trkpt lat="47.04745" lon="5.6289">
        <ele>224.12</ele>
        <time>2016-06-01T14:23:48Z</time>
      </trkpt>
      <trkpt lat="47.04741" lon="5.62875">
        <ele>224.12</ele>
        <time>2016-06-01T14:23:57Z</time>
      </trkpt>
      <trkpt lat="47.04732" lon="5.62852">
        <ele>225.09</ele>
        <time>2016-06-01T14:24:12Z</time>
      </trkpt>
      <trkpt lat="47.04724" lon="5.62836">
        <ele>223.64</ele>
        <time>2016-06-01T14:24:25Z</time>
      </trkpt>
      <trkpt lat="47.04724" lon="5.62835">
        <ele>223.64</ele>
        <time>2016-06-01T14:24:26Z</time>
      </trkpt>
      <trkpt lat="47.04706" lon="5.62834">
        <ele>223.16</ele>
        <time>2016-06-01T14:24:41Z</time>
      </trkpt>
      <trkpt lat="47.04692" lon="5.6284">
        <ele>224.61</ele>
        <time>2016-06-01T14:24:53Z</time>
      </trkpt>
      <trkpt lat="47.04676" lon="5.62848">
        <ele>225.57</ele>
        <time>2016-06-01T14:25:06Z</time>
      </trkpt>
      <trkpt lat="47.04661" lon="5.62853">
        <ele>226.05</ele>
        <time>2016-06-01T14:25:19Z</time>
      </trkpt>
      <trkpt lat="47.04651" lon="5.62858">
        <ele>225.57</ele>
        <time>2016-06-01T14:25:28Z</time>
      </trkpt>
      <trkpt lat="47.04633" lon="5.62865">
        <ele>225.57</ele>
        <time>2016-06-01T14:25:42Z</time>
      </trkpt>
      <trkpt lat="47.04627" lon="5.62866">
        <ele>225.09</ele>
        <time>2016-06-01T14:25:48Z</time>
      </trkpt>
      <trkpt lat="47.04611" lon="5.62873">
        <ele>224.12</ele>
        <time>2016-06-01T14:26:02Z</time>
      </trkpt>
      <trkpt lat="47.04598" lon="5.6288">
        <ele>226.05</ele>
        <time>2016-06-01T14:26:14Z</time>
      </trkpt>
      <trkpt lat="47.04586" lon="5.62889">
        <ele>226.53</ele>
        <time>2016-06-01T14:26:26Z</time>
      </trkpt>
      <trkpt lat="47.04581" lon="5.62891">
        <ele>226.05</ele>
        <time>2016-06-01T14:26:31Z</time>
      </trkpt>
      <trkpt lat="47.04573" lon="5.62901">
        <ele>227.01</ele>
        <time>2016-06-01T14:26:40Z</time>
      </trkpt>
      <trkpt lat="47.04562" lon="5.62914">
        <ele>227.01</ele>
        <time>2016-06-01T14:26:51Z</time>
      </trkpt>
      <trkpt lat="47.04557" lon="5.6292">
        <ele>226.53</ele>
        <time>2016-06-01T14:26:55Z</time>
      </trkpt>
      <trkpt lat="47.04543" lon="5.62932">
        <ele>225.09</ele>
        <time>2016-06-01T14:27:08Z</time>
      </trkpt>
      <trkpt lat="47.04528" lon="5.62945">
        <ele>225.09</ele>
        <time>2016-06-01T14:27:21Z</time>
      </trkpt>
      <trkpt lat="47.04512" lon="5.62951">
        <ele>226.05</ele>
        <time>2016-06-01T14:27:34Z</time>
      </trkpt>
      <trkpt lat="47.04498" lon="5.62952">
        <ele>226.53</ele>
        <time>2016-06-01T14:27:46Z</time>
      </trkpt>
      <trkpt lat="47.04488" lon="5.62951">
        <ele>224.61</ele>
        <time>2016-06-01T14:27:55Z</time>
      </trkpt>
      <trkpt lat="47.04485" lon="5.62952">
        <ele>224.61</ele>
        <time>2016-06-01T14:27:57Z</time>
      </trkpt>
      <trkpt lat="47.04482" lon="5.62951">
        <ele>224.12</ele>
        <time>2016-06-01T14:28:00Z</time>
      </trkpt>
      <trkpt lat="47.04472" lon="5.62956">
        <ele>226.05</ele>
        <time>2016-06-01T14:28:09Z</time>
      </trkpt>
      <trkpt lat="47.04456" lon="5.62964">
        <ele>226.05</ele>
        <time>2016-06-01T14:28:22Z</time>
      </trkpt>
      <trkpt lat="47.04452" lon="5.62967">
        <ele>226.05</ele>
        <time>2016-06-01T14:28:26Z</time>
      </trkpt>
      <trkpt lat="47.04437" lon="5.62974">
        <ele>227.01</ele>
        <time>2016-06-01T14:28:39Z</time>
      </trkpt>
      <trkpt lat="47.04425" lon="5.62977">
        <ele>228.93</ele>
        <time>2016-06-01T14:28:49Z</time>
      </trkpt>
      <trkpt lat="47.04412" lon="5.62975">
        <ele>231.81</ele>
        <time>2016-06-01T14:28:59Z</time>
      </trkpt>
      <trkpt lat="47.04401" lon="5.62971">
        <ele>229.89</ele>
        <time>2016-06-01T14:29:08Z</time>
      </trkpt>
      <trkpt lat="47.04385" lon="5.62966">
        <ele>227.97</ele>
        <time>2016-06-01T14:29:23Z</time>
      </trkpt>
      <trkpt lat="47.04384" lon="5.62966">
        <ele>228.45</ele>
        <time>2016-06-01T14:29:24Z</time>
      </trkpt>
      <trkpt lat="47.04368" lon="5.62963">
        <ele>230.85</ele>
        <time>2016-06-01T14:29:37Z</time>
      </trkpt>
      <trkpt lat="47.04355" lon="5.62962">
        <ele>232.3</ele>
        <time>2016-06-01T14:29:49Z</time>
      </trkpt>
      <trkpt lat="47.04342" lon="5.62966">
        <ele>232.3</ele>
        <time>2016-06-01T14:30:00Z</time>
      </trkpt>
      <trkpt lat="47.04334" lon="5.62972">
        <ele>231.81</ele>
        <time>2016-06-01T14:30:08Z</time>
      </trkpt>
      <trkpt lat="47.04328" lon="5.62977">
        <ele>231.81</ele>
        <time>2016-06-01T14:30:13Z</time>
      </trkpt>
      <trkpt lat="47.04317" lon="5.62987">
        <ele>231.81</ele>
        <time>2016-06-01T14:30:25Z</time>
      </trkpt>
      <trkpt lat="47.04314" lon="5.62988">
        <ele>231.33</ele>
        <time>2016-06-01T14:30:28Z</time>
      </trkpt>
      <trkpt lat="47.04303" lon="5.63003">
        <ele>231.33</ele>
        <time>2016-06-01T14:30:40Z</time>
      </trkpt>
      <trkpt lat="47.04302" lon="5.63004">
        <ele>231.33</ele>
        <time>2016-06-01T14:30:41Z</time>
      </trkpt>
      <trkpt lat="47.04299" lon="5.63007">
        <ele>231.33</ele>
        <time>2016-06-01T14:30:44Z</time>
      </trkpt>
      <trkpt lat="47.04294" lon="5.63013">
        <ele>230.85</ele>
        <time>2016-06-01T14:30:50Z</time>
      </trkpt>
      <trkpt lat="47.0429" lon="5.63018">
        <ele>230.85</ele>
        <time>2016-06-01T14:30:54Z</time>
      </trkpt>
      <trkpt lat="47.04284" lon="5.63026">
        <ele>231.33</ele>
        <time>2016-06-01T14:31:01Z</time>
      </trkpt>
      <trkpt lat="47.04281" lon="5.63029">
        <ele>231.81</ele>
        <time>2016-06-01T14:31:04Z</time>
      </trkpt>
      <trkpt lat="47.04277" lon="5.63032">
        <ele>231.33</ele>
        <time>2016-06-01T14:31:08Z</time>
      </trkpt>
      <trkpt lat="47.04268" lon="5.63042">
        <ele>231.81</ele>
        <time>2016-06-01T14:31:19Z</time>
      </trkpt>
      <trkpt lat="47.04255" lon="5.63056">
        <ele>232.78</ele>
        <time>2016-06-01T14:31:33Z</time>
      </trkpt>
      <trkpt lat="47.04249" lon="5.63063">
        <ele>235.18</ele>
        <time>2016-06-01T14:31:43Z</time>
      </trkpt>
      <trkpt lat="47.04238" lon="5.63068">
        <ele>235.18</ele>
        <time>2016-06-01T14:31:52Z</time>
      </trkpt>
      <trkpt lat="47.04233" lon="5.63062">
        <ele>233.74</ele>
        <time>2016-06-01T14:32:05Z</time>
      </trkpt>
      <trkpt lat="47.04232" lon="5.63062">
        <ele>233.26</ele>
        <time>2016-06-01T14:32:09Z</time>
      </trkpt>
      <trkpt lat="47.04233" lon="5.63063">
        <ele>233.26</ele>
        <time>2016-06-01T14:32:12Z</time>
      </trkpt>
      <trkpt lat="47.0424" lon="5.63063">
        <ele>233.74</ele>
        <time>2016-06-01T14:32:23Z</time>
      </trkpt>
      <trkpt lat="47.04241" lon="5.63062">
        <ele>233.74</ele>
        <time>2016-06-01T14:32:24Z</time>
      </trkpt>
      <trkpt lat="47.04244" lon="5.63048">
        <ele>231.33</ele>
        <time>2016-06-01T14:32:35Z</time>
      </trkpt>
      <trkpt lat="47.0424" lon="5.63043">
        <ele>230.85</ele>
        <time>2016-06-01T14:32:49Z</time>
      </trkpt>
      <trkpt lat="47.04238" lon="5.63043">
        <ele>230.37</ele>
        <time>2016-06-01T14:33:07Z</time>
      </trkpt>
      <trkpt lat="47.04236" lon="5.63041">
        <ele>230.37</ele>
        <time>2016-06-01T14:33:10Z</time>
      </trkpt>
      <trkpt lat="47.0423" lon="5.63034">
        <ele>230.37</ele>
        <time>2016-06-01T14:33:33Z</time>
      </trkpt>
      <trkpt lat="47.04227" lon="5.63045">
        <ele>230.37</ele>
        <time>2016-06-01T14:33:50Z</time>
      </trkpt>
      <trkpt lat="47.04232" lon="5.63051">
        <ele>230.85</ele>
        <time>2016-06-01T14:34:10Z</time>
      </trkpt>
      <trkpt lat="47.04239" lon="5.63059">
        <ele>233.26</ele>
        <time>2016-06-01T14:34:28Z</time>
      </trkpt>
      <trkpt lat="47.04238" lon="5.63054">
        <ele>233.26</ele>
        <time>2016-06-01T14:34:47Z</time>
      </trkpt>
    </trkseg>
  </trk>
</gpx>